AXGD100 Flymaster F1, V1.21, S/N 1200
HFDTE110912
HOPLTPILOT: Alain Marco Curion Cirerol
HOGTYGLIDERTYPE: Wintech Fenix
HOGIDGLIDERID: None
HODTM100GPSDATUM: WGS-84
HOCIDCOMPETITIONID: 
HOCCLCOMPETITION CLASS: Sport
HOSITSite: None
B1213503743339N00355585WA0105701174
B1213513743337N00355587WA0105601174
B1213523743335N00355589WA0105601174
B1213533743333N00355591WA0105601174
B1213543743332N00355594WA0105501174
B1213553743331N00355595WA0105401174
B1213563743331N00355596WA0105301174
B1213573743331N00355596WA0105301174
B1213583743331N00355596WA0105301174
B1213593743331N00355596WA0105301174
B1214003743331N00355596WA0105301174
B1214013743330N00355595WA0105201174
B1214023743330N00355595WA0105301174
B1214033743330N00355595WA0105301174
B1214043743330N00355595WA0105301174
B1214053743330N00355595WA0105301174
B1214063743330N00355594WA0105301174
B1214073743329N00355595WA0105301174
B1214083743330N00355595WA0105401174
B1214093743330N00355596WA0105401174
B1214103743330N00355595WA0105301174
B1214113743330N00355596WA0105301173
B1214123743330N00355595WA0105201173
B1214133743330N00355595WA0105301173
B1214143743330N00355595WA0105201173
B1214153743330N00355595WA0105301173
B1214163743330N00355595WA0105301173
B1214173743330N00355595WA0105301173
B1214183743330N00355595WA0105301173
B1214193743329N00355595WA0105401173
B1214203743329N00355595WA0105301173
B1214213743329N00355595WA0105301173
B1214223743329N00355595WA0105301173
B1214233743329N00355595WA0105301173
B1214243743330N00355595WA0105301173
B1214253743330N00355595WA0105301173
B1214263743329N00355595WA0105301173
B1214273743329N00355595WA0105301173
B1214283743329N00355595WA0105301173
B1214293743329N00355595WA0105301173
B1214303743329N00355595WA0105301173
B1214313743329N00355595WA0105301173
B1214323743329N00355595WA0105301173
B1214333743329N00355595WA0105301173
B1214343743329N00355594WA0105301173
B1214353743329N00355594WA0105301173
B1214363743329N00355594WA0105301173
B1214373743329N00355593WA0105301173
B1214383743328N00355595WA0105301173
B1214393743328N00355595WA0105301173
B1214403743327N00355595WA0105301173
B1214413743326N00355595WA0105301172
B1214423743327N00355595WA0105301172
B1214433743327N00355596WA0105301172
B1214443743327N00355596WA0105301172
B1214453743327N00355596WA0105301172
B1214463743326N00355596WA0105301172
B1214473743326N00355596WA0105201172
B1214483743327N00355596WA0105201171
B1214493743328N00355596WA0105201171
B1214503743329N00355595WA0105201171
B1214513743328N00355595WA0105301172
B1214523743328N00355594WA0105301172
B1214533743328N00355594WA0105301172
B1214543743329N00355593WA0105301171
B1214553743329N00355592WA0105301171
B1214563743329N00355592WA0105401171
B1214573743330N00355592WA0105401171
B1214583743330N00355591WA0105401171
B1214593743330N00355590WA0105401171
B1215003743330N00355590WA0105401171
B1215013743331N00355590WA0105401171
B1215023743331N00355589WA0105501171
B1215033743331N00355589WA0105501171
B1215043743331N00355588WA0105601171
B1215053743332N00355587WA0105501171
B1215063743332N00355587WA0105401171
B1215073743332N00355586WA0105501171
B1215083743334N00355587WA0105501171
B1215093743333N00355586WA0105401172
B1215103743334N00355586WA0105401173
B1215113743334N00355586WA0105501173
B1215123743335N00355586WA0105601173
B1215133743336N00355586WA0105501173
B1215143743336N00355586WA0105501174
B1215153743336N00355585WA0105501173
B1215163743336N00355585WA0105501173
B1215173743337N00355585WA0105501173
B1215183743337N00355585WA0105501173
B1215193743338N00355584WA0105501173
B1215203743338N00355584WA0105501173
B1215213743338N00355584WA0105601173
B1215223743339N00355584WA0105501173
B1215233743339N00355584WA0105501172
B1215243743340N00355584WA0105501172
B1215253743340N00355584WA0105401172
B1215263743341N00355583WA0105501173
B1215273743342N00355583WA0105601172
B1215283743342N00355582WA0105501172
B1215293743342N00355583WA0105501172
B1215303743343N00355582WA0105501173
B1215313743344N00355582WA0105601172
B1215323743344N00355582WA0105701172
B1215333743344N00355583WA0105701173
B1215343743344N00355582WA0105701173
B1215353743343N00355582WA0105801173
B1215363743343N00355582WA0105701173
B1215373743343N00355582WA0105601172
B1215383743344N00355582WA0105701172
B1215393743344N00355582WA0105701172
B1215403743344N00355582WA0105801172
B1215413743344N00355582WA0105701172
B1215423743345N00355583WA0105701173
B1215433743345N00355583WA0105701173
B1215443743345N00355584WA0105701173
B1215453743345N00355584WA0105701173
B1215463743344N00355584WA0105701173
B1215473743345N00355585WA0105701173
B1215483743345N00355585WA0105601173
B1215493743345N00355585WA0105701173
B1215503743345N00355585WA0105701173
B1215513743345N00355585WA0105701173
B1215523743344N00355586WA0105701173
B1215533743344N00355586WA0105701173
B1215543743344N00355587WA0105701173
B1215553743344N00355587WA0105701173
B1215563743344N00355587WA0105701173
B1215573743344N00355586WA0105701173
B1215583743343N00355586WA0105701173
B1215593743344N00355586WA0105701173
B1216003743344N00355586WA0105701173
B1216013743343N00355586WA0105701173
B1216023743344N00355586WA0105701173
B1216033743344N00355585WA0105801173
B1216043743344N00355585WA0105701173
B1216053743344N00355585WA0105701173
B1216063743344N00355585WA0105801173
B1216073743344N00355585WA0105801173
B1216083743343N00355586WA0105701173
B1216093743344N00355586WA0105701173
B1216103743343N00355586WA0105701173
B1216113743343N00355586WA0105701173
B1216123743343N00355586WA0105701173
B1216133743343N00355585WA0105701173
B1216143743343N00355585WA0105601172
B1216153743343N00355585WA0105601172
B1216163743343N00355585WA0105601171
B1216173743343N00355584WA0105501172
B1216183743343N00355585WA0105501172
B1216193743343N00355585WA0105601172
B1216203743343N00355585WA0105601172
B1216213743343N00355585WA0105501172
B1216223743343N00355585WA0105701173
B1216233743344N00355586WA0105701173
B1216243743344N00355586WA0105701173
B1216253743344N00355586WA0105701173
B1216263743346N00355588WA0105701173
B1216273743345N00355587WA0105701173
B1216283743344N00355587WA0105701173
B1216293743344N00355586WA0105701172
B1216303743344N00355585WA0105701172
B1216313743344N00355585WA0105701173
B1216323743344N00355585WA0105701172
B1216333743344N00355585WA0105701173
B1216343743343N00355586WA0105701173
B1216353743343N00355586WA0105701173
B1216363743343N00355587WA0105701173
B1216373743343N00355586WA0105601173
B1216383743342N00355586WA0105601173
B1216393743343N00355586WA0105801173
B1216403743342N00355587WA0105801173
B1216413743342N00355587WA0105701173
B1216423743342N00355587WA0105701173
B1216433743342N00355587WA0105701173
B1216443743342N00355587WA0105701173
B1216453743342N00355587WA0105701173
B1216463743342N00355587WA0105701173
B1216473743342N00355587WA0105701173
B1216483743342N00355586WA0105701173
B1216493743342N00355586WA0105701173
B1216503743342N00355586WA0105701173
B1216513743342N00355586WA0105701173
B1216523743342N00355586WA0105701173
B1216533743343N00355586WA0105701173
B1216543743343N00355586WA0105701173
B1216553743343N00355586WA0105701173
B1216563743342N00355587WA0105701173
B1216573743342N00355587WA0105801173
B1216583743342N00355588WA0105701173
B1216593743342N00355588WA0105701173
B1217003743342N00355588WA0105701173
B1217013743341N00355587WA0105701173
B1217023743342N00355587WA0105701173
B1217033743342N00355586WA0105701173
B1217043743343N00355585WA0105701173
B1217053743343N00355585WA0105701173
B1217063743343N00355586WA0105501173
B1217073743343N00355586WA0105501173
B1217083743343N00355586WA0105601173
B1217093743343N00355585WA0105801173
B1217103743343N00355585WA0105701173
B1217113743343N00355585WA0105701173
B1217123743343N00355585WA0105701173
B1217133743343N00355585WA0105701173
B1217143743343N00355584WA0105801173
B1217153743343N00355584WA0105801173
B1217163743344N00355584WA0105701173
B1217173743343N00355583WA0105701173
B1217183743343N00355584WA0105701173
B1217193743344N00355585WA0105701173
B1217203743344N00355585WA0105701173
B1217213743344N00355585WA0105701173
B1217223743345N00355585WA0105701173
B1217233743345N00355585WA0105701173
B1217243743344N00355585WA0105601173
B1217253743344N00355585WA0105601173
B1217263743343N00355585WA0105601173
B1217273743343N00355586WA0105601173
B1217283743343N00355587WA0105501173
B1217293743343N00355588WA0105501173
B1217303743342N00355589WA0105501173
B1217313743341N00355591WA0105601173
B1217323743340N00355592WA0105501173
B1217333743340N00355593WA0105501173
B1217343743340N00355592WA0105601173
B1217353743340N00355592WA0105601173
B1217363743340N00355592WA0105601173
B1217373743340N00355592WA0105601173
B1217383743340N00355591WA0105601173
B1217393743340N00355592WA0105501173
B1217403743340N00355592WA0105501173
B1217413743340N00355592WA0105501173
B1217423743340N00355592WA0105501173
B1217433743340N00355592WA0105501173
B1217443743340N00355591WA0105501173
B1217453743340N00355592WA0105501173
B1217463743340N00355592WA0105501172
B1217473743340N00355592WA0105501173
B1217483743340N00355592WA0105401173
B1217493743340N00355592WA0105501173
B1217503743340N00355592WA0105501173
B1217513743340N00355592WA0105401173
B1217523743341N00355592WA0105301172
B1217533743341N00355592WA0105401172
B1217543743342N00355592WA0105401172
B1217553743343N00355592WA0105301173
B1217563743344N00355592WA0105301173
B1217573743345N00355592WA0105301173
B1217583743346N00355592WA0105301172
B1217593743347N00355593WA0105201172
B1218003743347N00355594WA0105201172
B1218013743348N00355595WA0105201172
B1218023743349N00355597WA0105101172
B1218033743349N00355599WA0105101172
B1218043743350N00355601WA0105101172
B1218053743351N00355604WA0105101172
B1218063743351N00355606WA0105001172
B1218073743351N00355609WA0105101172
B1218083743352N00355611WA0105101171
B1218093743354N00355614WA0104801171
B1218103743357N00355616WA0104601171
B1218113743360N00355618WA0104701171
B1218123743362N00355618WA0104801171
B1218133743364N00355619WA0104801171
B1218143743365N00355620WA0104701171
B1218153743367N00355621WA0104701171
B1218163743370N00355622WA0104801171
B1218173743372N00355623WA0104601171
B1218183743375N00355626WA0104601170
B1218193743376N00355629WA0104701170
B1218203743377N00355632WA0104801170
B1218213743379N00355634WA0105001170
B1218223743380N00355634WA0104901170
B1218233743381N00355633WA0104901170
B1218243743382N00355630WA0105001170
B1218253743383N00355627WA0105101170
B1218263743382N00355623WA0105101171
B1218273743380N00355620WA0105101171
B1218283743379N00355616WA0105001171
B1218293743378N00355611WA0105101171
B1218303743377N00355607WA0105101171
B1218313743376N00355603WA0105101171
B1218323743373N00355595WA0105001171
B1218333743370N00355590WA0104701167
B1218343743369N00355585WA0104701166
B1218353743368N00355582WA0104701166
B1218363743369N00355581WA0104701166
B1218373743372N00355581WA0104401166
B1218383743375N00355580WA0104501165
B1218393743377N00355580WA0104601164
B1218403743378N00355579WA0104701165
B1218413743380N00355579WA0104801165
B1218423743381N00355580WA0105101165
B1218433743382N00355580WA0105201166
B1218443743383N00355579WA0105201166
B1218453743384N00355579WA0105101166
B1218463743385N00355579WA0105101166
B1218473743386N00355580WA0105101166
B1218483743387N00355580WA0105101166
B1218493743388N00355579WA0105101166
B1218503743389N00355577WA0105201166
B1218513743390N00355575WA0105201167
B1218523743391N00355572WA0105201167
B1218533743391N00355568WA0105401167
B1218543743391N00355564WA0105501167
B1218553743389N00355561WA0105601168
B1218563743388N00355557WA0105601168
B1218573743387N00355554WA0105601168
B1218583743386N00355549WA0105501168
B1218593743385N00355545WA0105401168
B1219003743385N00355540WA0105401169
B1219013743385N00355536WA0105301169
B1219023743385N00355534WA0105301169
B1219033743386N00355532WA0105401169
B1219043743387N00355531WA0105401169
B1219053743388N00355530WA0105201169
B1219063743391N00355530WA0105101169
B1219073743393N00355531WA0105301169
B1219083743395N00355533WA0105601169
B1219093743395N00355536WA0105901169
B1219103743394N00355540WA0105901170
B1219113743393N00355545WA0105901170
B1219123743393N00355550WA0105901170
B1219133743393N00355555WA0105901170
B1219143743395N00355560WA0105801170
B1219153743397N00355564WA0105701170
B1219163743400N00355565WA0105801170
B1219173743402N00355566WA0105901170
B1219183743404N00355564WA0106001171
B1219193743404N00355560WA0106201172
B1219203743403N00355556WA0106301173
B1219213743402N00355552WA0106301173
B1219223743402N00355549WA0106401174
B1219233743404N00355547WA0106401175
B1219243743405N00355547WA0106501176
B1219253743406N00355548WA0106601177
B1219263743405N00355550WA0106701179
B1219273743407N00355553WA0106801177
B1219283743408N00355557WA0106601177
B1219293743407N00355563WA0106501178
B1219303743405N00355569WA0106501178
B1219313743402N00355575WA0106501178
B1219323743398N00355580WA0106701178
B1219333743396N00355585WA0106801178
B1219343743394N00355592WA0106801178
B1219353743393N00355598WA0106601179
B1219363743394N00355605WA0106601179
B1219373743396N00355610WA0106601179
B1219383743397N00355612WA0106901179
B1219393743398N00355612WA0107101179
B1219403743400N00355611WA0107101180
B1219413743401N00355611WA0107001181
B1219423743404N00355612WA0107001181
B1219433743408N00355612WA0106901182
B1219443743411N00355614WA0107001183
B1219453743413N00355616WA0107301185
B1219463743414N00355620WA0107501187
B1219473743414N00355626WA0107401187
B1219483743413N00355633WA0107401188
B1219493743413N00355640WA0107101188
B1219503743413N00355648WA0106901188
B1219513743413N00355655WA0107201188
B1219523743412N00355661WA0107401189
B1219533743412N00355667WA0107501191
B1219543743413N00355672WA0107601193
B1219553743414N00355677WA0107701195
B1219563743416N00355681WA0107601196
B1219573743420N00355685WA0107501195
B1219583743424N00355686WA0107501195
B1219593743427N00355683WA0107501195
B1220003743429N00355678WA0107501195
B1220013743429N00355671WA0107401196
B1220023743427N00355667WA0107901198
B1220033743424N00355664WA0108401201
B1220043743422N00355663WA0108601203
B1220053743421N00355661WA0108301204
B1220063743420N00355657WA0107701204
B1220073743420N00355652WA0107501203
B1220083743419N00355647WA0107601202
B1220093743418N00355643WA0107901203
B1220103743418N00355640WA0107901202
B1220113743421N00355639WA0107801202
B1220123743424N00355638WA0107501201
B1220133743429N00355640WA0107501201
B1220143743432N00355644WA0107401202
B1220153743434N00355650WA0107401201
B1220163743435N00355657WA0107301201
B1220173743436N00355664WA0107501201
B1220183743439N00355669WA0107601200
B1220193743443N00355672WA0107801200
B1220203743447N00355673WA0108101201
B1220213743451N00355672WA0108401204
B1220223743453N00355669WA0108801206
B1220233743454N00355666WA0109201208
B1220243743453N00355661WA0109501210
B1220253743452N00355657WA0109701206
B1220263743451N00355653WA0109801207
B1220273743450N00355649WA0109901209
B1220283743447N00355645WA0110001212
B1220293743442N00355642WA0110301214
B1220303743435N00355640WA0110401214
B1220313743428N00355641WA0110501216
B1220323743421N00355642WA0110701218
B1220333743415N00355643WA0111101221
B1220343743410N00355645WA0111201224
B1220353743406N00355650WA0111501226
B1220363743403N00355657WA0111601228
B1220373743402N00355664WA0111801229
B1220383743404N00355670WA0111901231
B1220393743408N00355673WA0112001233
B1220403743412N00355672WA0112201235
B1220413743415N00355667WA0112501236
B1220423743415N00355661WA0112601240
B1220433743411N00355655WA0113101243
B1220443743406N00355650WA0113401246
B1220453743400N00355647WA0113801249
B1220463743394N00355647WA0113901253
B1220473743390N00355650WA0113901257
B1220483743387N00355653WA0113801258
B1220493743387N00355659WA0113501259
B1220503743390N00355665WA0112801260
B1220513743394N00355671WA0112601260
B1220523743393N00355672WA0113701262
B1220533743391N00355673WA0114401256
B1220543743389N00355674WA0114701256
B1220553743388N00355677WA0114901257
B1220563743389N00355683WA0114401259
B1220573743392N00355688WA0114201259
B1220583743394N00355692WA0114801260
B1220593743396N00355695WA0115301261
B1221003743397N00355698WA0115601262
B1221013743399N00355701WA0115701264
B1221023743402N00355705WA0115501265
B1221033743406N00355709WA0115301266
B1221043743410N00355713WA0115201266
B1221053743413N00355718WA0115301267
B1221063743416N00355723WA0115601270
B1221073743417N00355729WA0115801271
B1221083743420N00355734WA0116001273
B1221093743422N00355738WA0116301275
B1221103743426N00355742WA0116301276
B1221093743429N00355745WA0116501278
B1221103743433N00355747WA0116401280
B1221113743437N00355750WA0116401281
B1221133743442N00355759WA0116501283
B1221143743444N00355764WA0116501284
B1221153743447N00355769WA0116601285
B1221163743450N00355773WA0116701286
B1221173743452N00355775WA0116801288
B1221183743454N00355777WA0116801289
B1221193743456N00355779WA0116801290
B1221203743458N00355784WA0116601289
B1221213743460N00355789WA0116401289
B1221223743461N00355796WA0116001289
B1221233743460N00355802WA0116201288
B1221243743461N00355807WA0116201287
B1221253743463N00355811WA0115901284
B1221263743465N00355816WA0115601282
B1221273743466N00355821WA0115401279
B1221283743469N00355827WA0115201274
B1221293743471N00355834WA0114901272
B1221303743472N00355839WA0114801270
B1221313743473N00355844WA0114601268
B1221323743475N00355849WA0114301265
B1221333743477N00355854WA0113901262
B1221343743479N00355859WA0113601258
B1221353743481N00355863WA0113401255
B1221363743484N00355867WA0113301253
B1221373743486N00355870WA0113401251
B1221383743489N00355873WA0113301250
B1221393743490N00355877WA0113301250
B1221403743493N00355881WA0113501249
B1221413743495N00355886WA0113501249
B1221423743497N00355892WA0113401248
B1221433743498N00355898WA0113301248
B1221443743499N00355905WA0113201247
B1221453743500N00355912WA0112901247
B1221463743502N00355918WA0112701246
B1221473743503N00355923WA0112701245
B1221483743504N00355929WA0112501243
B1221493743506N00355936WA0112401240
B1221503743509N00355942WA0112101238
B1221513743513N00355947WA0112101238
B1221523743516N00355949WA0112401237
B1221533743518N00355949WA0112601238
B1221543743520N00355950WA0113001238
B1221553743522N00355951WA0113201239
B1221563743525N00355952WA0113301239
B1221573743528N00355953WA0113301239
B1221583743531N00355952WA0113401240
B1221593743533N00355950WA0113501241
B1222003743535N00355946WA0113701244
B1222013743535N00355942WA0113801246
B1222023743534N00355937WA0113801246
B1222033743531N00355932WA0113801247
B1222043743525N00355929WA0113801248
B1222053743517N00355928WA0113401248
B1222063743509N00355932WA0113401249
B1222073743504N00355939WA0113501249
B1222083743502N00355948WA0113601250
B1222093743503N00355955WA0113701252
B1222103743506N00355959WA0113801254
B1222113743509N00355962WA0113901255
B1222123743513N00355963WA0114101256
B1222133743515N00355962WA0114401257
B1222143743517N00355961WA0114601258
B1222153743518N00355959WA0114801259
B1222163743519N00355955WA0114801260
B1222173743517N00355949WA0114701260
B1222183743513N00355943WA0114601259
B1222193743507N00355939WA0114601258
B1222203743500N00355936WA0114501259
B1222213743492N00355937WA0114501260
B1222223743484N00355940WA0114601260
B1222233743478N00355945WA0114601260
B1222243743473N00355952WA0114701261
B1222253743470N00355959WA0114801262
B1222263743469N00355966WA0115001264
B1222273743469N00355972WA0115201265
B1222283743470N00355978WA0115401268
B1222293743472N00355984WA0115601270
B1222303743473N00355989WA0115801272
B1222313743474N00355995WA0116001276
B1222323743475N00356000WA0116201278
B1222333743477N00356004WA0116301279
B1222343743479N00356007WA0116201280
B1222353743482N00356008WA0116201281
B1222363743484N00356009WA0116201282
B1222373743486N00356010WA0116201283
B1222383743489N00356012WA0116201284
B1222393743491N00356014WA0116201284
B1222403743493N00356018WA0116301285
B1222413743494N00356025WA0116301285
B1222423743494N00356032WA0116001285
B1222433743492N00356040WA0116201285
B1222443743488N00356048WA0116201286
B1222453743484N00356055WA0116201286
B1222463743479N00356061WA0116601289
B1222473743475N00356067WA0116901291
B1222483743473N00356073WA0117201293
B1222493743472N00356080WA0117201294
B1222503743472N00356086WA0117201293
B1222513743472N00356092WA0117201293
B1222523743472N00356099WA0117001294
B1222533743472N00356106WA0116801292
B1222543743474N00356113WA0116701291
B1222553743475N00356118WA0116701292
B1222563743476N00356122WA0117001292
B1222573743476N00356126WA0117301293
B1222583743476N00356130WA0117501294
B1222593743475N00356137WA0117601294
B1223003743474N00356145WA0117701295
B1223013743474N00356151WA0117901297
B1223023743476N00356156WA0117901299
B1223033743477N00356159WA0118001300
B1223043743480N00356160WA0118001301
B1223053743481N00356159WA0118101301
B1223063743482N00356157WA0118301302
B1223073743482N00356154WA0118501302
B1223083743482N00356151WA0118701304
B1223093743480N00356148WA0118901306
B1223103743476N00356145WA0119101304
B1223113743472N00356142WA0119301305
B1223123743466N00356140WA0119301306
B1223133743460N00356138WA0119401307
B1223143743453N00356139WA0119701308
B1223153743446N00356141WA0119901310
B1223163743440N00356144WA0120001312
B1223173743434N00356148WA0120101315
B1223183743428N00356153WA0120301316
B1223193743422N00356158WA0120301318
B1223203743417N00356165WA0120401318
B1223213743413N00356173WA0120501319
B1223223743411N00356181WA0120701321
B1223233743410N00356188WA0120901323
B1223243743411N00356193WA0120901325
B1223253743413N00356197WA0120901326
B1223263743416N00356199WA0121001326
B1223273743419N00356200WA0121201328
B1223283743422N00356199WA0121401329
B1223293743423N00356198WA0121801331
B1223303743423N00356197WA0122001333
B1223313743422N00356194WA0122201335
B1223323743421N00356191WA0122201330
B1223333743418N00356187WA0122301331
B1223343743412N00356182WA0122301332
B1223353743404N00356178WA0122601334
B1223363743396N00356177WA0122601334
B1223373743389N00356178WA0122801335
B1223383743382N00356182WA0123001336
B1223393743375N00356187WA0123201338
B1223403743368N00356194WA0123301339
B1223413743364N00356201WA0123501341
B1223423743360N00356209WA0123701343
B1223433743359N00356217WA0123801345
B1223443743359N00356223WA0124001347
B1223453743359N00356230WA0124201350
B1223463743360N00356235WA0124301353
B1223473743361N00356239WA0124301354
B1223483743363N00356242WA0124301355
B1223493743366N00356243WA0124301352
B1223503743368N00356243WA0124501352
B1223513743369N00356243WA0124801353
B1223523743370N00356243WA0125201355
B1223533743370N00356242WA0125301356
B1223543743369N00356240WA0125401357
B1223553743367N00356237WA0125401359
B1223563743363N00356233WA0125301360
B1223573743357N00356229WA0125501362
B1223583743349N00356228WA0125601364
B1223593743341N00356231WA0125701367
B1224003743334N00356235WA0125801369
B1224013743327N00356241WA0126001370
B1224023743321N00356247WA0126101373
B1224033743317N00356254WA0126301375
B1224043743314N00356261WA0126401376
B1224053743313N00356269WA0126401377
B1224063743314N00356277WA0126401378
B1224073743316N00356285WA0126401380
B1224083743317N00356291WA0126501382
B1224093743319N00356296WA0126601384
B1224103743321N00356300WA0126701386
B1224113743323N00356304WA0126701387
B1224123743326N00356306WA0126701388
B1224133743329N00356306WA0126401388
B1224143743331N00356305WA0126301389
B1224153743331N00356303WA0126401389
B1224163743332N00356301WA0126501387
B1224173743332N00356298WA0126501387
B1224183743332N00356294WA0126301387
B1224193743331N00356289WA0126201387
B1224203743328N00356284WA0126201386
B1224213743323N00356281WA0126301386
B1224223743317N00356279WA0126301387
B1224233743311N00356279WA0126401387
B1224243743303N00356279WA0126401387
B1224253743294N00356281WA0126401387
B1224263743286N00356283WA0126601388
B1224273743279N00356288WA0126801389
B1224283743272N00356294WA0126901392
B1224293743266N00356301WA0126901393
B1224303743261N00356310WA0126601393
B1224313743257N00356320WA0126501393
B1224323743254N00356328WA0126901394
B1224333743252N00356336WA0127101395
B1224343743250N00356344WA0127101396
B1224353743249N00356353WA0127101396
B1224363743249N00356362WA0127101396
B1224373743250N00356370WA0127001396
B1224383743252N00356378WA0127001396
B1224393743254N00356383WA0127001396
B1224403743256N00356386WA0126901396
B1224413743258N00356390WA0126701395
B1224423743261N00356393WA0126501394
B1224433743264N00356396WA0126301393
B1224443743268N00356399WA0126001392
B1224453743271N00356402WA0125901391
B1224463743274N00356403WA0125701390
B1224473743277N00356404WA0125601389
B1224483743280N00356405WA0125501387
B1224493743282N00356408WA0125301386
B1224503743284N00356413WA0125101383
B1224513743285N00356419WA0124801380
B1224523743284N00356427WA0124501376
B1224533743281N00356435WA0124201371
B1224543743276N00356444WA0123901368
B1224553743271N00356451WA0123801366
B1224563743269N00356459WA0123801365
B1224573743267N00356466WA0123601363
B1224583743266N00356473WA0123201361
B1224593743264N00356480WA0122901359
B1225003743261N00356488WA0122701356
B1225013743258N00356495WA0122301354
B1225023743254N00356501WA0122101351
B1225033743250N00356508WA0121701348
B1225043743245N00356514WA0121301345
B1225053743242N00356522WA0121001341
B1225063743238N00356529WA0120801338
B1225073743236N00356537WA0120501335
B1225083743233N00356544WA0120301333
B1225093743230N00356552WA0119901330
B1225103743226N00356560WA0119601326
B1225113743223N00356569WA0119301323
B1225123743219N00356578WA0119301321
B1225133743216N00356585WA0119101320
B1225143743214N00356592WA0119001318
B1225153743211N00356600WA0118801316
B1225163743208N00356607WA0118401314
B1225173743203N00356614WA0117901311
B1225183743199N00356620WA0117801309
B1225193743194N00356626WA0117601306
B1225203743189N00356630WA0117501305
B1225213743185N00356635WA0117401304
B1225223743180N00356640WA0117201303
B1225233743175N00356644WA0117001301
B1225243743169N00356649WA0116801298
B1225253743164N00356654WA0116501295
B1225263743159N00356659WA0116301293
B1225273743154N00356665WA0116201291
B1225283743149N00356671WA0116001289
B1225293743145N00356678WA0115801287
B1225303743141N00356684WA0115501284
B1225313743137N00356691WA0115201282
B1225323743132N00356698WA0115201279
B1225333743128N00356704WA0115001277
B1225343743123N00356710WA0114801276
B1225353743118N00356716WA0114601274
B1225363743114N00356722WA0114501272
B1225373743109N00356728WA0114301270
B1225383743105N00356735WA0114201268
B1225393743100N00356741WA0114001267
B1225403743094N00356746WA0113801266
B1225413743090N00356752WA0113801265
B1225423743085N00356758WA0113701264
B1225433743081N00356765WA0113701263
B1225443743078N00356773WA0113601262
B1225453743075N00356780WA0113501260
B1225463743072N00356788WA0113501260
B1225473743070N00356794WA0113401259
B1225483743068N00356801WA0113301258
B1225493743066N00356808WA0113201256
B1225503743063N00356814WA0113101255
B1225513743060N00356820WA0112901254
B1225523743056N00356826WA0112701253
B1225533743054N00356832WA0112501251
B1225543743051N00356838WA0112301249
B1225553743049N00356844WA0112001246
B1225563743047N00356850WA0111701243
B1225573743044N00356856WA0111501241
B1225583743042N00356862WA0111201238
B1225593743040N00356868WA0111101235
B1226003743038N00356875WA0110801233
B1226013743035N00356881WA0110701230
B1226023743032N00356887WA0110501228
B1226033743028N00356892WA0110301227
B1226043743022N00356896WA0109801225
B1226053743017N00356899WA0109501222
B1226063743011N00356902WA0109301220
B1226073743005N00356905WA0109301218
B1226083743000N00356909WA0109101216
B1226093742994N00356912WA0108901214
B1226103742989N00356916WA0108701212
B1226113742983N00356920WA0108301209
B1226123742978N00356925WA0108201207
B1226133742973N00356930WA0107901204
B1226143742968N00356935WA0107801202
B1226153742964N00356940WA0107701200
B1226163742960N00356945WA0107501198
B1226173742956N00356951WA0107301196
B1226183742952N00356957WA0107201194
B1226193742947N00356962WA0107201193
B1226203742943N00356967WA0107201192
B1226213742939N00356971WA0107101191
B1226223742935N00356976WA0106901190
B1226233742932N00356981WA0106701188
B1226243742928N00356986WA0106401186
B1226253742923N00356992WA0106301184
B1226263742919N00356997WA0106201183
B1226273742913N00357001WA0106001181
B1226283742908N00357006WA0105801179
B1226293742904N00357011WA0105501176
B1226303742900N00357017WA0105301173
B1226313742896N00357023WA0105101171
B1226323742893N00357028WA0105001169
B1226333742888N00357033WA0104801167
B1226343742884N00357037WA0104401165
B1226353742879N00357042WA0104001162
B1226363742873N00357046WA0103801160
B1226373742868N00357052WA0103701158
B1226383742863N00357058WA0103501156
B1226393742858N00357064WA0103501154
B1226403742854N00357070WA0103501153
B1226413742850N00357076WA0103501153
B1226423742846N00357082WA0103401153
B1226433742843N00357087WA0103201152
B1226443742841N00357093WA0103101151
B1226453742839N00357099WA0103001149
B1226463742837N00357105WA0103001148
B1226473742836N00357111WA0103001148
B1226483742834N00357117WA0102901147
B1226493742833N00357123WA0102901146
B1226503742833N00357129WA0102801145
B1226513742831N00357135WA0102701144
B1226523742829N00357141WA0102601142
B1226533742826N00357150WA0102501141
B1226543742821N00357159WA0102501141
B1226553742816N00357167WA0102801143
B1226563742812N00357173WA0103101146
B1226573742810N00357179WA0103301149
B1226583742810N00357185WA0103401150
B1226593742811N00357192WA0103401150
B1227003742813N00357198WA0103601150
B1227013742816N00357204WA0103801153
B1227023742819N00357207WA0104101156
B1227033742822N00357207WA0104301158
B1227043742826N00357205WA0104501159
B1227053742828N00357203WA0104701161
B1227063742830N00357199WA0104501163
B1227073742828N00357193WA0104401164
B1227083742824N00357187WA0104301159
B1227093742819N00357182WA0104101159
B1227103742812N00357178WA0104101158
B1227113742806N00357176WA0104201158
B1227123742800N00357174WA0104401159
B1227133742793N00357174WA0104401159
B1227143742787N00357174WA0104601160
B1227153742781N00357177WA0104701161
B1227163742775N00357181WA0104801163
B1227173742769N00357185WA0104901165
B1227183742764N00357190WA0105001166
B1227193742760N00357195WA0105101167
B1227203742756N00357201WA0105101168
B1227213742754N00357208WA0105201168
B1227223742753N00357216WA0105401169
B1227233742753N00357223WA0105601171
B1227243742754N00357227WA0105801173
B1227253742755N00357231WA0105901174
B1227263742758N00357234WA0106001175
B1227273742762N00357235WA0105901176
B1227283742765N00357233WA0106101177
B1227293742767N00357230WA0106201177
B1227303742768N00357225WA0106101178
B1227313742766N00357219WA0106001177
B1227323742763N00357213WA0106001176
B1227333742758N00357208WA0106001176
B1227343742752N00357205WA0106001177
B1227353742745N00357204WA0105701177
B1227363742738N00357205WA0105701177
B1227373742731N00357207WA0106001178
B1227383742726N00357210WA0106301179
B1227393742720N00357213WA0106401181
B1227403742715N00357218WA0106501182
B1227413742711N00357224WA0106601183
B1227423742706N00357230WA0106701183
B1227433742703N00357236WA0106801184
B1227443742700N00357242WA0106901184
B1227453742698N00357248WA0107001185
B1227463742697N00357254WA0107101186
B1227473742696N00357260WA0107301187
B1227483742695N00357266WA0107501188
B1227493742695N00357272WA0107501189
B1227503742696N00357277WA0107601190
B1227513742698N00357280WA0107601191
B1227523742700N00357282WA0107701191
B1227533742703N00357282WA0107701192
B1227543742705N00357279WA0107501191
B1227553742706N00357274WA0107501191
B1227563742706N00357266WA0107401190
B1227573742702N00357259WA0107301188
B1227583742697N00357253WA0107301187
B1227593742691N00357249WA0107501188
B1228003742685N00357248WA0107601188
B1228013742679N00357247WA0107601189
B1228023742673N00357249WA0107501190
B1228033742667N00357252WA0107301190
B1228043742660N00357256WA0107101190
B1228053742654N00357262WA0107501191
B1228063742650N00357268WA0107901192
B1228073742648N00357274WA0108101194
B1228083742647N00357279WA0108301196
B1228093742648N00357285WA0108301197
B1228103742650N00357290WA0108301197
B1228113742653N00357294WA0108301197
B1228123742656N00357297WA0108301197
B1228133742660N00357297WA0108401198
B1228143742663N00357296WA0108501199
B1228153742666N00357294WA0108501200
B1228163742668N00357289WA0108401200
B1228173742668N00357284WA0108301200
B1228183742667N00357278WA0108201199
B1228193742664N00357271WA0108101198
B1228203742659N00357265WA0107901197
B1228213742652N00357260WA0107801196
B1228223742646N00357257WA0107701195
B1228233742639N00357254WA0107801195
B1228243742632N00357253WA0107701194
B1228253742625N00357253WA0107601194
B1228263742618N00357254WA0107501193
B1228273742610N00357257WA0107501192
B1228283742602N00357261WA0107401193
B1228293742595N00357266WA0107501193
B1228303742588N00357271WA0107801196
B1228313742583N00357276WA0108001198
B1228323742578N00357281WA0108201199
B1228333742574N00357286WA0108301200
B1228343742572N00357292WA0108301201
B1228353742569N00357299WA0108201201
B1228363742566N00357306WA0108401201
B1228373742562N00357313WA0108501202
B1228383742560N00357320WA0108701204
B1228393742559N00357326WA0108801206
B1228403742559N00357331WA0108901207
B1228413742560N00357336WA0109001208
B1228423742562N00357340WA0108901208
B1228433742565N00357343WA0108901208
B1228443742568N00357343WA0108901209
B1228453742570N00357342WA0109001210
B1228463742573N00357339WA0109101211
B1228473742574N00357335WA0109101211
B1228483742575N00357330WA0109001211
B1228493742575N00357323WA0108901210
B1228503742574N00357315WA0108901209
B1228513742572N00357309WA0108901209
B1228523742568N00357303WA0109101210
B1228533742564N00357300WA0109201211
B1228543742559N00357297WA0109201212
B1228553742553N00357297WA0109201213
B1228563742546N00357297WA0108801213
B1228573742539N00357298WA0108701213
B1228583742532N00357301WA0108701213
B1228593742526N00357306WA0108901212
B1229003742520N00357311WA0108901212
B1229013742515N00357317WA0109201212
B1229023742512N00357323WA0109301212
B1229033742511N00357329WA0109501213
B1229043742511N00357335WA0109601214
B1229053742512N00357339WA0109501214
B1229063742513N00357344WA0109501214
B1229073742516N00357347WA0109401213
B1229083742518N00357349WA0109401212
B1229093742521N00357348WA0109501213
B1229103742523N00357346WA0109601213
B1229113742524N00357342WA0109601214
B1229123742525N00357337WA0109501214
B1229133742525N00357330WA0109401214
B1229143742522N00357323WA0109301213
B1229153742518N00357316WA0109301212
B1229163742512N00357312WA0109401212
B1229173742505N00357310WA0109401213
B1229183742499N00357311WA0109501213
B1229193742493N00357312WA0109401214
B1229203742487N00357313WA0109301214
B1229213742480N00357316WA0109101214
B1229223742474N00357319WA0109201213
B1229233742468N00357323WA0109201212
B1229243742461N00357327WA0109201212
B1229253742454N00357332WA0109101212
B1229263742448N00357337WA0109201213
B1229273742442N00357342WA0109301214
B1229283742436N00357347WA0109401214
B1229293742430N00357353WA0109601215
B1229303742425N00357359WA0109701216
B1229313742422N00357365WA0110001217
B1229323742420N00357372WA0110001219
B1229333742420N00357377WA0110101220
B1229343742420N00357382WA0110201221
B1229353742423N00357386WA0110001221
B1229363742426N00357388WA0110001221
B1229373742431N00357388WA0109901220
B1229383742435N00357386WA0109801220
B1229393742437N00357384WA0109901220
B1229403742439N00357380WA0110001220
B1229413742440N00357376WA0109801220
B1229423742441N00357371WA0109501219
B1229433742440N00357366WA0109601218
B1229443742439N00357359WA0109401218
B1229453742436N00357352WA0109501218
B1229463742431N00357346WA0109601218
B1229473742424N00357343WA0109701218
B1229483742418N00357342WA0109501219
B1229493742411N00357343WA0109501219
B1229503742404N00357344WA0109601219
B1229513742397N00357346WA0109801220
B1229523742390N00357349WA0109801220
B1229533742383N00357352WA0109801221
B1229543742376N00357357WA0109801221
B1229553742369N00357361WA0110001222
B1229563742363N00357366WA0110001223
B1229573742358N00357370WA0110301225
B1229583742353N00357374WA0110401226
B1229593742349N00357379WA0110501227
B1230003742347N00357384WA0110201226
B1230013742346N00357391WA0110001224
B1230023742346N00357399WA0109801219
B1230033742346N00357406WA0109801217
B1230043742345N00357413WA0109801216
B1230053742344N00357419WA0109801216
B1230063742342N00357425WA0109701215
B1230073742341N00357431WA0109601214
B1230083742339N00357438WA0109501212
B1230093742336N00357445WA0109401212
B1230103742331N00357451WA0109301211
B1230113742325N00357457WA0109201211
B1230123742320N00357462WA0109001210
B1230133742316N00357467WA0108901210
B1230143742312N00357473WA0108801209
B1230153742307N00357479WA0108701208
B1230163742301N00357485WA0108601207
B1230173742295N00357490WA0108501206
B1230183742290N00357495WA0108501205
B1230193742285N00357500WA0108501205
B1230203742280N00357506WA0108201204
B1230213742274N00357512WA0107901202
B1230223742268N00357518WA0107701200
B1230233742263N00357524WA0107501198
B1230243742257N00357529WA0107501196
B1230253742252N00357534WA0107401196
B1230263742246N00357539WA0107301194
B1230273742240N00357544WA0107201193
B1230283742233N00357548WA0107101192
B1230293742226N00357551WA0107001191
B1230303742219N00357554WA0106701191
B1230313742211N00357555WA0106701190
B1230323742204N00357557WA0106701190
B1230333742197N00357558WA0106601190
B1230343742189N00357560WA0106501189
B1230353742181N00357562WA0106401188
B1230363742173N00357564WA0106301187
B1230373742166N00357567WA0106301187
B1230383742159N00357570WA0106301186
B1230393742152N00357573WA0106301186
B1230403742145N00357577WA0106201185
B1230413742138N00357580WA0106101184
B1230423742131N00357584WA0106101183
B1230433742124N00357588WA0106001183
B1230443742117N00357592WA0106001182
B1230453742111N00357596WA0106101182
B1230463742105N00357601WA0106301182
B1230473742100N00357605WA0106301183
B1230483742097N00357610WA0106501183
B1230493742094N00357614WA0106501184
B1230503742092N00357619WA0106301183
B1230513742091N00357625WA0106101181
B1230523742087N00357632WA0105901179
B1230533742082N00357638WA0105501177
B1230543742075N00357643WA0105601175
B1230553742069N00357648WA0105501174
B1230563742064N00357653WA0105501173
B1230573742059N00357658WA0105501172
B1230583742054N00357664WA0105301171
B1230593742050N00357670WA0105201170
B1231003742045N00357676WA0105101169
B1231013742041N00357682WA0105101167
B1231023742038N00357688WA0105001167
B1231033742034N00357694WA0105001167
B1231043742031N00357700WA0104901166
B1231053742027N00357705WA0104801164
B1231063742023N00357710WA0104501163
B1231073742018N00357715WA0104201160
B1231083742013N00357719WA0104001158
B1231093742007N00357723WA0103901156
B1231103742002N00357726WA0103701155
B1231113741997N00357730WA0103101153
B1231123741992N00357735WA0102901150
B1231133741988N00357740WA0102801148
B1231143741983N00357745WA0102701145
B1231153741979N00357749WA0102601144
B1231163741975N00357752WA0102501142
B1231173741970N00357755WA0102201140
B1231183741965N00357759WA0101801137
B1231193741961N00357764WA0101501134
B1231203741957N00357770WA0101201130
B1231213741953N00357775WA0100901127
B1231223741949N00357780WA0100701124
B1231233741945N00357783WA0100601122
B1231243741941N00357786WA0100301119
B1231253741937N00357790WA0099901116
B1231263741933N00357795WA0099401112
B1231273741927N00357800WA0099001108
B1231283741921N00357803WA0098701105
B1231293741913N00357804WA0098401102
B1231303741906N00357803WA0098201098
B1231313741899N00357802WA0098001096
B1231323741892N00357802WA0097801094
B1231333741885N00357804WA0097401092
B1231343741878N00357805WA0097401090
B1231353741870N00357805WA0097301088
B1231363741862N00357805WA0097301087
B1231373741854N00357805WA0097201085
B1231383741846N00357805WA0097201085
B1231393741839N00357805WA0097101085
B1231403741833N00357806WA0097001084
B1231413741826N00357806WA0096701082
B1231423741818N00357806WA0096501081
B1231433741810N00357806WA0096301079
B1231443741803N00357806WA0096201078
B1231453741796N00357806WA0096101076
B1231463741789N00357807WA0095901075
B1231473741782N00357807WA0095701073
B1231483741775N00357806WA0095501072
B1231493741768N00357803WA0095201069
B1231503741761N00357798WA0094801066
B1231513741754N00357794WA0094501064
B1231523741748N00357790WA0094501062
B1231533741742N00357787WA0094501060
B1231543741736N00357783WA0094301059
B1231553741731N00357778WA0094001057
B1231563741725N00357772WA0093801055
B1231573741720N00357766WA0093801052
B1231583741716N00357760WA0093601050
B1231593741711N00357753WA0093301047
B1232003741706N00357746WA0093101045
B1232013741701N00357739WA0092901043
B1232023741696N00357732WA0092701040
B1232033741691N00357726WA0092501038
B1232043741686N00357720WA0092301036
B1232053741680N00357714WA0092101034
B1232063741675N00357708WA0091901032
B1232073741668N00357702WA0091701029
B1232083741662N00357696WA0091501027
B1232093741656N00357691WA0091301025
B1232103741650N00357685WA0091101023
B1232113741645N00357678WA0090801021
B1232123741639N00357672WA0090501019
B1232133741633N00357665WA0090201016
B1232143741626N00357659WA0090101014
B1232153741620N00357653WA0089901011
B1232163741614N00357648WA0089701010
B1232173741608N00357643WA0089601008
B1232183741602N00357637WA0089101006
B1232193741596N00357631WA0089101003
B1232203741590N00357625WA0089001001
B1232213741585N00357618WA0088700998
B1232223741580N00357611WA0088500996
B1232233741575N00357604WA0088400994
B1232243741570N00357597WA0088300992
B1232253741563N00357591WA0088200990
B1232263741558N00357585WA0088100990
B1232273741553N00357579WA0088100989
B1232283741549N00357573WA0088000988
B1232293741546N00357566WA0087900987
B1232303741542N00357559WA0087800986
B1232313741538N00357553WA0087700985
B1232323741533N00357547WA0087500983
B1232333741530N00357540WA0087200981
B1232343741526N00357532WA0086900978
B1232353741522N00357524WA0086700976
B1232363741516N00357516WA0086500974
B1232373741509N00357509WA0086500973
B1232383741503N00357502WA0086600973
B1232393741498N00357496WA0086700972
B1232403741495N00357489WA0086800972
B1232413741491N00357482WA0086900972
B1232423741489N00357475WA0087000972
B1232433741486N00357468WA0087100972
B1232443741482N00357461WA0087200973
B1232453741479N00357454WA0087100975
B1232463741476N00357447WA0087300977
B1232473741475N00357440WA0087600979
B1232483741474N00357434WA0087800980
B1232493741473N00357427WA0088000982
B1232503741473N00357421WA0088100984
B1232513741474N00357417WA0088200986
B1232523741476N00357415WA0088300987
B1232533741478N00357414WA0088100988
B1232543741481N00357415WA0088300985
B1232553741482N00357417WA0088700984
B1232563741483N00357420WA0088900985
B1232573741482N00357424WA0089100985
B1232583741480N00357428WA0089100985
B1232593741476N00357433WA0089000985
B1233003741471N00357437WA0088600985
B1233013741465N00357440WA0089000985
B1233023741458N00357442WA0089200986
B1233033741451N00357443WA0089600988
B1233043741445N00357441WA0089700991
B1233053741439N00357437WA0089700993
B1233063741434N00357432WA0089500995
B1233073741428N00357425WA0089600996
B1233083741425N00357418WA0090100999
B1233093741424N00357412WA0090401001
B1233103741423N00357407WA0090701005
B1233113741424N00357403WA0090801008
B1233123741426N00357401WA0091001010
B1233133741428N00357401WA0091101012
B1233143741431N00357403WA0091201015
B1233153741433N00357405WA0091401017
B1233163741433N00357408WA0091801020
B1233173741433N00357412WA0091901022
B1233183741431N00357417WA0091601023
B1233193741427N00357423WA0091401023
B1233203741421N00357427WA0091801024
B1233213741414N00357428WA0091901025
B1233223741406N00357427WA0092101026
B1233233741399N00357425WA0092101028
B1233243741394N00357420WA0092301029
B1233253741389N00357415WA0092601030
B1233263741386N00357409WA0092701032
B1233273741385N00357403WA0092901034
B1233283741385N00357398WA0093101037
B1233293741387N00357394WA0093501039
B1233303741389N00357392WA0093701043
B1233313741391N00357391WA0094001045
B1233323741394N00357392WA0094101048
B1233333741396N00357395WA0094301050
B1233343741397N00357399WA0094401052
B1233353741395N00357405WA0094401053
B1233363741392N00357411WA0094601053
B1233373741387N00357415WA0094701054
B1233383741382N00357418WA0094901055
B1233393741376N00357419WA0094901057
B1233403741368N00357417WA0094701058
B1233413741361N00357413WA0094601058
B1233423741355N00357408WA0094901059
B1233433741350N00357403WA0095201060
B1233443741345N00357398WA0095601062
B1233453741342N00357392WA0095901065
B1233463741341N00357386WA0096101067
B1233473741343N00357380WA0096201069
B1233483741347N00357377WA0096201071
B1233493741351N00357378WA0096501073
B1233503741354N00357382WA0096901075
B1233513741355N00357388WA0097101078
B1233523741351N00357395WA0097101080
B1233533741346N00357400WA0097301082
B1233543741339N00357403WA0097501084
B1233553741332N00357404WA0097801087
B1233563741326N00357402WA0098101090
B1233573741320N00357399WA0098201091
B1233583741315N00357393WA0098401093
B1233593741312N00357385WA0098401095
B1234003741312N00357378WA0098401097
B1234013741315N00357372WA0098701099
B1234023741318N00357369WA0099101102
B1234033741321N00357370WA0099501106
B1234043741323N00357374WA0099701108
B1234053741323N00357381WA0099801110
B1234063741321N00357388WA0100001112
B1234073741316N00357393WA0100301114
B1234083741311N00357396WA0100501117
B1234093741304N00357398WA0100601118
B1234103741297N00357397WA0100701119
B1234113741289N00357395WA0100901119
B1234123741283N00357391WA0101001121
B1234133741278N00357386WA0101301124
B1234143741274N00357380WA0101601126
B1234153741273N00357373WA0101701128
B1234163741273N00357367WA0101901129
B1234173741275N00357362WA0102101132
B1234183741277N00357360WA0102501135
B1234193741279N00357360WA0102801139
B1234203741281N00357364WA0102901141
B1234213741281N00357370WA0102901140
B1234223741279N00357377WA0103001140
B1234233741275N00357384WA0103301143
B1234243741269N00357388WA0103701146
B1234253741263N00357390WA0104001149
B1234263741256N00357389WA0104101152
B1234273741249N00357386WA0104301154
B1234283741243N00357382WA0104401156
B1234293741237N00357376WA0104401158
B1234303741233N00357370WA0104601160
B1234313741230N00357364WA0105101162
B1234323741229N00357358WA0105301165
B1234333741229N00357352WA0105501167
B1234343741231N00357349WA0105601169
B1234353741233N00357347WA0105701172
B1234363741236N00357349WA0105701173
B1234373741237N00357352WA0105701174
B1234383741238N00357357WA0106101167
B1234393741239N00357361WA0106501168
B1234403741238N00357364WA0106901169
B1234413741237N00357368WA0107101170
B1234423741234N00357374WA0107001172
B1234433741229N00357380WA0107201173
B1234443741223N00357387WA0107501175
B1234453741216N00357391WA0107801179
B1234463741209N00357392WA0108201183
B1234473741203N00357391WA0108401187
B1234483741197N00357389WA0108601191
B1234493741190N00357384WA0108701194
B1234503741185N00357379WA0108901196
B1234513741182N00357373WA0109001199
B1234523741183N00357366WA0109201202
B1234533741184N00357361WA0109401197
B1234543741187N00357358WA0109601198
B1234553741189N00357357WA0109801200
B1234563741192N00357358WA0110001202
B1234573741193N00357359WA0110201204
B1234583741194N00357361WA0110401206
B1234593741196N00357365WA0110701209
B1235003741196N00357370WA0110801211
B1235013741194N00357378WA0111001213
B1235023741191N00357386WA0111301215
B1235033741185N00357392WA0111601219
B1235043741179N00357396WA0111801224
B1235053741172N00357396WA0112101228
B1235063741165N00357394WA0112401231
B1235073741160N00357390WA0112501234
B1235083741156N00357384WA0112501237
B1235093741154N00357377WA0112701239
B1235103741154N00357371WA0112801241
B1235113741156N00357366WA0113101244
B1235123741158N00357364WA0113401247
B1235133741161N00357364WA0113701251
B1235143741163N00357367WA0113901254
B1235153741164N00357371WA0114101257
B1235163741165N00357377WA0114501260
B1235173741163N00357382WA0114901262
B1235183741161N00357388WA0115101253
B1235193741155N00357393WA0115301255
B1235203741149N00357397WA0115501258
B1235213741142N00357399WA0115701261
B1235223741135N00357397WA0115801263
B1235233741129N00357393WA0115801265
B1235243741124N00357386WA0115901266
B1235253741122N00357379WA0116101268
B1235263741121N00357373WA0116401270
B1235273741123N00357369WA0116601273
B1235283741125N00357366WA0116901276
B1235293741127N00357365WA0117101280
B1235303741129N00357365WA0117301282
B1235313741131N00357366WA0117501285
B1235323741133N00357368WA0117801288
B1235333741135N00357370WA0117901291
B1235343741137N00357375WA0118101294
B1235353741136N00357382WA0118301296
B1235363741133N00357389WA0118401298
B1235373741128N00357396WA0118601300
B1235383741121N00357400WA0118801303
B1235393741114N00357400WA0118901305
B1235403741107N00357398WA0119101308
B1235413741102N00357392WA0119201311
B1235423741099N00357385WA0119301313
B1235433741099N00357378WA0119401314
B1235443741100N00357372WA0119601316
B1235453741104N00357368WA0119801317
B1235463741107N00357366WA0120101319
B1235473741111N00357364WA0120601312
B1235483741112N00357365WA0120801312
B1235493741113N00357369WA0121001314
B1235503741113N00357375WA0121201315
B1235513741112N00357383WA0121201316
B1235523741107N00357391WA0121201317
B1235533741099N00357396WA0121301320
B1235543741092N00357399WA0121601322
B1235553741085N00357399WA0121801326
B1235563741079N00357396WA0122201329
B1235573741074N00357392WA0122301333
B1235583741070N00357387WA0122401336
B1235593741069N00357379WA0122401338
B1236003741070N00357373WA0122401340
B1236013741073N00357368WA0122501342
B1236023741076N00357364WA0122801344
B1236033741079N00357363WA0123001347
B1236043741082N00357364WA0123101349
B1236053741084N00357366WA0123401352
B1236063741087N00357368WA0123601354
B1236073741090N00357370WA0123901357
B1236083741092N00357372WA0124301351
B1236093741092N00357376WA0124501352
B1236103741091N00357381WA0124401354
B1236113741089N00357387WA0124301355
B1236123741086N00357395WA0124301355
B1236133741083N00357403WA0124201355
B1236143741080N00357409WA0124301356
B1236153741077N00357415WA0124301358
B1236163741073N00357421WA0124301359
B1236173741068N00357426WA0124001360
B1236183741062N00357432WA0124001361
B1236193741056N00357437WA0124301362
B1236203741050N00357440WA0124401364
B1236213741043N00357444WA0124701366
B1236223741036N00357446WA0124901368
B1236233741029N00357447WA0125201372
B1236243741023N00357446WA0125301375
B1236253741017N00357441WA0125301376
B1236263741013N00357435WA0125101377
B1236273741011N00357428WA0125301379
B1236283741009N00357422WA0125801381
B1236293741010N00357417WA0126001384
B1236303741012N00357414WA0126101385
B1236313741015N00357413WA0126101386
B1236323741019N00357416WA0126201387
B1236333741022N00357420WA0126501389
B1236343741023N00357425WA0126701391
B1236353741023N00357431WA0126901394
B1236363741021N00357437WA0127001396
B1236373741018N00357444WA0127001398
B1236383741014N00357451WA0127001398
B1236393741007N00357458WA0126901398
B1236403741000N00357464WA0127101400
B1236413740994N00357467WA0127501403
B1236423740988N00357470WA0127901407
B1236433740983N00357471WA0128101411
B1236443740977N00357471WA0128201413
B1236453740971N00357469WA0128201412
B1236463740964N00357464WA0128001411
B1236473740958N00357459WA0128001411
B1236483740954N00357452WA0128101411
B1236493740952N00357447WA0128401412
B1236503740951N00357443WA0128401413
B1236513740951N00357441WA0128301414
B1236523740953N00357438WA0128101414
B1236533740956N00357436WA0127801413
B1236543740959N00357436WA0128101413
B1236553740963N00357438WA0128201414
B1236563740965N00357442WA0128401415
B1236573740968N00357446WA0128501416
B1236583740969N00357450WA0128701418
B1236593740970N00357454WA0128701419
B1237003740970N00357460WA0128701419
B1237013740968N00357467WA0128301418
B1237023740965N00357473WA0128501417
B1237033740960N00357479WA0128701418
B1237043740955N00357483WA0128701419
B1237053740949N00357486WA0128701420
B1237063740943N00357490WA0128801420
B1237073740938N00357493WA0128901421
B1237083740932N00357496WA0129001422
B1237093740925N00357498WA0129101423
B1237103740918N00357498WA0129201423
B1237113740911N00357497WA0129201424
B1237123740906N00357495WA0129201424
B1237133740901N00357492WA0129101424
B1237143740897N00357488WA0128801423
B1237153740894N00357483WA0128501422
B1237163740894N00357477WA0128601421
B1237173740896N00357472WA0128501419
B1237183740899N00357469WA0128201418
B1237193740903N00357468WA0128101418
B1237203740907N00357468WA0128101416
B1237213740910N00357469WA0128201415
B1237223740914N00357469WA0128201415
B1237233740918N00357470WA0128301413
B1237243740922N00357472WA0128301412
B1237253740925N00357473WA0128501412
B1237263740928N00357473WA0128601414
B1237273740930N00357471WA0128601414
B1237283740932N00357467WA0128601413
B1237293740934N00357462WA0128501413
B1237303740935N00357457WA0128801414
B1237313740936N00357452WA0129101416
B1237323740936N00357447WA0129301420
B1237333740935N00357443WA0129601423
B1237343740934N00357439WA0129701425
B1237353740932N00357434WA0129701425
B1237363740928N00357428WA0129701425
B1237373740923N00357423WA0129701425
B1237383740918N00357419WA0130001427
B1237393740912N00357417WA0130201429
B1237403740906N00357417WA0130301431
B1237413740901N00357418WA0130501433
B1237423740895N00357422WA0130401435
B1237433740891N00357428WA0130401435
B1237443740887N00357436WA0130301434
B1237453740885N00357444WA0130401433
B1237463740884N00357451WA0130501434
B1237473740884N00357458WA0130801435
B1237483740885N00357462WA0131001437
B1237493740887N00357466WA0131101438
B1237503740890N00357469WA0131101439
B1237513740894N00357472WA0131201439
B1237523740898N00357473WA0131201440
B1237533740901N00357472WA0131401441
B1237543740904N00357469WA0131401442
B1237553740906N00357465WA0131501443
B1237563740908N00357460WA0131601444
B1237573740908N00357455WA0131601445
B1237583740906N00357449WA0131801446
B1237593740904N00357445WA0132001448
B1238003740901N00357440WA0132001450
B1238013740897N00357437WA0132201452
B1238023740892N00357434WA0132201453
B1238033740886N00357431WA0132401454
B1238043740879N00357431WA0132601456
B1238053740874N00357432WA0132801458
B1238063740869N00357435WA0132701459
B1238073740864N00357441WA0132301460
B1238083740861N00357448WA0132301458
B1238093740859N00357456WA0132401457
B1238103740858N00357463WA0132501458
B1238113740857N00357469WA0132601458
B1238123740858N00357475WA0132801458
B1238133740859N00357480WA0132801459
B1238143740861N00357485WA0132701459
B1238153740864N00357490WA0132801458
B1238163740868N00357494WA0132801458
B1238173740871N00357495WA0133001459
B1238183740875N00357495WA0133101460
B1238193740878N00357494WA0133101461
B1238203740881N00357491WA0133201461
B1238213740883N00357487WA0133201461
B1238223740884N00357481WA0133101461
B1238233740883N00357475WA0133101460
B1238243740882N00357468WA0133101460
B1238253740880N00357462WA0133201460
B1238263740876N00357457WA0133301461
B1238273740873N00357452WA0133501463
B1238283740869N00357448WA0133701465
B1238293740865N00357444WA0133801468
B1238303740861N00357442WA0134001470
B1238313740856N00357440WA0134101472
B1238323740851N00357440WA0134001473
B1238333740847N00357441WA0133801473
B1238343740842N00357443WA0133401472
B1238353740836N00357446WA0133301471
B1238363740831N00357450WA0133101469
B1238373740826N00357454WA0132801467
B1238383740820N00357457WA0132701465
B1238393740815N00357460WA0132501463
B1238403740810N00357463WA0132301462
B1238413740805N00357467WA0132001460
B1238423740800N00357470WA0131701457
B1238433740794N00357474WA0131501454
B1238443740788N00357475WA0131201451
B1238453740783N00357474WA0130601448
B1238463740778N00357472WA0130401445
B1238473740774N00357470WA0130201442
B1238483740770N00357468WA0130201439
B1238493740766N00357467WA0130101437
B1238503740761N00357465WA0129701433
B1238513740757N00357462WA0129401429
B1238523740752N00357459WA0129001425
B1238533740747N00357457WA0128701422
B1238543740742N00357454WA0128501419
B1238553740737N00357451WA0128401416
B1238563740732N00357449WA0128201414
B1238573740728N00357446WA0128001411
B1238583740723N00357443WA0127801409
B1238593740719N00357440WA0127601407
B1239003740715N00357437WA0127401405
B1239013740711N00357433WA0127101402
B1239023740707N00357429WA0126901400
B1239033740704N00357424WA0126901398
B1239043740702N00357419WA0126801397
B1239053740700N00357416WA0126801397
B1239063740697N00357412WA0126801396
B1239073740694N00357408WA0126501395
B1239083740690N00357403WA0126201393
B1239093740686N00357399WA0126001391
B1239103740681N00357395WA0125801389
B1239113740676N00357393WA0125701387
B1239123740670N00357390WA0125401385
B1239133740664N00357387WA0125301384
B1239143740659N00357384WA0125101382
B1239153740654N00357382WA0124901380
B1239163740649N00357379WA0124601377
B1239173740643N00357377WA0124301374
B1239183740636N00357373WA0124101372
B1239193740630N00357370WA0123901369
B1239203740625N00357366WA0123801368
B1239213740619N00357363WA0123701366
B1239223740614N00357360WA0123601365
B1239233740608N00357356WA0123401363
B1239243740601N00357351WA0123301362
B1239253740595N00357346WA0123401362
B1239263740591N00357341WA0123701363
B1239273740587N00357336WA0123801365
B1239283740584N00357332WA0123901366
B1239293740580N00357328WA0123901368
B1239303740576N00357322WA0123801368
B1239313740572N00357316WA0123801367
B1239323740568N00357310WA0123801366
B1239333740565N00357304WA0123801366
B1239343740562N00357298WA0123801365
B1239353740559N00357293WA0123601365
B1239363740555N00357288WA0123401364
B1239373740552N00357281WA0123001363
B1239383740549N00357274WA0123101363
B1239393740546N00357266WA0123201362
B1239403740543N00357259WA0123301361
B1239413740541N00357252WA0123501363
B1239423740538N00357246WA0123601364
B1239433740534N00357242WA0123801366
B1239443740530N00357237WA0123801367
B1239453740525N00357234WA0123801367
B1239463740519N00357231WA0123801368
B1239473740511N00357231WA0123801368
B1239483740504N00357231WA0123801368
B1239493740497N00357233WA0123901369
B1239503740492N00357236WA0124101370
B1239513740486N00357240WA0124301371
B1239523740482N00357246WA0124301372
B1239533740480N00357252WA0124501372
B1239543740479N00357258WA0124601373
B1239553740479N00357263WA0124701374
B1239563740481N00357267WA0124801375
B1239573740484N00357270WA0124901376
B1239583740487N00357270WA0125101376
B1239593740489N00357269WA0125301377
B1240003740491N00357266WA0125301378
B1240013740492N00357260WA0125301377
B1240023740491N00357254WA0125301377
B1240033740489N00357247WA0125301377
B1240043740486N00357241WA0125301378
B1240053740481N00357235WA0125301378
B1240063740475N00357230WA0125301379
B1240073740468N00357226WA0125401380
B1240083740460N00357223WA0125501380
B1240093740453N00357222WA0125601381
B1240103740446N00357222WA0125801383
B1240113740440N00357222WA0126001385
B1240123740434N00357223WA0126201387
B1240133740428N00357226WA0126401388
B1240143740423N00357231WA0126501389
B1240153740420N00357236WA0126601390
B1240163740417N00357241WA0126701392
B1240173740417N00357246WA0126901393
B1240183740417N00357250WA0126901394
B1240193740420N00357253WA0126901394
B1240203740423N00357254WA0126901395
B1240213740426N00357254WA0127101397
B1240223740428N00357253WA0127501398
B1240233740430N00357251WA0127601400
B1240243740431N00357247WA0127701401
B1240253740432N00357242WA0127601402
B1240263740431N00357235WA0127201400
B1240273740428N00357227WA0127701400
B1240283740424N00357220WA0127901400
B1240293740418N00357214WA0128001402
B1240303740412N00357210WA0128101404
B1240313740405N00357207WA0128301405
B1240323740399N00357206WA0128501407
B1240333740392N00357206WA0128601408
B1240343740386N00357208WA0128701410
B1240353740379N00357211WA0128801411
B1240363740373N00357215WA0129001412
B1240373740369N00357219WA0129201414
B1240383740366N00357224WA0129301416
B1240393740364N00357229WA0129501419
B1240403740364N00357234WA0129601420
B1240413740365N00357239WA0129701421
B1240423740367N00357242WA0129801422
B1240433740370N00357244WA0129901424
B1240443740373N00357245WA0130101425
B1240453740375N00357244WA0130201428
B1240463740378N00357243WA0130501429
B1240473740379N00357239WA0130601431
B1240483740380N00357234WA0130701432
B1240493740380N00357228WA0130801433
B1240503740379N00357221WA0130901435
B1240513740376N00357214WA0131001436
B1240523740373N00357209WA0131201440
B1240533740368N00357205WA0131501443
B1240543740363N00357201WA0131501445
B1240553740357N00357198WA0131601446
B1240563740350N00357196WA0131701448
B1240573740343N00357196WA0131701449
B1240583740335N00357197WA0131901450
B1240593740328N00357199WA0132001452
B1241003740322N00357200WA0132301455
B1241013740317N00357201WA0132501457
B1241023740312N00357205WA0132701459
B1241033740308N00357209WA0132801460
B1241043740306N00357215WA0132901460
B1241053740304N00357221WA0132901460
B1241063740303N00357227WA0133201462
B1241073740302N00357231WA0133401464
B1241083740303N00357234WA0133501465
B1241093740304N00357237WA0133601466
B1241103740307N00357239WA0133701466
B1241113740311N00357239WA0133701466
B1241123740314N00357238WA0133701467
B1241133740317N00357235WA0133801468
B1241143740320N00357232WA0134101470
B1241153740322N00357228WA0134401471
B1241163740322N00357223WA0134601474
B1241173740321N00357217WA0134701475
B1241183740318N00357209WA0134701476
B1241193740315N00357202WA0134901475
B1241203740310N00357195WA0135101480
B1241213740306N00357190WA0135501483
B1241223740301N00357187WA0135601487
B1241233740295N00357185WA0135801489
B1241243740288N00357185WA0135801491
B1241253740282N00357186WA0135801493
B1241263740275N00357189WA0135901494
B1241273740269N00357194WA0136101495
B1241283740265N00357200WA0136301496
B1241293740262N00357205WA0136501498
B1241303740260N00357210WA0136701500
B1241313740259N00357216WA0136801502
B1241323740260N00357221WA0136801502
B1241333740262N00357225WA0136901503
B1241343740264N00357228WA0137101505
B1241353740266N00357230WA0137301506
B1241363740268N00357231WA0137401507
B1241373740271N00357232WA0137501507
B1241383740274N00357232WA0137501508
B1241393740277N00357230WA0137601509
B1241403740280N00357227WA0137701510
B1241413740282N00357223WA0137801512
B1241423740284N00357219WA0138101514
B1241433740285N00357215WA0138401517
B1241443740286N00357211WA0138701520
B1241453740286N00357205WA0138901523
B1241463740284N00357199WA0139101524
B1241473740280N00357192WA0139201526
B1241483740274N00357186WA0139401527
B1241493740268N00357182WA0139501529
B1241503740261N00357180WA0139801532
B1241513740255N00357179WA0140101535
B1241523740249N00357181WA0140301537
B1241533740243N00357184WA0140401539
B1241543740238N00357189WA0140401541
B1241553740234N00357195WA0140401542
B1241563740232N00357202WA0140601543
B1241573740231N00357208WA0140801544
B1241583740231N00357212WA0141001546
B1241593740231N00357216WA0141101547
B1242003740232N00357219WA0141101547
B1242013740235N00357221WA0141101547
B1242023740239N00357221WA0141001547
B1242033740244N00357219WA0140901548
B1242043740247N00357216WA0141201548
B1242053740249N00357212WA0141501551
B1242063740250N00357207WA0141601554
B1242073740250N00357202WA0141801555
B1242083740249N00357196WA0141901556
B1242093740247N00357189WA0142201558
B1242103740243N00357183WA0142501560
B1242113740238N00357177WA0142601562
B1242123740232N00357172WA0142901564
B1242133740225N00357169WA0143301566
B1242143740218N00357168WA0143601569
B1242153740211N00357169WA0143801572
B1242163740206N00357172WA0143901574
B1242173740201N00357177WA0143701575
B1242183740197N00357184WA0143701574
B1242193740196N00357190WA0143801574
B1242203740195N00357196WA0144001574
B1242213740196N00357201WA0144101575
B1242223740197N00357204WA0144201576
B1242233740199N00357206WA0144301578
B1242243740202N00357208WA0144301578
B1242253740206N00357208WA0144201578
B1242263740210N00357206WA0144201578
B1242273740214N00357204WA0144201578
B1242283740218N00357201WA0144301579
B1242293740221N00357198WA0144601579
B1242303740224N00357194WA0144801585
B1242313740226N00357191WA0145201588
B1242323740227N00357187WA0145401591
B1242333740227N00357181WA0145501593
B1242343740225N00357174WA0145401594
B1242353740222N00357165WA0145301595
B1242363740217N00357157WA0145601595
B1242373740211N00357152WA0146101598
B1242383740205N00357150WA0146401602
B1242393740201N00357151WA0146601606
B1242403740197N00357154WA0146501607
B1242413740195N00357159WA0146401608
B1242423740193N00357164WA0146301610
B1242433740193N00357168WA0146701611
B1242443740194N00357172WA0146701613
B1242453740197N00357174WA0146701612
B1242463740201N00357174WA0146701612
B1242473740204N00357172WA0146801612
B1242483740208N00357168WA0146901612
B1242493740209N00357163WA0147001613
B1242503740210N00357157WA0147101614
B1242513740209N00357149WA0147301613
B1242523740206N00357142WA0147501613
B1242533740202N00357137WA0147601616
B1242543740196N00357134WA0147901619
B1242553740190N00357133WA0148001620
B1242563740185N00357134WA0148201622
B1242573740179N00357137WA0148401623
B1242583740175N00357141WA0148601625
B1242593740172N00357146WA0148701627
B1243003740170N00357151WA0148801628
B1243013740172N00357156WA0148701628
B1243023740174N00357160WA0148701627
B1243033740178N00357163WA0148601627
B1243043740182N00357165WA0148801627
B1243053740186N00357166WA0148901628
B1243063740189N00357166WA0149101629
B1243073740192N00357165WA0149201630
B1243083740196N00357163WA0149401631
B1243093740199N00357160WA0149401631
B1243103740201N00357155WA0149301631
B1243113740201N00357148WA0149001631
B1243123740200N00357139WA0148701629
B1243133740196N00357132WA0149201629
B1243143740191N00357126WA0149301630
B1243153740185N00357122WA0149401632
B1243163740179N00357120WA0149501633
B1243173740171N00357119WA0149501633
B1243183740164N00357120WA0149601635
B1243193740158N00357123WA0149801636
B1243203740153N00357126WA0150001637
B1243213740148N00357130WA0150101638
B1243223740145N00357134WA0150201639
B1243233740142N00357139WA0150301641
B1243243740140N00357144WA0150301641
B1243253740140N00357149WA0150301641
B1243263740140N00357154WA0150201641
B1243273740141N00357159WA0150301641
B1243283740143N00357163WA0150201641
B1243293740145N00357167WA0150101642
B1243303740147N00357170WA0150101642
B1243313740150N00357173WA0150301642
B1243323740153N00357176WA0150401642
B1243333740158N00357180WA0150301642
B1243343740162N00357183WA0150301642
B1243353740167N00357184WA0150401643
B1243363740171N00357184WA0150601645
B1243373740175N00357182WA0150801646
B1243383740177N00357178WA0150901647
B1243393740180N00357174WA0150901648
B1243403740182N00357170WA0150901648
B1243413740183N00357164WA0151001649
B1243423740184N00357158WA0151001649
B1243433740184N00357151WA0151001649
B1243443740182N00357143WA0151001649
B1243453740179N00357136WA0151001649
B1243463740174N00357131WA0150901649
B1243473740168N00357128WA0150901650
B1243483740162N00357126WA0150901650
B1243493740156N00357126WA0150901650
B1243503740149N00357127WA0150801650
B1243513740142N00357128WA0150801649
B1243523740135N00357130WA0150801649
B1243533740128N00357132WA0150901650
B1243543740122N00357134WA0150901650
B1243553740116N00357137WA0151001651
B1243563740111N00357141WA0151001651
B1243573740106N00357145WA0151001651
B1243583740101N00357149WA0151001652
B1243593740096N00357152WA0151001652
B1244003740092N00357155WA0150701652
B1244013740086N00357158WA0150801651
B1244023740081N00357161WA0150701651
B1244033740074N00357164WA0150501649
B1244043740068N00357169WA0150401648
B1244053740061N00357174WA0150401647
B1244063740055N00357179WA0150501647
B1244073740050N00357184WA0150801649
B1244083740044N00357188WA0151101651
B1244093740039N00357192WA0151201654
B1244103740036N00357195WA0151301656
B1244113740032N00357200WA0151401657
B1244123740030N00357205WA0151301656
B1244133740029N00357211WA0151201655
B1244143740029N00357217WA0151201654
B1244153740031N00357221WA0151201654
B1244163740033N00357224WA0151401654
B1244173740035N00357225WA0151401655
B1244183740038N00357226WA0151401656
B1244193740041N00357225WA0151401656
B1244203740043N00357222WA0151201655
B1244213740046N00357218WA0150901655
B1244223740048N00357212WA0151201654
B1244233740049N00357205WA0151301654
B1244243740048N00357198WA0151501655
B1244253740045N00357191WA0151701657
B1244263740043N00357184WA0151801659
B1244273740039N00357179WA0151901661
B1244283740036N00357173WA0151901662
B1244293740030N00357168WA0152001663
B1244303740023N00357165WA0151901664
B1244313740015N00357164WA0151901665
B1244323740007N00357165WA0152001665
B1244333739999N00357168WA0152101666
B1244343739992N00357171WA0152201668
B1244353739987N00357175WA0152401669
B1244363739982N00357179WA0152501670
B1244373739979N00357184WA0152501671
B1244383739977N00357189WA0152501671
B1244393739977N00357194WA0152501670
B1244403739977N00357198WA0152501670
B1244413739979N00357201WA0152601670
B1244423739981N00357203WA0152401670
B1244433739984N00357202WA0152001669
B1244443739988N00357200WA0152201667
B1244453739991N00357195WA0152301667
B1244463739993N00357190WA0152501666
B1244473739994N00357184WA0152701670
B1244483739994N00357178WA0152801672
B1244493739994N00357173WA0152801673
B1244503739992N00357167WA0152801673
B1244513739989N00357159WA0152701670
B1244523739985N00357153WA0152601669
B1244533739978N00357148WA0152601669
B1244543739971N00357145WA0152601669
B1244553739964N00357143WA0152601669
B1244563739957N00357143WA0152601670
B1244573739950N00357143WA0152601669
B1244583739943N00357144WA0152501669
B1244593739936N00357144WA0152501669
B1245003739929N00357146WA0152501669
B1245013739922N00357148WA0152501669
B1245023739915N00357151WA0152401668
B1245033739909N00357154WA0152201668
B1245043739902N00357158WA0151901667
B1245053739896N00357160WA0152001667
B1245063739889N00357162WA0152101666
B1245073739883N00357164WA0151901666
B1245083739876N00357167WA0151601663
B1245093739868N00357170WA0151301660
B1245103739861N00357174WA0151201657
B1245113739854N00357178WA0151101655
B1245123739849N00357182WA0150901653
B1245133739843N00357186WA0150501651
B1245143739837N00357191WA0150201649
B1245153739831N00357195WA0150001646
B1245163739826N00357200WA0149801643
B1245173739821N00357205WA0149601640
B1245183739817N00357211WA0149401638
B1245193739812N00357217WA0149001636
B1245203739807N00357223WA0148601633
B1245213739804N00357229WA0148701631
B1245223739800N00357234WA0148601629
B1245233739795N00357240WA0148301627
B1245243739790N00357245WA0148101624
B1245253739785N00357250WA0147901622
B1245263739779N00357255WA0147801620
B1245273739775N00357259WA0147701620
B1245283739770N00357263WA0147601619
B1245293739766N00357267WA0147401617
B1245303739760N00357271WA0147101615
B1245313739755N00357275WA0146901613
B1245323739750N00357278WA0146901612
B1245333739745N00357282WA0146801611
B1245343739740N00357287WA0146601609
B1245353739736N00357292WA0146201607
B1245363739730N00357297WA0146001604
B1245373739725N00357301WA0145601601
B1245383739720N00357305WA0145301598
B1245393739714N00357309WA0145001595
B1245403739709N00357313WA0144601593
B1245413739705N00357318WA0144301590
B1245423739702N00357324WA0144201587
B1245433739698N00357328WA0143901584
B1245443739694N00357331WA0143801581
B1245453739691N00357334WA0143601578
B1245463739688N00357338WA0143201575
B1245473739686N00357343WA0142901572
B1245483739683N00357348WA0142601569
B1245493739680N00357353WA0142401566
B1245503739678N00357357WA0142301565
B1245513739675N00357360WA0142101564
B1245523739672N00357363WA0141701561
B1245533739669N00357366WA0141101559
B1245543739666N00357371WA0140801555
B1245553739662N00357377WA0140601552
B1245563739657N00357382WA0140501549
B1245573739652N00357385WA0140501549
B1245583739647N00357388WA0140801549
B1245593739643N00357390WA0141001551
B1246003739639N00357392WA0141101553
B1246013739636N00357395WA0141201554
B1246023739633N00357399WA0141201554
B1246033739631N00357405WA0141101553
B1246043739631N00357412WA0140901550
B1246053739634N00357419WA0140801549
B1246063739639N00357424WA0140801548
B1246073739644N00357426WA0140801547
B1246083739649N00357425WA0140801547
B1246093739653N00357423WA0140801546
B1246103739657N00357420WA0140801546
B1246113739659N00357415WA0140901547
B1246123739661N00357411WA0140901547
B1246133739661N00357405WA0140901547
B1246143739661N00357399WA0140901547
B1246153739660N00357393WA0140801546
B1246163739658N00357388WA0140801546
B1246173739657N00357382WA0140701545
B1246183739655N00357376WA0140601543
B1246193739652N00357372WA0140401542
B1246203739648N00357368WA0140301540
B1246213739644N00357364WA0140101539
B1246223739640N00357360WA0140201538
B1246233739636N00357356WA0140301537
B1246243739633N00357354WA0140301538
B1246253739631N00357352WA0140301538
B1246263739627N00357350WA0140101537
B1246273739623N00357348WA0139901537
B1246283739618N00357347WA0139701535
B1246293739613N00357346WA0139601534
B1246303739608N00357346WA0139501533
B1246313739604N00357346WA0139501533
B1246323739599N00357345WA0139501532
B1246333739594N00357344WA0139301531
B1246343739589N00357344WA0139201530
B1246353739585N00357345WA0139101529
B1246363739580N00357345WA0139101528
B1246373739575N00357346WA0139001528
B1246383739571N00357345WA0138901527
B1246393739566N00357344WA0138601526
B1246403739561N00357343WA0138201524
B1246413739556N00357341WA0138401523
B1246423739551N00357340WA0138201521
B1246433739546N00357338WA0138301521
B1246443739542N00357335WA0138301520
B1246453739538N00357332WA0138401520
B1246463739535N00357329WA0138501520
B1246473739532N00357326WA0138701520
B1246483739529N00357323WA0138901522
B1246493739526N00357320WA0138801523
B1246503739524N00357316WA0138701522
B1246513739520N00357312WA0138501521
B1246523739516N00357308WA0138401520
B1246533739512N00357304WA0138401519
B1246543739508N00357299WA0138401519
B1246553739505N00357295WA0138401519
B1246563739501N00357291WA0138301519
B1246573739497N00357288WA0138101518
B1246583739492N00357285WA0137601517
B1246593739488N00357281WA0137501516
B1247003739484N00357276WA0137601515
B1247013739480N00357270WA0137601514
B1247023739477N00357263WA0137701514
B1247033739475N00357257WA0137801515
B1247043739472N00357251WA0137701514
B1247053739470N00357245WA0137501513
B1247063739468N00357238WA0137501512
B1247073739466N00357232WA0137301510
B1247083739463N00357226WA0137301509
B1247093739459N00357221WA0137201508
B1247103739456N00357217WA0137201508
B1247113739453N00357213WA0137001507
B1247123739450N00357207WA0136801506
B1247133739446N00357200WA0136501504
B1247143739443N00357194WA0136401502
B1247153739440N00357188WA0136401501
B1247163739437N00357182WA0136201500
B1247173739434N00357177WA0135901499
B1247183739431N00357171WA0135501497
B1247193739427N00357165WA0135601496
B1247203739423N00357159WA0135501494
B1247213739420N00357154WA0135401492
B1247223739417N00357148WA0135201491
B1247233739414N00357142WA0135101489
B1247243739411N00357135WA0134801487
B1247253739407N00357128WA0134301483
B1247263739403N00357121WA0134001480
B1247273739399N00357115WA0133901477
B1247283739396N00357109WA0134001476
B1247293739392N00357104WA0133801476
B1247303739389N00357099WA0133701474
B1247313739386N00357093WA0133401472
B1247323739381N00357086WA0133101470
B1247333739377N00357080WA0132801467
B1247343739372N00357073WA0132701465
B1247353739369N00357066WA0132701464
B1247363739367N00357059WA0132401462
B1247373739365N00357050WA0132101460
B1247383739363N00357042WA0131801458
B1247393739359N00357033WA0131201454
B1247403739355N00357025WA0131101451
B1247413739352N00357018WA0131301450
B1247423739350N00357010WA0131301448
B1247433739349N00357003WA0131201447
B1247443739346N00356995WA0130901444
B1247453739343N00356988WA0130401441
B1247463739340N00356981WA0130101439
B1247473739337N00356974WA0130201437
B1247483739335N00356968WA0130301436
B1247493739334N00356962WA0130201435
B1247503739332N00356956WA0129901433
B1247513739330N00356949WA0129601430
B1247523739327N00356942WA0129301426
B1247533739325N00356935WA0129001423
B1247543739324N00356928WA0128701419
B1247553739323N00356921WA0128301416
B1247563739322N00356914WA0127701412
B1247573739320N00356906WA0127201408
B1247583739319N00356898WA0126901404
B1247593739318N00356890WA0126401400
B1248003739317N00356881WA0126001395
B1248013739317N00356873WA0125701391
B1248023739316N00356864WA0125401386
B1248033739315N00356856WA0125201382
B1248043739314N00356846WA0125101380
B1248053739313N00356837WA0125101380
B1248063739313N00356830WA0125201382
B1248073739312N00356824WA0125201382
B1248083739311N00356818WA0125001381
B1248093739310N00356811WA0124701380
B1248103739308N00356803WA0124401378
B1248113739307N00356796WA0124201376
B1248123739306N00356789WA0124001374
B1248133739304N00356783WA0123801372
B1248143739302N00356776WA0123701370
B1248153739300N00356769WA0123401368
B1248163739298N00356762WA0123201365
B1248173739296N00356754WA0123001362
B1248183739294N00356746WA0122901361
B1248193739293N00356739WA0122901360
B1248203739290N00356733WA0122801360
B1248213739288N00356726WA0122501358
B1248223739285N00356719WA0122301356
B1248233739282N00356712WA0122101353
B1248243739279N00356704WA0122001351
B1248253739277N00356695WA0121801349
B1248263739275N00356688WA0121601348
B1248273739273N00356680WA0121301346
B1248283739271N00356672WA0120901344
B1248293739269N00356663WA0120801342
B1248303739267N00356654WA0120801340
B1248313739267N00356646WA0120801338
B1248323739267N00356637WA0120801337
B1248333739266N00356630WA0120601336
B1248343739266N00356622WA0120501335
B1248353739265N00356614WA0120301332
B1248363739264N00356606WA0119701330
B1248373739263N00356597WA0119301327
B1248383739261N00356588WA0119501325
B1248393739260N00356580WA0119601325
B1248403739258N00356574WA0119601325
B1248413739256N00356568WA0119401324
B1248423739254N00356560WA0119201322
B1248433739251N00356553WA0119001320
B1248443739248N00356544WA0118701318
B1248453739246N00356536WA0118601316
B1248463739244N00356529WA0118301313
B1248473739242N00356521WA0118001311
B1248483739240N00356513WA0117801307
B1248493739237N00356504WA0117401304
B1248503739235N00356495WA0117201300
B1248513739233N00356487WA0117001298
B1248523739230N00356480WA0116801297
B1248533739229N00356474WA0116701295
B1248543739227N00356468WA0116501294
B1248553739226N00356461WA0116301291
B1248563739224N00356454WA0115901288
B1248573739222N00356447WA0115601285
B1248583739219N00356440WA0115401282
B1248593739215N00356434WA0115201279
B1249003739212N00356429WA0115001277
B1249013739209N00356424WA0114701274
B1249023739206N00356418WA0114301271
B1249033739203N00356412WA0113801268
B1249043739199N00356405WA0113801264
B1249053739196N00356398WA0113601261
B1249063739194N00356391WA0113401259
B1249073739193N00356383WA0113201256
B1249083739192N00356375WA0113101254
B1249093739191N00356367WA0112901251
B1249103739189N00356360WA0112801251
B1249113739188N00356353WA0112601250
B1249123739188N00356346WA0112401249
B1249133739188N00356338WA0112201247
B1249143739188N00356330WA0111901245
B1249153739186N00356323WA0111801242
B1249163739184N00356315WA0111601239
B1249173739183N00356308WA0111501237
B1249183739182N00356300WA0111201235
B1249193739180N00356292WA0110901232
B1249203739179N00356284WA0110601229
B1249213739177N00356276WA0110401226
B1249223739176N00356268WA0110101223
B1249233739174N00356260WA0109801221
B1249243739173N00356253WA0109601220
B1249253739172N00356245WA0109501218
B1249263739171N00356238WA0109301215
B1249273739170N00356229WA0109101213
B1249283739168N00356221WA0108901210
B1249293739166N00356212WA0108801208
B1249303739164N00356203WA0108801207
B1249313739162N00356195WA0108801209
B1249323739160N00356188WA0108801211
B1249333739158N00356182WA0108801210
B1249343739156N00356175WA0108701209
B1249353739154N00356168WA0108601208
B1249363739153N00356161WA0108301206
B1249373739150N00356154WA0107801205
B1249383739147N00356147WA0107701203
B1249393739142N00356141WA0107701201
B1249403739137N00356136WA0107801199
B1249413739132N00356132WA0107601198
B1249423739126N00356129WA0107501196
B1249433739120N00356125WA0107301194
B1249443739113N00356121WA0107101192
B1249453739106N00356117WA0107001191
B1249463739100N00356112WA0106901189
B1249473739094N00356107WA0106901188
B1249483739088N00356102WA0107001188
B1249493739083N00356098WA0107001188
B1249503739078N00356095WA0107101189
B1249513739073N00356092WA0107101189
B1249523739069N00356090WA0107001189
B1249533739064N00356087WA0106601188
B1249543739059N00356081WA0106201186
B1249553739055N00356075WA0106101184
B1249563739051N00356068WA0105901182
B1249573739047N00356060WA0105901180
B1249583739044N00356054WA0105901180
B1249593739040N00356048WA0105801180
B1250003739036N00356042WA0105601179
B1250013739032N00356036WA0105301177
B1250023739029N00356029WA0105201175
B1250033739025N00356022WA0105101173
B1250043739022N00356015WA0105101172
B1250053739020N00356010WA0105101172
B1250063739018N00356004WA0105001170
B1250073739015N00355999WA0104701169
B1250083739012N00355992WA0104401167
B1250093739008N00355984WA0104101164
B1250103739005N00355977WA0104001162
B1250113739004N00355970WA0104001162
B1250123739005N00355964WA0104201162
B1250133739006N00355961WA0104601163
B1250143739007N00355957WA0104701164
B1250153739009N00355954WA0104501163
B1250163739011N00355950WA0104001163
B1250173739016N00355945WA0103601162
B1250183739021N00355939WA0103501160
B1250193739027N00355935WA0103401159
B1250203739032N00355931WA0103501158
B1250213739035N00355928WA0103401157
B1250223739039N00355924WA0103201156
B1250233739043N00355920WA0102901155
B1250243739047N00355914WA0102701153
B1250253739052N00355909WA0102501150
B1250263739056N00355903WA0102401148
B1250273739058N00355897WA0102401147
B1250283739060N00355891WA0102301145
B1250293739062N00355885WA0102101143
B1250303739064N00355879WA0101801141
B1250313739066N00355871WA0101601139
B1250323739067N00355864WA0101301135
B1250333739067N00355857WA0101101132
B1250343739067N00355850WA0100901129
B1250353739067N00355843WA0100701127
B1250363739067N00355836WA0100601124
B1250373739067N00355829WA0100401121
B1250383739068N00355822WA0100301120
B1250393739070N00355817WA0100001118
B1250403739073N00355812WA0099501116
B1250413739077N00355807WA0099301114
B1250423739079N00355800WA0099101111
B1250433739081N00355792WA0098801108
B1250443739081N00355784WA0098601105
B1250453739081N00355776WA0098401102
B1250463739079N00355768WA0098401101
B1250473739078N00355761WA0098301099
B1250483739077N00355754WA0098101098
B1250493739076N00355746WA0098001096
B1250503739074N00355738WA0097801094
B1250513739073N00355730WA0097701092
B1250523739073N00355721WA0097601091
B1250533739072N00355713WA0097601090
B1250543739071N00355706WA0097601090
B1250553739070N00355698WA0097501089
B1250563739069N00355690WA0097401088
B1250573739068N00355682WA0097301087
B1250583739067N00355673WA0097101085
B1250593739066N00355664WA0097101084
B1251003739064N00355656WA0097001083
B1251013739062N00355648WA0096901082
B1251023739060N00355639WA0096901081
B1251033739058N00355631WA0096801080
B1251043739056N00355623WA0096701079
B1251053739053N00355615WA0096501078
B1251063739051N00355607WA0096301077
B1251073739050N00355598WA0096201075
B1251083739048N00355589WA0096001073
B1251093739047N00355580WA0095801072
B1251103739046N00355571WA0095601070
B1251113739045N00355563WA0095201068
B1251123739044N00355555WA0095101066
B1251133739043N00355547WA0095101064
B1251143739042N00355539WA0095001062
B1251153739041N00355531WA0094701059
B1251163739041N00355524WA0094501057
B1251173739040N00355516WA0094301054
B1251183739039N00355508WA0094101052
B1251193739037N00355501WA0094101050
B1251203739035N00355495WA0093901049
B1251213739034N00355489WA0093701048
B1251223739033N00355482WA0093501047
B1251233739031N00355475WA0093201044
B1251243739030N00355467WA0093001042
B1251253739029N00355459WA0092901040
B1251263739028N00355452WA0092801038
B1251273739026N00355446WA0092601037
B1251283739025N00355440WA0092401035
B1251293739023N00355434WA0092001033
B1251303739021N00355427WA0091501030
B1251313739020N00355420WA0091401028
B1251323739018N00355413WA0091301026
B1251333739018N00355406WA0091201024
B1251343739017N00355400WA0091101022
B1251353739017N00355393WA0090901019
B1251363739017N00355386WA0090701017
B1251373739016N00355379WA0090501015
B1251383739016N00355372WA0090301012
B1251393739015N00355366WA0090201010
B1251403739013N00355359WA0090001008
B1251413739012N00355352WA0089901005
B1251423739011N00355344WA0089801004
B1251433739011N00355337WA0089701003
B1251443739011N00355329WA0089601002
B1251453739010N00355322WA0089501001
B1251463739009N00355315WA0089201000
B1251473739007N00355308WA0089000998
B1251483739006N00355301WA0088800995
B1251493739005N00355292WA0088600993
B1251503739005N00355284WA0088300991
B1251513739005N00355276WA0088100989
B1251523739004N00355269WA0088100987
B1251533739003N00355262WA0088000986
B1251543739001N00355257WA0087900984
B1251553739000N00355251WA0087600982
B1251563738999N00355244WA0087400980
B1251573738997N00355238WA0087200978
B1251583738995N00355232WA0087000975
B1251593738992N00355227WA0086800973
B1252003738988N00355223WA0086600971
B1252013738985N00355218WA0086400969
B1252023738981N00355214WA0086200967
B1252033738978N00355209WA0086000965
B1252043738974N00355204WA0085800963
B1252053738971N00355198WA0085600961
B1252063738968N00355192WA0085300959
B1252073738965N00355186WA0085100958
B1252083738963N00355179WA0084900956
B1252093738961N00355173WA0084700954
B1252103738958N00355166WA0084500952
B1252113738956N00355160WA0084400950
B1252123738954N00355154WA0084300948
B1252133738951N00355148WA0083800946
B1252143738948N00355142WA0083700944
B1252153738946N00355136WA0083500942
B1252163738944N00355130WA0083300940
B1252173738942N00355124WA0083100938
B1252183738940N00355118WA0082800936
B1252193738937N00355111WA0082600934
B1252203738935N00355104WA0082500931
B1252213738932N00355097WA0082500929
B1252223738930N00355091WA0082300926
B1252233738927N00355084WA0082200924
B1252243738925N00355077WA0082000922
B1252253738922N00355071WA0081800921
B1252263738919N00355063WA0081600918
B1252273738916N00355056WA0081600917
B1252283738912N00355048WA0081500915
B1252293738908N00355042WA0081600915
B1252303738905N00355035WA0081600915
B1252313738901N00355030WA0081800915
B1252323738897N00355026WA0082000915
B1252333738893N00355024WA0082100916
B1252343738889N00355024WA0082300917
B1252353738885N00355024WA0082500921
B1252363738881N00355025WA0082700923
B1252373738878N00355029WA0082900925
B1252383738876N00355034WA0083200927
B1252393738876N00355040WA0083300929
B1252403738878N00355045WA0083500931
B1252413738882N00355049WA0083700933
B1252423738887N00355051WA0084100936
B1252433738893N00355051WA0084400938
B1252443738900N00355049WA0084600941
B1252453738906N00355044WA0084700944
B1252463738910N00355036WA0084700944
B1252473738914N00355027WA0084900945
B1252483738916N00355019WA0085300948
B1252493738917N00355012WA0085400952
B1252503738916N00355006WA0085600954
B1252513738914N00354999WA0085500955
B1252523738911N00354992WA0085500955
B1252533738906N00354986WA0085500956
B1252543738901N00354980WA0085800957
B1252553738896N00354976WA0086100959
B1252563738891N00354973WA0086300962
B1252573738887N00354972WA0086600965
B1252583738883N00354972WA0086900967
B1252593738879N00354975WA0087100969
B1253003738875N00354978WA0087200971
B1253013738873N00354983WA0087300973
B1253023738871N00354987WA0087700976
B1253033738870N00354991WA0087900979
B1253043738872N00354995WA0088100981
B1253053738875N00354999WA0088100983
B1253063738879N00355002WA0088200984
B1253073738884N00355004WA0088300985
B1253083738890N00355002WA0088400987
B1253093738896N00354998WA0088800989
B1253103738900N00354992WA0089100991
B1253113738903N00354985WA0089300994
B1253123738905N00354978WA0089600997
B1253133738905N00354970WA0089801000
B1253143738904N00354963WA0089401002
B1253153738901N00354957WA0089601003
B1253163738896N00354952WA0089801004
B1253173738891N00354949WA0090101006
B1253183738887N00354948WA0090401009
B1253193738883N00354948WA0090801013
B1253203738880N00354950WA0091001016
B1253213738877N00354954WA0091001017
B1253223738875N00354959WA0091001018
B1253233738874N00354965WA0091101018
B1253243738875N00354970WA0091101018
B1253253738877N00354974WA0091401020
B1253263738879N00354976WA0091801022
B1253273738882N00354976WA0092101024
B1253283738886N00354975WA0092201026
B1253293738892N00354973WA0092301027
B1253303738898N00354969WA0092201028
B1253313738904N00354962WA0092401029
B1253323738908N00354952WA0092501030
B1253333738910N00354943WA0092601032
B1253343738909N00354934WA0092801033
B1253353738907N00354926WA0093001036
B1253363738905N00354919WA0093201038
B1253373738902N00354914WA0093501041
B1253383738898N00354909WA0093701043
B1253393738894N00354907WA0093801045
B1253403738889N00354906WA0093701045
B1253413738884N00354907WA0093301045
B1253423738880N00354909WA0093601046
B1253433738876N00354912WA0094101048
B1253443738874N00354915WA0094201050
B1253453738873N00354919WA0094101051
B1253463738874N00354923WA0094101051
B1253473738878N00354926WA0093901051
B1253483738883N00354927WA0094001051
B1253493738888N00354927WA0094101051
B1253503738893N00354926WA0094401052
B1253513738898N00354925WA0094501053
B1253523738903N00354924WA0094701054
B1253533738910N00354922WA0094901055
B1253543738916N00354918WA0095201057
B1253553738922N00354911WA0095401059
B1253563738926N00354902WA0095801063
B1253573738926N00354893WA0095901065
B1253583738924N00354885WA0096101067
B1253593738921N00354881WA0096301070
B1254003738917N00354878WA0096601072
B1254013738914N00354878WA0096501073
B1254023738911N00354879WA0096401074
B1254033738909N00354883WA0096301074
B1254043738909N00354889WA0096501074
B1254053738911N00354894WA0096901076
B1254063738916N00354897WA0097301079
B1254073738922N00354896WA0097501082
B1254083738928N00354894WA0097801084
B1254093738935N00354891WA0097901086
B1254103738942N00354887WA0098201088
B1254113738947N00354883WA0098501091
B1254123738952N00354877WA0098801095
B1254133738954N00354870WA0099001097
B1254143738954N00354862WA0099001098
B1254153738953N00354854WA0099101098
B1254163738949N00354848WA0099101099
B1254173738945N00354844WA0099301100
B1254183738942N00354843WA0099501102
B1254193738938N00354842WA0099701104
B1254203738935N00354843WA0099901106
B1254213738933N00354845WA0100101108
B1254223738931N00354847WA0100401110
B1254233738930N00354851WA0100601112
B1254243738930N00354856WA0100801114
B1254253738933N00354861WA0100901116
B1254263738938N00354865WA0101001117
B1254273738944N00354867WA0101201119
B1254283738951N00354866WA0101201120
B1254293738957N00354862WA0101501121
B1254303738963N00354856WA0101601122
B1254313738967N00354849WA0101701124
B1254323738970N00354841WA0101701125
B1254333738971N00354831WA0101801127
B1254343738971N00354822WA0102001128
B1254353738971N00354814WA0102301130
B1254363738970N00354807WA0102601134
B1254373738968N00354801WA0102801136
B1254383738965N00354797WA0102801138
B1254393738961N00354796WA0102901139
B1254403738957N00354797WA0103001140
B1254413738953N00354799WA0103301142
B1254423738950N00354802WA0103601144
B1254433738948N00354804WA0104001147
B1254443738947N00354808WA0104201150
B1254453738948N00354812WA0104201152
B1254463738950N00354817WA0104201151
B1254473738955N00354822WA0104101152
B1254483738961N00354823WA0104101153
B1254493738967N00354822WA0104301154
B1254503738973N00354820WA0104501156
B1254513738978N00354816WA0104701158
B1254523738981N00354811WA0104701159
B1254533738985N00354805WA0104601160
B1254543738989N00354797WA0104201160
B1254553738993N00354787WA0104401160
B1254563738996N00354778WA0104701162
B1254573738997N00354769WA0105001164
B1254583738998N00354760WA0105201167
B1254593738997N00354751WA0105401168
B1255003738996N00354742WA0105601170
B1255013738993N00354734WA0105801172
B1255023738990N00354728WA0106101175
B1255033738985N00354723WA0106301177
B1255043738981N00354719WA0106401179
B1255053738977N00354718WA0106701182
B1255063738973N00354718WA0106801183
B1255073738969N00354719WA0107001185
B1255083738966N00354722WA0107201187
B1255093738963N00354725WA0107501189
B1255103738961N00354729WA0107701192
B1255113738962N00354734WA0107901193
B1255123738964N00354739WA0107801194
B1255133738968N00354743WA0108001195
B1255143738974N00354744WA0108101196
B1255153738979N00354743WA0108401197
B1255163738982N00354741WA0108501200
B1255173738986N00354737WA0108601201
B1255183738989N00354732WA0108301202
B1255193738994N00354726WA0108001203
B1255203738998N00354719WA0108201203
B1255213739002N00354710WA0108201203
B1255223739005N00354701WA0108401204
B1255233739006N00354692WA0108701207
B1255243739008N00354685WA0109001210
B1255253739008N00354678WA0109301213
B1255263739007N00354671WA0109301215
B1255273739004N00354664WA0109201216
B1255283739000N00354658WA0109301217
B1255293738995N00354653WA0109401216
B1255303738991N00354649WA0109501217
B1255313738987N00354644WA0109701217
B1255323738983N00354640WA0109801218
B1255333738978N00354637WA0109801219
B1255343738972N00354636WA0109801219
B1255353738965N00354636WA0110001218
B1255363738960N00354636WA0110301220
B1255373738955N00354637WA0110701224
B1255383738952N00354637WA0110901228
B1255393738949N00354639WA0111101229
B1255403738946N00354642WA0111101230
B1255413738943N00354648WA0110901230
B1255423738943N00354655WA0110801229
B1255433738945N00354661WA0111101229
B1255443738947N00354665WA0111201230
B1255453738950N00354668WA0111301231
B1255463738953N00354670WA0111301232
B1255473738957N00354672WA0111101232
B1255483738962N00354675WA0110601231
B1255493738968N00354677WA0110701230
B1255503738974N00354676WA0110901231
B1255513738979N00354674WA0111001230
B1255523738984N00354670WA0111201231
B1255533738988N00354665WA0111201231
B1255543738992N00354660WA0111301232
B1255553738995N00354654WA0111301233
B1255563738999N00354647WA0111301233
B1255573739001N00354638WA0111401233
B1255583739003N00354628WA0111501233
B1255593739004N00354618WA0111701237
B1256003739005N00354610WA0111901239
B1256013739004N00354602WA0112001241
B1256023739001N00354595WA0112001242
B1256033738998N00354587WA0112001241
B1256043738993N00354580WA0112101240
B1256053738989N00354574WA0112201241
B1256063738984N00354570WA0112501242
B1256073738981N00354566WA0112701244
B1256083738977N00354562WA0112901245
B1256093738972N00354559WA0113001247
B1256103738967N00354558WA0113001247
B1256113738962N00354560WA0113001246
B1256123738957N00354564WA0113101247
B1256133738955N00354567WA0113401249
B1256143738953N00354571WA0113601251
B1256153738953N00354574WA0113701253
B1256163738953N00354577WA0113601253
B1256173738956N00354581WA0113501254
B1256183738959N00354584WA0113401253
B1256193738964N00354585WA0113301251
B1256203738969N00354583WA0113301251
B1256213738973N00354579WA0113301251
B1256223738977N00354573WA0113301251
B1256233738979N00354565WA0113201250
B1256243738980N00354557WA0113101248
B1256253738981N00354548WA0113201247
B1256263738980N00354539WA0113301248
B1256273738978N00354530WA0113501251
B1256283738975N00354523WA0113801254
B1256293738971N00354516WA0113901256
B1256303738967N00354512WA0114101258
B1256313738962N00354509WA0114301261
B1256323738958N00354508WA0114401262
B1256333738952N00354508WA0114401262
B1256343738947N00354510WA0114501263
B1256353738944N00354514WA0114601264
B1256363738942N00354519WA0114701265
B1256373738942N00354524WA0114701265
B1256383738943N00354528WA0114701265
B1256393738946N00354532WA0114801265
B1256403738950N00354535WA0114901266
B1256413738954N00354536WA0114901266
B1256423738959N00354535WA0115101267
B1256433738963N00354533WA0115201268
B1256443738967N00354529WA0115101269
B1256453738971N00354524WA0114701269
B1256463738974N00354517WA0114401269
B1256473738976N00354509WA0114701269
B1256483738977N00354500WA0114901270
B1256493738977N00354492WA0115101271
B1256503738977N00354484WA0115401274
B1256513738975N00354477WA0115601276
B1256523738972N00354470WA0115801279
B1256533738969N00354463WA0116001281
B1256543738964N00354458WA0116201282
B1256553738959N00354454WA0116301284
B1256563738953N00354451WA0116501286
B1256573738947N00354450WA0116601287
B1256583738942N00354451WA0116701288
B1256593738937N00354452WA0116801290
B1257003738933N00354455WA0116901291
B1257013738929N00354459WA0117001292
B1257023738927N00354463WA0117001292
B1257033738927N00354468WA0117001292
B1257043738928N00354473WA0116901292
B1257053738931N00354477WA0116901292
B1257063738935N00354479WA0117001292
B1257073738939N00354480WA0117101293
B1257083738943N00354480WA0117201293
B1257093738947N00354478WA0117301294
B1257103738950N00354474WA0117301295
B1257113738954N00354467WA0117401295
B1257123738956N00354459WA0117401295
B1257133738957N00354451WA0117601296
B1257143738957N00354443WA0117701297
B1257153738956N00354435WA0117901299
B1257163738955N00354427WA0118101301
B1257173738952N00354421WA0118401304
B1257183738949N00354415WA0118601307
B1257193738945N00354409WA0118801309
B1257203738940N00354405WA0118901311
B1257213738934N00354402WA0119101312
B1257223738927N00354400WA0119201314
B1257233738921N00354399WA0119301316
B1257243738915N00354400WA0119301317
B1257253738910N00354403WA0119401318
B1257263738906N00354406WA0119301317
B1257273738903N00354411WA0119001316
B1257283738901N00354416WA0118901316
B1257293738903N00354421WA0118901315
B1257303738906N00354425WA0118701313
B1257313738910N00354427WA0118501311
B1257323738916N00354429WA0118301308
B1257333738921N00354428WA0118201306
B1257343738926N00354426WA0118201305
B1257353738930N00354422WA0118301305
B1257363738934N00354417WA0118501307
B1257373738937N00354412WA0118701310
B1257383738939N00354406WA0118801312
B1257393738942N00354401WA0119101313
B1257403738944N00354394WA0119101314
B1257413738945N00354388WA0119301315
B1257423738945N00354381WA0119301316
B1257433738944N00354374WA0119401317
B1257443738942N00354367WA0119601318
B1257453738940N00354360WA0119801320
B1257463738937N00354355WA0120001323
B1257473738934N00354350WA0120101324
B1257483738929N00354345WA0120001324
B1257493738922N00354342WA0120001325
B1257503738915N00354341WA0120101325
B1257513738908N00354340WA0120301326
B1257523738902N00354343WA0120501328
B1257533738898N00354347WA0120801329
B1257543738896N00354353WA0120801330
B1257553738895N00354360WA0120701331
B1257563738896N00354366WA0120601328
B1257573738899N00354370WA0120601328
B1257583738903N00354374WA0120501327
B1257593738907N00354376WA0119901325
B1258003738912N00354376WA0119701324
B1258013738917N00354375WA0119701323
B1258023738922N00354371WA0119901322
B1258033738926N00354367WA0119901321
B1258043738930N00354361WA0120001321
B1258053738934N00354356WA0120201324
B1258063738937N00354351WA0120401327
B1258073738940N00354345WA0120601329
B1258083738942N00354338WA0120701330
B1258093738943N00354331WA0120801332
B1258103738944N00354324WA0121001333
B1258113738945N00354316WA0121301335
B1258123738945N00354308WA0121601337
B1258133738943N00354301WA0121801340
B1258143738940N00354295WA0122101343
B1258153738936N00354289WA0122201345
B1258163738930N00354286WA0122301347
B1258173738924N00354285WA0122501349
B1258183738919N00354286WA0122701351
B1258193738914N00354288WA0122901353
B1258203738911N00354292WA0123101354
B1258213738909N00354296WA0123101355
B1258223738909N00354302WA0123101355
B1258233738910N00354307WA0123101355
B1258243738913N00354312WA0123201355
B1258253738918N00354315WA0123301356
B1258263738923N00354315WA0123401357
B1258273738928N00354314WA0123501358
B1258283738933N00354311WA0123701360
B1258293738937N00354306WA0123901363
B1258303738939N00354300WA0124101365
B1258313738941N00354292WA0124301367
B1258323738941N00354285WA0124601369
B1258333738939N00354278WA0124901371
B1258343738936N00354272WA0125201374
B1258353738932N00354267WA0125301377
B1258363738927N00354265WA0125501379
B1258373738921N00354264WA0125601379
B1258383738916N00354266WA0125701381
B1258393738911N00354270WA0125901383
B1258403738908N00354275WA0126101385
B1258413738906N00354280WA0126301386
B1258423738905N00354285WA0126401388
B1258433738906N00354289WA0126401389
B1258443738909N00354293WA0126101390
B1258453738913N00354296WA0126301391
B1258463738918N00354296WA0126501391
B1258473738923N00354295WA0126601392
B1258483738928N00354291WA0126801393
B1258493738932N00354286WA0126901396
B1258503738934N00354281WA0127101398
B1258513738937N00354275WA0127201400
B1258523738938N00354268WA0127401401
B1258533738938N00354262WA0127601402
B1258543738937N00354255WA0127901404
B1258553738935N00354248WA0128101406
B1258563738932N00354243WA0128301408
B1258573738927N00354238WA0128501411
B1258583738921N00354236WA0128701413
B1258593738916N00354235WA0128901414
B1259003738911N00354237WA0129101417
B1259013738907N00354240WA0129401419
B1259023738905N00354243WA0129601422
B1259033738904N00354248WA0129701424
B1259043738905N00354253WA0129801423
B1259053738907N00354259WA0129801423
B1259063738910N00354263WA0130001424
B1259073738913N00354266WA0130201426
B1259083738917N00354267WA0130401429
B1259093738921N00354266WA0130401431
B1259103738925N00354265WA0130501431
B1259113738929N00354261WA0130501432
B1259123738934N00354257WA0130501431
B1259133738937N00354251WA0130601432
B1259143738940N00354245WA0130901435
B1259153738942N00354239WA0131201438
B1259163738942N00354233WA0131501441
B1259173738940N00354228WA0131701444
B1259183738937N00354222WA0131801446
B1259193738932N00354217WA0132001447
B1259203738928N00354213WA0132201450
B1259213738923N00354211WA0132501452
B1259223738918N00354211WA0132601454
B1259233738913N00354213WA0132701456
B1259243738909N00354217WA0132901457
B1259253738906N00354222WA0133101459
B1259263738904N00354228WA0133201461
B1259273738904N00354234WA0133401462
B1259283738905N00354239WA0133601464
B1259293738906N00354244WA0133701465
B1259303738908N00354248WA0133701466
B1259313738912N00354251WA0133701468
B1259323738917N00354251WA0133801469
B1259333738921N00354250WA0133901470
B1259343738926N00354246WA0133901471
B1259353738929N00354242WA0133901472
B1259363738931N00354237WA0134001473
B1259373738933N00354231WA0134301474
B1259383738934N00354224WA0134501475
B1259393738935N00354217WA0134901478
B1259403738935N00354211WA0135301483
B1259413738933N00354205WA0135501486
B1259423738930N00354200WA0135601488
B1259433738926N00354196WA0135701490
B1259443738921N00354192WA0135801491
B1259453738916N00354191WA0136101493
B1259463738911N00354191WA0136301495
B1259473738906N00354194WA0136401497
B1259483738903N00354199WA0136501497
B1259493738901N00354205WA0136601498
B1259503738901N00354211WA0136801499
B1259513738902N00354217WA0136901501
B1259523738905N00354221WA0137001502
B1259533738910N00354224WA0137101503
B1259543738915N00354223WA0137101503
B1259553738921N00354220WA0137101504
B1259563738925N00354215WA0137301504
B1259573738929N00354209WA0137501507
B1259583738930N00354203WA0137801509
B1259593738931N00354197WA0138201513
B1300003738930N00354192WA0138401515
B1300013738928N00354186WA0138601517
B1300023738925N00354181WA0138701519
B1300033738921N00354176WA0138901520
B1300043738917N00354173WA0139101522
B1300053738911N00354171WA0139201524
B1300063738906N00354173WA0139501525
B1300073738901N00354175WA0139701527
B1300083738897N00354179WA0139901530
B1300093738894N00354183WA0140101533
B1300103738891N00354188WA0140201534
B1300113738890N00354193WA0140301535
B1300123738890N00354199WA0140301536
B1300133738892N00354205WA0140301536
B1300143738896N00354210WA0140401537
B1300153738900N00354214WA0140601538
B1300163738905N00354215WA0140801540
B1300173738909N00354215WA0141001542
B1300183738912N00354213WA0141101544
B1300193738915N00354210WA0141101544
B1300203738919N00354206WA0141001544
B1300213738922N00354200WA0140601544
B1300223738924N00354193WA0141001544
B1300233738925N00354186WA0141401546
B1300243738924N00354179WA0141601547
B1300253738923N00354173WA0141801550
B1300263738920N00354169WA0142001553
B1300273738915N00354166WA0142101553
B1300283738910N00354163WA0142101554
B1300293738904N00354162WA0142101555
B1300303738897N00354162WA0142301556
B1300313738891N00354164WA0142501558
B1300323738886N00354165WA0142701560
B1300333738881N00354167WA0142801562
B1300343738877N00354170WA0142901563
B1300353738873N00354175WA0142901563
B1300363738871N00354181WA0142901563
B1300373738871N00354188WA0143001564
B1300383738872N00354193WA0143101564
B1300393738875N00354197WA0143201565
B1300403738878N00354200WA0143301566
B1300413738882N00354200WA0143301567
B1300423738886N00354198WA0143401568
B1300433738889N00354195WA0143401569
B1300443738892N00354190WA0143401569
B1300453738895N00354184WA0143401569
B1300463738897N00354177WA0143401568
B1300473738898N00354169WA0143401568
B1300483738899N00354162WA0143601569
B1300493738900N00354155WA0143801571
B1300503738899N00354150WA0144001574
B1300513738897N00354145WA0144001576
B1300523738893N00354141WA0144101577
B1300533738888N00354137WA0144001577
B1300543738882N00354135WA0144101577
B1300553738875N00354134WA0144201578
B1300563738870N00354137WA0144401579
B1300573738866N00354141WA0144501581
B1300583738863N00354146WA0144501581
B1300593738862N00354152WA0144601582
B1301003738863N00354157WA0144701582
B1301013738865N00354162WA0144701582
B1301023738868N00354165WA0144501582
B1301033738873N00354167WA0144501581
B1301043738878N00354166WA0144501581
B1301053738883N00354164WA0144501581
B1301063738887N00354159WA0144601582
B1301073738890N00354154WA0144701583
B1301083738892N00354148WA0144701584
B1301093738893N00354142WA0144801584
B1301103738894N00354134WA0144901585
B1301113738893N00354127WA0145101586
B1301123738892N00354121WA0145201587
B1301133738891N00354115WA0145401588
B1301143738890N00354109WA0145401590
B1301153738888N00354103WA0145501590
B1301163738885N00354098WA0145601591
B1301173738882N00354093WA0145701592
B1301183738877N00354090WA0145701592
B1301193738872N00354088WA0145701593
B1301203738867N00354087WA0145901594
B1301213738861N00354087WA0146001595
B1301223738856N00354088WA0146101596
B1301233738852N00354090WA0146101597
B1301243738847N00354093WA0146201598
B1301253738843N00354097WA0146201598
B1301263738840N00354101WA0146201599
B1301273738837N00354106WA0146301599
B1301283738836N00354112WA0146301599
B1301293738837N00354119WA0146201599
B1301303738839N00354125WA0146301599
B1301313738843N00354130WA0146501599
B1301323738846N00354133WA0146601600
B1301333738850N00354135WA0146601601
B1301343738854N00354135WA0146601602
B1301353738858N00354134WA0146601602
B1301363738863N00354130WA0146601602
B1301373738867N00354126WA0146601602
B1301383738869N00354119WA0146701603
B1301393738871N00354113WA0146801605
B1301403738872N00354106WA0146901606
B1301413738873N00354100WA0147001607
B1301423738872N00354093WA0147101608
B1301433738871N00354087WA0147101609
B1301443738870N00354080WA0147201609
B1301453738868N00354074WA0147201610
B1301463738867N00354067WA0147401612
B1301473738865N00354062WA0147501613
B1301483738864N00354056WA0147601614
B1301493738862N00354050WA0147801615
B1301503738859N00354045WA0147901616
B1301513738857N00354040WA0147901617
B1301523738853N00354036WA0148001618
B1301533738849N00354033WA0147901618
B1301543738844N00354031WA0147801619
B1301553738839N00354030WA0147801619
B1301563738834N00354031WA0147901620
B1301573738828N00354032WA0148001620
B1301583738823N00354035WA0148001620
B1301593738819N00354038WA0148101621
B1302003738815N00354043WA0148201621
B1302013738812N00354048WA0148301621
B1302023738810N00354055WA0148201621
B1302033738809N00354061WA0148201621
B1302043738809N00354068WA0148301622
B1302053738811N00354074WA0148401622
B1302063738814N00354078WA0148401622
B1302073738818N00354082WA0148301622
B1302083738823N00354083WA0148401622
B1302093738828N00354084WA0148401622
B1302103738832N00354083WA0148401622
B1302113738837N00354080WA0148301622
B1302123738840N00354075WA0148301621
B1302133738843N00354069WA0148301620
B1302143738844N00354062WA0148301620
B1302153738845N00354056WA0148401621
B1302163738845N00354051WA0148401622
B1302173738845N00354045WA0148401622
B1302183738845N00354038WA0148401622
B1302193738844N00354031WA0148201622
B1302203738843N00354024WA0148301621
B1302213738842N00354017WA0148501622
B1302223738841N00354012WA0148601623
B1302233738839N00354007WA0148701625
B1302243738837N00354003WA0148801625
B1302253738834N00353998WA0148901625
B1302263738831N00353995WA0148801626
B1302273738826N00353992WA0148801626
B1302283738821N00353991WA0148801626
B1302293738815N00353992WA0148801627
B1302303738809N00353994WA0148801627
B1302313738803N00353997WA0149001628
B1302323738799N00354000WA0149001629
B1302333738795N00354005WA0149101629
B1302343738793N00354009WA0149101629
B1302353738791N00354014WA0149001629
B1302363738791N00354020WA0148901629
B1302373738793N00354027WA0148801627
B1302383738796N00354033WA0148601627
B1302393738801N00354038WA0148201626
B1302403738806N00354040WA0148301626
B1302413738811N00354039WA0148501626
B1302423738815N00354037WA0148601626
B1302433738818N00354035WA0148601626
B1302443738822N00354031WA0148501625
B1302453738824N00354027WA0148501625
B1302463738826N00354022WA0148401624
B1302473738828N00354016WA0148401623
B1302483738829N00354011WA0148401623
B1302493738830N00354006WA0148401623
B1302503738830N00354000WA0148301622
B1302513738829N00353994WA0148201622
B1302523738828N00353987WA0148201621
B1302533738827N00353981WA0148401621
B1302543738826N00353975WA0148501622
B1302553738825N00353969WA0148501623
B1302563738824N00353964WA0148601623
B1302573738823N00353957WA0148601624
B1302583738820N00353951WA0148601624
B1302593738817N00353946WA0148701625
B1303003738814N00353942WA0148801627
B1303013738810N00353938WA0148901628
B1303023738807N00353935WA0148901629
B1303033738805N00353930WA0148701629
B1303043738802N00353925WA0148501629
B1303053738800N00353919WA0148401628
B1303063738799N00353912WA0148501628
B1303073738799N00353906WA0148601627
B1303083738799N00353900WA0148601628
B1303093738798N00353894WA0148601628
B1303103738797N00353888WA0148701627
B1303113738795N00353882WA0148801628
B1303123738793N00353876WA0148701628
B1303133738791N00353870WA0148801629
B1303143738789N00353864WA0148901629
B1303153738786N00353858WA0148901630
B1303163738783N00353853WA0149101630
B1303173738779N00353848WA0149101631
B1303183738775N00353843WA0149201631
B1303193738771N00353839WA0149201632
B1303203738767N00353835WA0149301633
B1303213738762N00353833WA0149401633
B1303223738757N00353832WA0149201633
B1303233738751N00353833WA0149001632
B1303243738746N00353835WA0148801631
B1303253738742N00353840WA0148701629
B1303263738738N00353845WA0148801629
B1303273738735N00353851WA0148701628
B1303283738733N00353856WA0148601627
B1303293738732N00353862WA0148601626
B1303303738733N00353867WA0148501624
B1303313738735N00353873WA0148301623
B1303323738739N00353878WA0148001621
B1303333738744N00353882WA0147601619
B1303343738750N00353883WA0147701619
B1303353738754N00353882WA0147901619
B1303363738759N00353879WA0147901619
B1303373738762N00353876WA0147901619
B1303383738765N00353872WA0148001619
B1303393738767N00353867WA0147901618
B1303403738769N00353862WA0147801616
B1303413738770N00353855WA0147701615
B1303423738771N00353848WA0147601613
B1303433738772N00353841WA0147601612
B1303443738771N00353834WA0147801613
B1303453738771N00353828WA0147801614
B1303463738769N00353822WA0147901614
B1303473738767N00353816WA0147701614
B1303483738765N00353810WA0147501613
B1303493738762N00353802WA0147301613
B1303503738759N00353793WA0147101612
B1303513738756N00353786WA0147201611
B1303523738753N00353779WA0147201613
B1303533738750N00353773WA0147201614
B1303543738747N00353767WA0147001614
B1303553738744N00353759WA0146801613
B1303563738743N00353752WA0147001613
B1303573738742N00353745WA0147201613
B1303583738742N00353738WA0147301614
B1303593738741N00353731WA0147301614
B1304003738738N00353726WA0147301614
B1304013738735N00353720WA0147101614
B1304023738731N00353714WA0147001613
B1304033738727N00353708WA0146901612
B1304043738725N00353701WA0146801611
B1304053738723N00353694WA0146901611
B1304063738721N00353689WA0146901611
B1304073738719N00353684WA0146801611
B1304083738717N00353680WA0146501610
B1304093738715N00353674WA0146101608
B1304103738714N00353667WA0145701607
B1304113738714N00353660WA0145501604
B1304123738713N00353653WA0145201600
B1304133738712N00353646WA0145001597
B1304143738712N00353641WA0144801595
B1304153738711N00353635WA0144501591
B1304163738710N00353628WA0144101587
B1304173738710N00353622WA0143801583
B1304183738709N00353615WA0143501579
B1304193738707N00353609WA0143201575
B1304203738705N00353603WA0142901571
B1304213738703N00353598WA0142601568
B1304223738701N00353592WA0142401565
B1304233738698N00353586WA0142101563
B1304243738695N00353581WA0141801560
B1304253738693N00353575WA0141601557
B1304263738690N00353569WA0141201554
B1304273738687N00353563WA0140901550
B1304283738684N00353557WA0140501547
B1304293738682N00353550WA0140201543
B1304303738681N00353543WA0139901540
B1304313738679N00353536WA0139501536
B1304323738677N00353528WA0139201533
B1304333738675N00353521WA0138901529
B1304343738672N00353514WA0138501525
B1304353738670N00353507WA0138101521
B1304363738668N00353500WA0137601517
B1304373738666N00353493WA0137301514
B1304383738664N00353485WA0137001510
B1304393738663N00353476WA0136601505
B1304403738661N00353467WA0136301501
B1304413738659N00353459WA0136101499
B1304423738657N00353452WA0135801497
B1304433738655N00353445WA0135601494
B1304443738653N00353438WA0135401491
B1304453738651N00353430WA0135101488
B1304463738649N00353422WA0134901485
B1304473738647N00353414WA0134701482
B1304483738645N00353406WA0134501479
B1304493738644N00353397WA0134401477
B1304503738642N00353388WA0134101475
B1304513738641N00353380WA0134001474
B1304523738639N00353373WA0134001473
B1304533738637N00353365WA0133901472
B1304543738636N00353357WA0133701471
B1304553738634N00353349WA0133501469
B1304563738631N00353340WA0133201466
B1304573738629N00353331WA0133001463
B1304583738628N00353322WA0132801461
B1304593738626N00353313WA0132801461
B1305003738626N00353304WA0132701461
B1305013738624N00353297WA0132701460
B1305023738622N00353289WA0132601460
B1305033738621N00353281WA0132101458
B1305043738619N00353271WA0131901456
B1305053738618N00353262WA0131901455
B1305063738618N00353253WA0131801453
B1305073738618N00353245WA0131901453
B1305083738618N00353237WA0132001454
B1305093738618N00353230WA0131901453
B1305103738618N00353223WA0131801452
B1305113738618N00353215WA0131701451
B1305123738618N00353207WA0131501450
B1305133738618N00353200WA0131401449
B1305143738618N00353193WA0131401447
B1305153738617N00353186WA0131401447
B1305163738615N00353179WA0131301446
B1305173738613N00353172WA0131201445
B1305183738610N00353165WA0131101444
B1305193738608N00353157WA0131101443
B1305203738606N00353150WA0131101443
B1305213738604N00353142WA0131101443
B1305223738602N00353134WA0130801442
B1305233738600N00353125WA0130201441
B1305243738599N00353116WA0130101440
B1305253738600N00353107WA0130101438
B1305263738603N00353099WA0130001436
B1305273738606N00353092WA0130001434
B1305283738608N00353087WA0130201437
B1305293738608N00353080WA0130201439
B1305303738606N00353073WA0129701439
B1305313738604N00353065WA0129401437
B1305323738601N00353056WA0129501436
B1305333738600N00353049WA0129401435
B1305343738598N00353042WA0129201433
B1305353738596N00353034WA0129101431
B1305363738593N00353026WA0128801429
B1305373738590N00353018WA0128601427
B1305383738588N00353010WA0128501425
B1305393738586N00353002WA0128501423
B1305403738585N00352994WA0128501421
B1305413738583N00352986WA0128601420
B1305423738582N00352979WA0128701420
B1305433738581N00352972WA0128801420
B1305443738582N00352964WA0128701420
B1305453738583N00352956WA0128701419
B1305463738585N00352948WA0128901420
B1305473738586N00352941WA0129201422
B1305483738587N00352934WA0129501424
B1305493738587N00352927WA0129601426
B1305503738585N00352920WA0129801428
B1305513738581N00352914WA0129901428
B1305523738576N00352910WA0130201430
B1305533738569N00352910WA0130501432
B1305543738564N00352914WA0130801435
B1305553738562N00352919WA0131201438
B1305563738562N00352925WA0131501441
B1305573738565N00352930WA0131801444
B1305583738568N00352932WA0132001447
B1305593738572N00352933WA0132201449
B1306003738576N00352932WA0132401452
B1306013738580N00352929WA0132501454
B1306023738583N00352924WA0132501456
B1306033738585N00352917WA0132701457
B1306043738586N00352909WA0132801458
B1306053738586N00352901WA0133001460
B1306063738584N00352893WA0133201461
B1306073738582N00352886WA0133401463
B1306083738578N00352879WA0133701465
B1306093738572N00352874WA0133901468
B1306103738566N00352872WA0134201470
B1306113738561N00352871WA0134501473
B1306123738557N00352873WA0134801476
B1306133738554N00352878WA0135101478
B1306143738553N00352884WA0135401479
B1306153738556N00352890WA0135601483
B1306163738560N00352893WA0136001487
B1306173738565N00352892WA0136501492
B1306183738569N00352887WA0136801496
B1306193738570N00352881WA0137201499
B1306203738571N00352874WA0137501503
B1306213738571N00352867WA0137701506
B1306223738569N00352859WA0138101510
B1306233738566N00352852WA0138401513
B1306243738561N00352846WA0138601516
B1306253738556N00352841WA0138901519
B1306263738550N00352839WA0139301523
B1306273738544N00352839WA0139601528
B1306283738540N00352841WA0140001532
B1306293738537N00352846WA0140301536
B1306303738536N00352852WA0140501539
B1306313738537N00352857WA0140801541
B1306323738540N00352862WA0141201545
B1306333738544N00352864WA0141601549
B1306343738549N00352864WA0142001553
B1306353738554N00352861WA0142401557
B1306363738557N00352856WA0142801560
B1306373738559N00352848WA0143101564
B1306383738560N00352841WA0143401566
B1306393738560N00352833WA0143801570
B1306403738558N00352825WA0144001574
B1306413738555N00352819WA0144401577
B1306423738550N00352814WA0144501580
B1306433738544N00352811WA0144601583
B1306443738538N00352811WA0144901585
B1306453738534N00352813WA0145101588
B1306463738530N00352816WA0145101590
B1306473738528N00352821WA0145101593
B1306483738527N00352827WA0145401595
B1306493738527N00352833WA0145801596
B1306503738528N00352839WA0146101599
B1306513738530N00352845WA0146401602
B1306523738534N00352848WA0146901605
B1306533738539N00352849WA0147201609
B1306543738545N00352847WA0147601612
B1306553738549N00352842WA0148001615
B1306563738551N00352835WA0148401618
B1306573738552N00352828WA0148601622
B1306583738550N00352821WA0148901625
B1306593738547N00352815WA0149301628
B1307003738542N00352810WA0149501631
B1307013738536N00352808WA0149801635
B1307023738530N00352809WA0150101638
B1307033738525N00352813WA0150201640
B1307043738521N00352818WA0150501642
B1307053738520N00352824WA0150701645
B1307063738522N00352830WA0151101647
B1307073738526N00352834WA0151301650
B1307083738530N00352836WA0151601653
B1307093738536N00352833WA0151801657
B1307103738540N00352828WA0152201660
B1307113738542N00352822WA0152601663
B1307123738543N00352815WA0153001667
B1307133738541N00352809WA0153301671
B1307143738537N00352804WA0153601675
B1307153738532N00352800WA0153901678
B1307163738526N00352799WA0154001681
B1307173738521N00352799WA0154201683
B1307183738516N00352800WA0154301687
B1307193738513N00352804WA0154401689
B1307203738512N00352809WA0154401691
B1307213738511N00352816WA0154201692
B1307223738511N00352823WA0154201690
B1307233738513N00352829WA0154801692
B1307243738515N00352834WA0155201696
B1307253738519N00352837WA0155601698
B1307263738523N00352839WA0156001701
B1307273738528N00352839WA0156301704
B1307283738533N00352836WA0156701707
B1307293738537N00352831WA0157201711
B1307303738540N00352825WA0157501717
B1307313738540N00352817WA0158001723
B1307323738538N00352810WA0158401728
B1307333738534N00352803WA0158801732
B1307343738529N00352799WA0159301736
B1307353738523N00352797WA0159701740
B1307363738519N00352798WA0160201745
B1307373738515N00352800WA0160401749
B1307383738511N00352803WA0160401752
B1307393738507N00352806WA0160501754
B1307403738502N00352809WA0160401757
B1307413738498N00352812WA0160601759
B1307423738494N00352815WA0161001762
B1307433738490N00352819WA0161301764
B1307443738487N00352823WA0161501766
B1307453738485N00352829WA0161801768
B1307463738484N00352835WA0161901769
B1307473738485N00352840WA0162201771
B1307483738487N00352844WA0162301772
B1307493738491N00352847WA0162501773
B1307503738495N00352849WA0162501775
B1307513738500N00352850WA0162601776
B1307523738506N00352850WA0162701777
B1307533738511N00352849WA0163101780
B1307543738517N00352848WA0163501782
B1307553738520N00352845WA0164001786
B1307563738523N00352840WA0164301791
B1307573738524N00352833WA0164601793
B1307583738522N00352825WA0164601795
B1307593738517N00352819WA0164701796
B1308003738510N00352815WA0165001798
B1308013738503N00352814WA0165401801
B1308023738497N00352815WA0165801805
B1308033738494N00352819WA0166101809
B1308043738492N00352824WA0166301812
B1308053738492N00352830WA0166401813
B1308063738492N00352836WA0166401813
B1308073738495N00352842WA0166401812
B1308083738499N00352848WA0166601813
B1308093738504N00352852WA0166801814
B1308103738509N00352855WA0167201817
B1308113738514N00352856WA0167601821
B1308123738520N00352855WA0167901823
B1308133738526N00352853WA0168101825
B1308143738531N00352848WA0168301827
B1308153738534N00352842WA0168501830
B1308163738535N00352836WA0168701833
B1308173738534N00352831WA0168801835
B1308183738532N00352825WA0168701838
B1308193738528N00352819WA0168501839
B1308203738525N00352813WA0168601839
B1308213738521N00352807WA0168801840
B1308223738518N00352801WA0169101841
B1308233738515N00352796WA0169401843
B1308243738512N00352792WA0169501845
B1308253738508N00352789WA0169701847
B1308263738503N00352787WA0169901850
B1308273738498N00352788WA0170101851
B1308283738494N00352791WA0170201852
B1308293738490N00352796WA0170401854
B1308303738488N00352802WA0170601855
B1308313738488N00352809WA0170801857
B1308323738489N00352814WA0170801858
B1308333738491N00352818WA0170801858
B1308343738494N00352821WA0170601858
B1308353738498N00352823WA0170301858
B1308363738504N00352825WA0170601858
B1308373738509N00352824WA0170901858
B1308383738513N00352822WA0171101860
B1308393738516N00352819WA0171401865
B1308403738518N00352815WA0171601867
B1308413738520N00352809WA0171801869
B1308423738522N00352803WA0171901870
B1308433738523N00352796WA0172201872
B1308443738524N00352790WA0172601875
B1308453738522N00352785WA0172801878
B1308463738520N00352780WA0173101881
B1308473738515N00352776WA0173201883
B1308483738510N00352774WA0173401885
B1308493738505N00352772WA0173801888
B1308503738500N00352772WA0174001891
B1308513738496N00352774WA0174201894
B1308523738492N00352779WA0174301896
B1308533738490N00352786WA0174401898
B1308543738490N00352793WA0174601899
B1308553738492N00352798WA0174801901
B1308563738494N00352803WA0174901902
B1308573738498N00352807WA0174901903
B1308583738503N00352809WA0174901903
B1308593738508N00352810WA0174801903
B1309003738514N00352808WA0174501904
B1309013738519N00352805WA0174701904
B1309023738524N00352802WA0174901905
B1309033738528N00352797WA0175301905
B1309043738532N00352792WA0175601908
B1309053738534N00352787WA0175701910
B1309063738536N00352781WA0175901912
B1309073738536N00352774WA0175901912
B1309083738535N00352767WA0176101913
B1309093738533N00352760WA0176101914
B1309103738529N00352753WA0176201915
B1309113738524N00352746WA0176401916
B1309123738520N00352740WA0176801920
B1309133738516N00352737WA0177501926
B1309143738512N00352735WA0178001931
B1309153738508N00352737WA0178501935
B1309163738504N00352740WA0178701939
B1309173738501N00352744WA0179101942
B1309183738500N00352748WA0179501946
B1309193738499N00352754WA0179701949
B1309203738502N00352760WA0179901952
B1309213738506N00352765WA0180001954
B1309223738513N00352768WA0180201956
B1309233738519N00352767WA0180401958
B1309243738525N00352764WA0180701962
B1309253738528N00352759WA0181001966
B1309263738529N00352753WA0181101968
B1309273738529N00352746WA0181201971
B1309283738527N00352739WA0181301973
B1309293738524N00352733WA0181601975
B1309303738520N00352728WA0181901977
B1309313738515N00352726WA0182401981
B1309323738511N00352726WA0182801985
B1309333738507N00352728WA0183101989
B1309343738504N00352732WA0183301992
B1309353738502N00352737WA0183501995
B1309363738501N00352743WA0183701998
B1309373738503N00352749WA0183902000
B1309383738506N00352755WA0184102002
B1309393738511N00352758WA0184102002
B1309403738517N00352760WA0184202003
B1309413738524N00352758WA0184302004
B1309423738529N00352755WA0184602006
B1309433738533N00352750WA0184802008
B1309443738535N00352743WA0185002011
B1309453738535N00352737WA0185102012
B1309463738534N00352730WA0185202013
B1309473738532N00352724WA0185302015
B1309483738529N00352719WA0185402017
B1309493738525N00352714WA0185702018
B1309503738521N00352710WA0186002021
B1309513738517N00352706WA0186302024
B1309523738514N00352704WA0186602027
B1309533738511N00352704WA0186702030
B1309543738509N00352706WA0186802032
B1309553738507N00352710WA0186902033
B1309563738506N00352715WA0186802033
B1309573738506N00352721WA0186802033
B1309583738508N00352728WA0186802033
B1309593738512N00352733WA0187002034
B1310003738516N00352737WA0187102034
B1310013738522N00352738WA0187202035
B1310023738527N00352737WA0187302036
B1310033738531N00352734WA0187402038
B1310043738534N00352731WA0187502039
B1310053738537N00352726WA0187602040
B1310063738538N00352721WA0187502040
B1310073738538N00352715WA0187302041
B1310083738538N00352710WA0187502042
B1310093738538N00352704WA0187702043
B1310103738537N00352699WA0187902044
B1310113738537N00352693WA0188102045
B1310123738536N00352687WA0188402047
B1310133738535N00352682WA0188502049
B1310143738533N00352678WA0188502050
B1310153738530N00352676WA0188402051
B1310163738525N00352676WA0188202049
B1310173738520N00352677WA0188202048
B1310183738516N00352681WA0188202047
B1310193738513N00352685WA0188402049
B1310203738512N00352689WA0188602051
B1310213738512N00352693WA0188702052
B1310223738513N00352697WA0188802053
B1310233738515N00352702WA0188802053
B1310243738518N00352708WA0188702052
B1310253738522N00352714WA0188702051
B1310263738526N00352718WA0188702051
B1310273738531N00352722WA0188802051
B1310283738537N00352725WA0188802051
B1310293738543N00352726WA0188902051
B1310303738547N00352725WA0189002052
B1310313738551N00352723WA0189002053
B1310323738554N00352719WA0188902052
B1310333738558N00352716WA0188602053
B1310343738561N00352712WA0188702053
B1310353738565N00352707WA0188702053
B1310363738567N00352701WA0188502052
B1310373738570N00352693WA0188302050
B1310383738572N00352684WA0188202048
B1310393738574N00352676WA0188202047
B1310403738575N00352668WA0188202047
B1310413738575N00352661WA0188302048
B1310423738574N00352654WA0188402048
B1310433738573N00352648WA0188202048
B1310443738572N00352640WA0188102047
B1310453738572N00352632WA0187902046
B1310463738572N00352623WA0187602044
B1310473738574N00352615WA0187402042
B1310483738576N00352606WA0187602040
B1310493738577N00352598WA0187802042
B1310503738577N00352590WA0188102044
B1310513738575N00352584WA0188302047
B1310523738572N00352578WA0188502048
B1310533738568N00352573WA0188602050
B1310543738563N00352569WA0188602051
B1310553738558N00352567WA0188702052
B1310563738552N00352568WA0188802053
B1310573738547N00352569WA0188902054
B1310583738543N00352572WA0189002055
B1310593738539N00352576WA0189102056
B1311003738537N00352580WA0189202057
B1311013738534N00352584WA0189202057
B1311023738532N00352588WA0189302058
B1311033738530N00352593WA0189302058
B1311043738529N00352598WA0189402058
B1311053738529N00352603WA0189402059
B1311063738530N00352608WA0189502059
B1311073738532N00352613WA0189502059
B1311083738535N00352617WA0189302059
B1311093738540N00352619WA0189102058
B1311103738546N00352620WA0189102056
B1311113738553N00352619WA0189102055
B1311123738558N00352616WA0189202057
B1311133738563N00352613WA0189302059
B1311143738567N00352609WA0189202060
B1311153738571N00352603WA0188902060
B1311163738575N00352597WA0188702060
B1311173738580N00352591WA0188902059
B1311183738583N00352584WA0189002059
B1311193738586N00352577WA0189102060
B1311203738589N00352570WA0189102060
B1311213738592N00352563WA0189102060
B1311223738594N00352557WA0189102060
B1311233738597N00352550WA0189102060
B1311243738599N00352542WA0189102060
B1311253738601N00352534WA0189102060
B1311263738602N00352525WA0189202060
B1311273738603N00352517WA0189402060
B1311283738605N00352510WA0189602063
B1311293738607N00352504WA0189902065
B1311303738609N00352497WA0190002066
B1311313738610N00352491WA0190102068
B1311323738610N00352484WA0190302069
B1311333738610N00352476WA0190402070
B1311343738608N00352469WA0190702072
B1311353738605N00352463WA0190802074
B1311363738601N00352458WA0190902075
B1311373738597N00352453WA0191102077
B1311383738592N00352449WA0191202078
B1311393738587N00352447WA0191302079
B1311403738582N00352445WA0191402081
B1311413738578N00352445WA0191602082
B1311423738573N00352447WA0191702083
B1311433738570N00352451WA0191702084
B1311443738569N00352457WA0191702084
B1311453738570N00352464WA0191702084
B1311463738574N00352470WA0191702083
B1311473738579N00352473WA0191902084
B1311483738583N00352474WA0192002085
B1311493738588N00352474WA0192102088
B1311503738593N00352474WA0192302090
B1311513738597N00352471WA0192402091
B1311523738602N00352467WA0192502093
B1311533738605N00352461WA0192502094
B1311543738607N00352453WA0192602095
B1311553738608N00352444WA0192802095
B1311563738608N00352436WA0193002097
B1311573738606N00352429WA0193102099
B1311583738605N00352423WA0193302101
B1311593738603N00352417WA0193302103
B1312003738600N00352412WA0193202102
B1312013738595N00352407WA0193202101
B1312023738590N00352404WA0193202100
B1312033738585N00352403WA0193402100
B1312043738582N00352404WA0193702101
B1312053738580N00352405WA0193802102
B1312063738578N00352408WA0193802103
B1312073738577N00352413WA0193802103
B1312083738578N00352418WA0193602102
B1312093738580N00352424WA0193502101
B1312103738584N00352429WA0193502100
B1312113738589N00352433WA0193702100
B1312123738595N00352434WA0193802101
B1312133738600N00352433WA0193902102
B1312143738605N00352431WA0194002104
B1312153738609N00352427WA0194002105
B1312163738613N00352423WA0194002106
B1312173738617N00352417WA0193702106
B1312183738620N00352412WA0193602106
B1312193738622N00352407WA0193902106
B1312203738624N00352402WA0194102107
B1312213738626N00352397WA0194102107
B1312223738628N00352391WA0194002106
B1312233738630N00352385WA0193802104
B1312243738633N00352378WA0193602103
B1312253738636N00352372WA0193602101
B1312263738639N00352365WA0193702102
B1312273738641N00352359WA0193802103
B1312283738644N00352354WA0193802104
B1312293738646N00352348WA0193802104
B1312303738649N00352341WA0193802104
B1312313738653N00352335WA0193702103
B1312323738657N00352330WA0193702103
B1312333738663N00352325WA0193602103
B1312343738668N00352321WA0193602103
B1312353738673N00352317WA0193502103
B1312363738678N00352313WA0193502103
B1312373738683N00352309WA0193802103
B1312383738687N00352306WA0194002104
B1312393738692N00352303WA0194102104
B1312403738695N00352300WA0194002105
B1312413738698N00352295WA0193902105
B1312423738701N00352289WA0193602104
B1312433738705N00352283WA0193202103
B1312443738710N00352278WA0193202101
B1312453738714N00352274WA0193202101
B1312463738718N00352271WA0193202101
B1312473738720N00352268WA0193102100
B1312483738723N00352264WA0192502097
B1312493738727N00352260WA0192102095
B1312503738731N00352255WA0191902092
B1312513738735N00352249WA0191802090
B1312523738739N00352244WA0191702088
B1312533738742N00352238WA0191702087
B1312543738745N00352233WA0191602087
B1312553738747N00352228WA0191502086
B1312563738750N00352222WA0191202084
B1312573738752N00352215WA0190902082
B1312583738755N00352208WA0190602080
B1312593738757N00352201WA0190302078
B1313003738760N00352194WA0190102075
B1313013738762N00352188WA0190002073
B1313023738765N00352182WA0189802070
B1313033738768N00352176WA0189502067
B1313043738770N00352170WA0189202064
B1313053738773N00352163WA0188902061
B1313063738776N00352156WA0188402057
B1313073738779N00352148WA0187902052
B1313083738783N00352141WA0187402048
B1313093738788N00352135WA0187102044
B1313103738794N00352129WA0186802040
B1313113738799N00352125WA0186602036
B1313123738803N00352120WA0186302033
B1313133738807N00352115WA0185802030
B1313143738811N00352108WA0185202026
B1313153738816N00352102WA0184902021
B1313163738821N00352095WA0184502016
B1313173738826N00352089WA0184102011
B1313183738831N00352082WA0183702006
B1313193738836N00352076WA0183402002
B1313203738840N00352069WA0183001998
B1313213738844N00352062WA0182601993
B1313223738847N00352054WA0182201988
B1313233738851N00352046WA0181801983
B1313243738855N00352038WA0181501980
B1313253738860N00352031WA0181201976
B1313263738864N00352024WA0181001973
B1313273738868N00352017WA0180801971
B1313283738871N00352010WA0180501968
B1313293738874N00352003WA0180101965
B1313303738878N00351995WA0179701961
B1313313738882N00351987WA0179301957
B1313323738886N00351981WA0179001953
B1313333738890N00351975WA0178801951
B1313343738895N00351969WA0178401948
B1313353738899N00351963WA0177801944
B1313363738904N00351957WA0177201940
B1313373738908N00351951WA0176901936
B1313383738914N00351946WA0176501931
B1313393738919N00351940WA0176101926
B1313403738925N00351935WA0175801922
B1313413738930N00351929WA0175501918
B1313423738934N00351923WA0174801915
B1313433738938N00351917WA0174301911
B1313443738942N00351910WA0174201907
B1313453738945N00351903WA0174201904
B1313463738947N00351896WA0174101902
B1313473738950N00351890WA0173901901
B1313483738952N00351885WA0173801899
B1313493738955N00351878WA0173601897
B1313503738956N00351872WA0173501895
B1313513738957N00351865WA0173301892
B1313523738956N00351859WA0173101890
B1313533738955N00351853WA0172801888
B1313543738954N00351846WA0172701886
B1313553738954N00351840WA0172401884
B1313563738954N00351832WA0172101882
B1313573738954N00351825WA0171801879
B1313583738953N00351818WA0171701876
B1313593738953N00351811WA0171501874
B1314003738953N00351803WA0171401872
B1314013738952N00351795WA0171101870
B1314023738951N00351786WA0170901868
B1314033738949N00351777WA0170701866
B1314043738948N00351769WA0170701864
B1314053738948N00351761WA0170601864
B1314063738948N00351754WA0170301864
B1314073738947N00351747WA0170101863
B1314083738945N00351740WA0170001862
B1314093738942N00351733WA0170001861
B1314103738938N00351728WA0170301861
B1314113738935N00351722WA0170401861
B1314123738933N00351716WA0170301861
B1314133738932N00351710WA0169901859
B1314143738932N00351703WA0169801858
B1314153738931N00351695WA0169901857
B1314163738929N00351689WA0169901858
B1314173738927N00351685WA0169801857
B1314183738924N00351680WA0169601856
B1314193738921N00351674WA0169301854
B1314203738920N00351667WA0168901851
B1314213738919N00351659WA0168701848
B1314223738919N00351652WA0168501844
B1314233738919N00351646WA0168601845
B1314243738919N00351641WA0168501844
B1314253738918N00351636WA0168201842
B1314263738918N00351629WA0167701838
B1314273738918N00351622WA0167101833
B1314283738919N00351614WA0166701828
B1314293738918N00351606WA0166201822
B1314303738918N00351599WA0165901817
B1314313738916N00351592WA0165501813
B1314323738914N00351586WA0165101809
B1314333738912N00351579WA0164601804
B1314343738911N00351572WA0164201799
B1314353738911N00351564WA0163801793
B1314363738911N00351556WA0163501788
B1314373738911N00351548WA0163501787
B1314383738909N00351542WA0163501786
B1314393738907N00351536WA0163401785
B1314403738905N00351530WA0163301784
B1314413738902N00351524WA0163001782
B1314423738900N00351516WA0162701780
B1314433738899N00351508WA0162701778
B1314443738898N00351501WA0162701778
B1314453738896N00351495WA0162801777
B1314463738894N00351489WA0162801777
B1314473738892N00351483WA0162601777
B1314483738890N00351476WA0162401776
B1314493738888N00351469WA0162201774
B1314503738886N00351461WA0162101773
B1314513738884N00351453WA0162101773
B1314523738882N00351446WA0162001773
B1314533738881N00351439WA0161801773
B1314543738880N00351431WA0161601772
B1314553738878N00351422WA0161701771
B1314563738877N00351414WA0161801771
B1314573738875N00351406WA0162001772
B1314583738874N00351400WA0162201773
B1314593738873N00351394WA0162401775
B1315003738871N00351388WA0162401775
B1315013738867N00351383WA0162401776
B1315023738861N00351379WA0162201775
B1315033738854N00351376WA0162001775
B1315043738847N00351376WA0162001774
B1315053738841N00351377WA0162101774
B1315063738836N00351380WA0162201775
B1315073738833N00351384WA0162201776
B1315083738831N00351388WA0162101775
B1315093738831N00351394WA0161601773
B1315103738832N00351399WA0161601771
B1315113738836N00351402WA0161501769
B1315123738842N00351403WA0161401767
B1315133738846N00351401WA0161401765
B1315143738851N00351397WA0161501768
B1315153738853N00351393WA0161701768
B1315163738855N00351388WA0161701769
B1315173738856N00351383WA0161601769
B1315183738857N00351376WA0161401769
B1315193738859N00351369WA0161301767
B1315203738859N00351361WA0161201765
B1315213738860N00351353WA0161301765
B1315223738860N00351347WA0161501767
B1315233738861N00351340WA0161601767
B1315243738861N00351334WA0161501768
B1315253738861N00351327WA0161401767
B1315263738861N00351319WA0161501766
B1315273738861N00351311WA0161501766
B1315283738862N00351303WA0161401766
B1315293738863N00351295WA0161401766
B1315303738864N00351288WA0161401766
B1315313738864N00351280WA0161201765
B1315323738862N00351271WA0160601763
B1315333738862N00351262WA0160401761
B1315343738862N00351253WA0160601760
B1315353738863N00351245WA0160601760
B1315363738864N00351238WA0160701759
B1315373738866N00351232WA0160701760
B1315383738867N00351226WA0160801761
B1315393738867N00351219WA0160601760
B1315403738867N00351211WA0160601760
B1315413738867N00351202WA0160401759
B1315423738868N00351193WA0160301757
B1315433738870N00351184WA0160301756
B1315443738871N00351175WA0160301756
B1315453738871N00351166WA0160301755
B1315463738870N00351157WA0160201755
B1315473738869N00351148WA0160401754
B1315483738868N00351139WA0160601756
B1315493738867N00351132WA0160701757
B1315503738865N00351125WA0160901758
B1315513738862N00351120WA0161201761
B1315523738858N00351116WA0161301762
B1315533738852N00351115WA0161501764
B1315543738846N00351117WA0161801766
B1315553738842N00351121WA0162101768
B1315563738840N00351126WA0162401770
B1315573738839N00351132WA0162501773
B1315583738840N00351137WA0162801774
B1315593738843N00351140WA0162901776
B1316003738847N00351142WA0162901775
B1316013738851N00351140WA0162801775
B1316023738855N00351136WA0162801775
B1316033738858N00351130WA0162801776
B1316043738859N00351123WA0162801777
B1316053738859N00351115WA0162801777
B1316063738858N00351107WA0162801777
B1316073738856N00351098WA0162901777
B1316083738856N00351090WA0163101778
B1316093738855N00351082WA0163401780
B1316103738854N00351076WA0163801784
B1316113738853N00351071WA0164001787
B1316123738849N00351067WA0164201790
B1316133738844N00351063WA0164401791
B1316143738837N00351063WA0164401792
B1316153738831N00351065WA0164701794
B1316163738828N00351071WA0164901796
B1316173738826N00351077WA0165301798
B1316183738828N00351084WA0165601801
B1316193738831N00351089WA0166001805
B1316203738836N00351090WA0166101808
B1316213738841N00351088WA0166301810
B1316223738845N00351083WA0166601812
B1316233738847N00351076WA0166801815
B1316243738848N00351069WA0166901818
B1316253738847N00351061WA0167201820
B1316263738845N00351053WA0167401822
B1316273738841N00351045WA0167701825
B1316283738837N00351040WA0168101828
B1316293738832N00351037WA0168401832
B1316303738827N00351038WA0168601835
B1316313738822N00351044WA0168701836
B1316323738820N00351051WA0168801837
B1316333738820N00351059WA0169101839
B1316343738823N00351065WA0169401841
B1316353738828N00351067WA0169801845
B1316363738832N00351066WA0170101849
B1316373738835N00351062WA0170301852
B1316383738838N00351057WA0170501854
B1316393738839N00351051WA0170601856
B1316403738840N00351044WA0170801858
B1316413738839N00351036WA0171201860
B1316423738836N00351028WA0171401862
B1316433738831N00351022WA0171701865
B1316443738826N00351019WA0171901868
B1316453738821N00351019WA0172201871
B1316463738816N00351022WA0172401874
B1316473738812N00351027WA0172701877
B1316483738810N00351032WA0172801879
B1316493738809N00351038WA0173001881
B1316503738810N00351045WA0173001883
B1316513738813N00351050WA0173201884
B1316523738818N00351054WA0173501886
B1316533738822N00351054WA0173701890
B1316543738826N00351051WA0174001893
B1316553738828N00351047WA0174001894
B1316563738830N00351041WA0174101894
B1316573738832N00351035WA0174201895
B1316583738833N00351028WA0174401896
B1316593738833N00351021WA0174601898
B1317003738832N00351013WA0174801900
B1317013738830N00351006WA0175101902
B1317023738828N00351001WA0175501906
B1317033738825N00350998WA0175701909
B1317043738820N00350997WA0175801911
B1317053738815N00350998WA0175701912
B1317063738809N00351002WA0175901913
B1317073738805N00351007WA0176201915
B1317083738803N00351012WA0176501919
B1317093738802N00351016WA0176701923
B1317103738802N00351020WA0176801926
B1317113738804N00351025WA0177001928
B1317123738807N00351029WA0177301930
B1317133738811N00351030WA0177501932
B1317143738816N00351029WA0177501933
B1317153738820N00351024WA0177601932
B1317163738822N00351018WA0177701933
B1317173738823N00351010WA0177901934
B1317183738822N00351002WA0178101936
B1317193738820N00350994WA0178501939
B1317203738816N00350989WA0178801943
B1317213738812N00350986WA0179101946
B1317223738807N00350985WA0179301948
B1317233738801N00350986WA0179301951
B1317243738796N00350990WA0179301953
B1317253738792N00350995WA0179401955
B1317263738788N00351001WA0179701957
B1317273738786N00351007WA0180001959
B1317283738785N00351013WA0180401963
B1317293738786N00351017WA0180701967
B1317303738789N00351020WA0180901970
B1317313738793N00351022WA0180901970
B1317323738798N00351020WA0180901971
B1317333738803N00351016WA0181001972
B1317343738806N00351010WA0181101972
B1317353738808N00351002WA0181201972
B1317363738807N00350993WA0181201973
B1317373738805N00350985WA0181301974
B1317383738800N00350978WA0181501975
B1317393738795N00350974WA0181801977
B1317403738790N00350972WA0182101980
B1317413738784N00350972WA0182201983
B1317423738779N00350974WA0182301984
B1317433738774N00350978WA0182201985
B1317443738770N00350984WA0181901986
B1317453738768N00350991WA0181901987
B1317463738767N00350998WA0182301988
B1317473738767N00351005WA0182701991
B1317483738767N00351011WA0182901994
B1317493738768N00351017WA0183101996
B1317503738769N00351023WA0183201997
B1317513738772N00351027WA0183301997
B1317523738776N00351030WA0183301998
B1317533738781N00351030WA0183401999
B1317543738785N00351027WA0183502000
B1317553738790N00351023WA0183502001
B1317563738794N00351017WA0183302000
B1317573738797N00351010WA0183301999
B1317583738800N00351002WA0183301998
B1317593738802N00350993WA0183401998
B1318003738803N00350984WA0183501999
B1318013738803N00350976WA0183802000
B1318023738803N00350969WA0184102001
B1318033738801N00350963WA0184302004
B1318043738797N00350958WA0184402005
B1318053738792N00350955WA0184302006
B1318063738786N00350954WA0184202007
B1318073738780N00350957WA0184502008
B1318083738776N00350964WA0184402009
B1318093738776N00350972WA0184402008
B1318103738779N00350980WA0184602007
B1318113738783N00350983WA0185102010
B1318123738786N00350983WA0185502015
B1318133738789N00350981WA0185802019
B1318143738791N00350978WA0185802021
B1318153738795N00350977WA0185702022
B1318163738800N00350976WA0185602023
B1318173738807N00350974WA0185702025
B1318183738812N00350970WA0186002027
B1318193738815N00350964WA0186302029
B1318203738817N00350956WA0186502030
B1318213738818N00350948WA0186602032
B1318223738816N00350941WA0186802034
B1318233738814N00350935WA0187002036
B1318243738812N00350930WA0187102037
B1318253738808N00350925WA0187202038
B1318263738804N00350920WA0187402039
B1318273738800N00350917WA0187502041
B1318283738795N00350914WA0187602043
B1318293738790N00350915WA0187502043
B1318303738784N00350918WA0187202042
B1318313738780N00350924WA0186602039
B1318323738779N00350931WA0186902038
B1318333738779N00350937WA0187202038
B1318343738781N00350942WA0187202037
B1318353738785N00350945WA0187302037
B1318363738789N00350947WA0187402037
B1318373738794N00350948WA0187402036
B1318383738799N00350947WA0187602037
B1318393738805N00350944WA0187902038
B1318403738810N00350940WA0188102040
B1318413738814N00350935WA0188502042
B1318423738817N00350929WA0188702044
B1318433738818N00350922WA0189002048
B1318443738819N00350915WA0189102050
B1318453738818N00350907WA0189202052
B1318463738815N00350900WA0189202053
B1318473738810N00350895WA0189402054
B1318483738805N00350893WA0189502055
B1318493738800N00350894WA0189602057
B1318503738795N00350897WA0189702059
B1318513738792N00350902WA0189902060
B1318523738791N00350908WA0189902061
B1318533738791N00350914WA0190102062
B1318543738794N00350919WA0190402064
B1318553738799N00350923WA0190602065
B1318563738806N00350923WA0190902067
B1318573738811N00350920WA0191202070
B1318583738815N00350914WA0191402072
B1318593738817N00350906WA0191502075
B1319003738817N00350898WA0191602077
B1319013738817N00350891WA0191802079
B1319023738815N00350884WA0192002082
B1319033738814N00350879WA0192202085
B1319043738811N00350876WA0192402087
B1319053738806N00350873WA0192302087
B1319063738800N00350872WA0192202086
B1319073738793N00350873WA0192102086
B1319083738787N00350877WA0192202087
B1319093738784N00350883WA0192402088
B1319103738783N00350890WA0192602089
B1319113738785N00350896WA0192902091
B1319123738789N00350899WA0193002092
B1319133738794N00350898WA0193102094
B1319143738799N00350896WA0193202094
B1319153738804N00350892WA0193302095
B1319163738809N00350888WA0193402098
B1319173738813N00350883WA0193502099
B1319183738817N00350877WA0193502100
B1319193738818N00350870WA0193502099
B1319203738818N00350863WA0193402099
B1319213738815N00350856WA0193302099
B1319223738811N00350852WA0193702101
B1319233738808N00350849WA0194102103
B1319243738805N00350847WA0194302105
B1319253738801N00350844WA0194302107
B1319263738796N00350843WA0194302107
B1319273738790N00350843WA0194402107
B1319283738785N00350844WA0194502108
B1319293738780N00350847WA0194702110
B1319303738777N00350851WA0194802112
B1319313738774N00350856WA0194802113
B1319323738773N00350861WA0194902114
B1319333738773N00350866WA0195002115
B1319343738775N00350870WA0195002116
B1319353738779N00350873WA0194802115
B1319363738783N00350874WA0194502115
B1319373738787N00350875WA0194602114
B1319383738791N00350876WA0194702114
B1319393738796N00350875WA0194602113
B1319403738801N00350873WA0194602113
B1319413738807N00350870WA0194602113
B1319423738812N00350867WA0194802113
B1319433738816N00350862WA0194802114
B1319443738819N00350857WA0194902117
B1319453738821N00350851WA0195102118
B1319463738823N00350844WA0195102119
B1319473738824N00350837WA0195302120
B1319483738824N00350831WA0195402122
B1319493738824N00350825WA0195602123
B1319503738824N00350820WA0195702126
B1319513738822N00350815WA0195902127
B1319523738820N00350811WA0195902128
B1319533738817N00350807WA0196002128
B1319543738814N00350803WA0196002128
B1319553738810N00350799WA0196002128
B1319563738805N00350796WA0196102129
B1319573738802N00350793WA0196202130
B1319583738798N00350791WA0196302131
B1319593738794N00350789WA0196402132
B1320003738790N00350789WA0196402132
B1320013738785N00350789WA0196402132
B1320023738780N00350791WA0196402133
B1320033738776N00350795WA0196202133
B1320043738773N00350801WA0196202134
B1320053738771N00350807WA0196702135
B1320063738772N00350813WA0196802136
B1320073738773N00350818WA0196902137
B1320083738775N00350823WA0197002138
B1320093738778N00350827WA0197102139
B1320103738781N00350831WA0197002139
B1320113738786N00350833WA0197002139
B1320123738792N00350834WA0197002139
B1320133738797N00350834WA0197102139
B1320143738802N00350832WA0197202140
B1320153738806N00350829WA0197302141
B1320163738809N00350824WA0197302141
B1320173738812N00350818WA0197302141
B1320183738813N00350810WA0197102140
B1320193738813N00350803WA0197202139
B1320203738811N00350796WA0197202139
B1320213738809N00350791WA0197302141
B1320223738805N00350788WA0197402141
B1320233738801N00350788WA0197302142
B1320243738796N00350788WA0197202142
B1320253738792N00350790WA0197202142
B1320263738788N00350794WA0197302142
B1320273738785N00350800WA0197302142
B1320283738784N00350806WA0197302142
B1320293738784N00350813WA0197402142
B1320303738785N00350819WA0197402143
B1320313738788N00350825WA0197402143
B1320323738791N00350829WA0197402143
B1320333738796N00350832WA0197302143
B1320343738802N00350832WA0197302143
B1320353738808N00350831WA0197302142
B1320363738813N00350828WA0197302142
B1320373738817N00350823WA0197302144
B1320383738820N00350818WA0197402145
B1320393738821N00350812WA0197502145
B1320403738822N00350807WA0197502145
B1320413738821N00350802WA0197302146
B1320423738820N00350796WA0197202145
B1320433738816N00350790WA0197102144
B1320443738812N00350786WA0197102143
B1320453738807N00350785WA0197102143
B1320463738802N00350785WA0197102143
B1320473738797N00350788WA0197102143
B1320483738794N00350793WA0197002143
B1320493738791N00350798WA0197002142
B1320503738790N00350804WA0197002142
B1320513738790N00350809WA0197002141
B1320523738792N00350815WA0196902141
B1320533738796N00350819WA0196902140
B1320543738800N00350822WA0196802139
B1320553738806N00350823WA0196802138
B1320563738812N00350823WA0196702137
B1320573738817N00350821WA0196702137
B1320583738822N00350817WA0196602136
B1320593738827N00350814WA0196602135
B1321003738831N00350810WA0196402135
B1321013738836N00350807WA0196102134
B1321023738841N00350803WA0195902133
B1321033738846N00350799WA0196002132
B1321043738850N00350794WA0195902130
B1321053738853N00350790WA0196202133
B1321063738856N00350786WA0196202135
B1321073738859N00350783WA0196202135
B1321083738862N00350780WA0196102133
B1321093738867N00350776WA0195902133
B1321103738871N00350772WA0195802132
B1321113738875N00350766WA0195702131
B1321123738877N00350760WA0195802131
B1321133738879N00350755WA0195902132
B1321143738881N00350750WA0195802132
B1321153738884N00350744WA0195702131
B1321163738887N00350739WA0195502130
B1321173738892N00350733WA0195302128
B1321183738897N00350727WA0195102126
B1321193738901N00350722WA0195002124
B1321203738905N00350716WA0195002124
B1321213738908N00350711WA0194902123
B1321223738911N00350705WA0194502121
B1321233738915N00350699WA0194002119
B1321243738918N00350693WA0193902117
B1321253738923N00350687WA0193702114
B1321263738927N00350680WA0193502110
B1321273738929N00350672WA0193502108
B1321283738931N00350665WA0193602107
B1321293738932N00350660WA0193402107
B1321303738932N00350655WA0193202105
B1321313738933N00350651WA0192902102
B1321323738935N00350644WA0192302099
B1321333738938N00350636WA0191902096
B1321343738940N00350628WA0191602092
B1321353738943N00350621WA0191502090
B1321363738946N00350616WA0191502089
B1321373738949N00350611WA0191402086
B1321383738951N00350607WA0191002084
B1321393738954N00350601WA0190302081
B1321403738958N00350594WA0190002078
B1321413738962N00350588WA0189902075
B1321423738965N00350583WA0189702072
B1321433738969N00350578WA0189602070
B1321443738973N00350574WA0189302067
B1321453738976N00350568WA0188902063
B1321463738979N00350562WA0188402059
B1321473738982N00350554WA0188202056
B1321483738985N00350547WA0188302054
B1321493738986N00350540WA0188602053
B1321503738987N00350535WA0188902054
B1321513738986N00350531WA0189002055
B1321523738985N00350527WA0189002055
B1321533738982N00350521WA0189102055
B1321543738977N00350515WA0189202054
B1321553738972N00350511WA0189402056
B1321563738966N00350511WA0189602058
B1321573738961N00350513WA0189802060
B1321583738956N00350518WA0189802061
B1321593738953N00350525WA0189802062
B1322003738952N00350532WA0189902063
B1322013738953N00350538WA0189902063
B1322023738955N00350544WA0189802063
B1322033738958N00350548WA0189702062
B1322043738963N00350550WA0189702062
B1322053738967N00350551WA0189702061
B1322063738972N00350551WA0189902062
B1322073738977N00350550WA0190002063
B1322083738981N00350547WA0190102065
B1322093738985N00350544WA0190202065
B1322103738988N00350540WA0190202065
B1322113738991N00350535WA0190202066
B1322123738995N00350530WA0190302066
B1322133738998N00350525WA0190302067
B1322143739002N00350521WA0190402067
B1322153739006N00350516WA0190602068
B1322163739009N00350511WA0190902070
B1322173739010N00350506WA0191102073
B1322183739010N00350499WA0191102074
B1322193739008N00350491WA0191202075
B1322203739005N00350484WA0191302076
B1322213739001N00350479WA0191502078
B1322223738995N00350477WA0191802081
B1322233738991N00350477WA0191902083
B1322243738986N00350481WA0192102085
B1322253738983N00350486WA0192202086
B1322263738980N00350492WA0192302087
B1322273738979N00350498WA0192402088
B1322283738980N00350503WA0192502089
B1322293738984N00350508WA0192602090
B1322303738989N00350511WA0192702091
B1322313738994N00350512WA0192802093
B1322323738999N00350510WA0193102096
B1322333739003N00350508WA0193402099
B1322343739006N00350504WA0193602102
B1322353739009N00350498WA0193702104
B1322363739011N00350492WA0193802106
B1322373739011N00350485WA0193902107
B1322383739010N00350477WA0194002108
B1322393739007N00350471WA0194102109
B1322403739003N00350467WA0194202110
B1322413738998N00350465WA0194202111
B1322423738993N00350466WA0194302112
B1322433738988N00350469WA0194302112
B1322443738985N00350473WA0194302113
B1322453738983N00350479WA0194402114
B1322463738982N00350485WA0194402114
B1322473738982N00350492WA0194402114
B1322483738983N00350499WA0194502114
B1322493738986N00350505WA0194802115
B1322503738989N00350510WA0195002117
B1322513738993N00350512WA0195102118
B1322523738997N00350514WA0195202119
B1322533739001N00350513WA0195302120
B1322543739006N00350511WA0195302121
B1322553739010N00350508WA0195402121
B1322563739014N00350504WA0195402122
B1322573739017N00350499WA0195502122
B1322583739020N00350492WA0195502122
B1322593739023N00350486WA0195602123
B1323003739026N00350480WA0195802124
B1323013739028N00350473WA0196002126
B1323023739029N00350467WA0196102127
B1323033739027N00350462WA0196102129
B1323043739024N00350457WA0196102129
B1323053739020N00350453WA0196102129
B1323063739014N00350453WA0195602129
B1323073739009N00350454WA0195702130
B1323083739005N00350458WA0196002131
B1323093739003N00350463WA0196302134
B1323103739003N00350470WA0196202134
B1323113739005N00350477WA0196302134
B1323123739009N00350483WA0196402134
B1323133739013N00350488WA0196402134
B1323143739018N00350490WA0196602135
B1323153739024N00350489WA0196602135
B1323163739030N00350486WA0196602134
B1323173739036N00350483WA0196602135
B1323183739040N00350478WA0196802136
B1323193739044N00350473WA0196902137
B1323203739046N00350467WA0196902137
B1323213739046N00350460WA0196802136
B1323223739045N00350453WA0196802136
B1323233739043N00350447WA0196902136
B1323243739040N00350443WA0197002137
B1323253739037N00350440WA0197102138
B1323263739033N00350437WA0197002138
B1323273739030N00350436WA0197002138
B1323283739026N00350435WA0196902138
B1323293739021N00350436WA0196402138
B1323303739016N00350438WA0196502137
B1323313739012N00350441WA0196702137
B1323323739009N00350446WA0196802138
B1323333739008N00350451WA0196902138
B1323343739008N00350457WA0196902139
B1323353739009N00350462WA0197002139
B1323363739011N00350466WA0197002139
B1323373739014N00350471WA0197002139
B1323383739018N00350475WA0196902139
B1323393739022N00350478WA0196902139
B1323403739027N00350481WA0196902138
B1323413739033N00350482WA0196902138
B1323423739039N00350482WA0196802138
B1323433739045N00350481WA0196802138
B1323443739050N00350480WA0196802137
B1323453739056N00350478WA0196702137
B1323463739061N00350476WA0196302137
B1323473739066N00350472WA0196302136
B1323483739071N00350468WA0196502135
B1323493739075N00350464WA0196502135
B1323503739079N00350459WA0196402134
B1323513739084N00350454WA0196302132
B1323523739089N00350448WA0196102131
B1323533739094N00350443WA0196102130
B1323543739098N00350437WA0196202130
B1323553739103N00350431WA0196202130
B1323563739107N00350425WA0196202130
B1323573739110N00350419WA0196302131
B1323583739114N00350413WA0196402131
B1323593739118N00350409WA0196202132
B1324003739122N00350404WA0196202132
B1324013739126N00350398WA0196002131
B1324023739131N00350391WA0195902129
B1324033739135N00350384WA0195902128
B1324043739139N00350378WA0196102129
B1324053739143N00350373WA0196202130
B1324063739147N00350369WA0196302131
B1324073739151N00350365WA0196202131
B1324083739155N00350360WA0196102130
B1324093739159N00350356WA0195902129
B1324103739165N00350351WA0195802128
B1324113739170N00350346WA0195702127
B1324123739175N00350342WA0195802127
B1324133739180N00350338WA0195802129
B1324143739185N00350336WA0195802129
B1324153739190N00350332WA0195702128
B1324163739195N00350328WA0195602128
B1324173739200N00350323WA0195602126
B1324183739205N00350318WA0195602126
B1324193739210N00350313WA0195702126
B1324203739214N00350309WA0195602126
B1324213739219N00350305WA0195602125
B1324223739224N00350299WA0195602124
B1324233739228N00350293WA0195402123
B1324243739232N00350287WA0195502123
B1324253739236N00350282WA0195502123
B1324263739239N00350276WA0195402123
B1324273739243N00350270WA0195402123
B1324283739247N00350264WA0195402122
B1324293739251N00350259WA0195402122
B1324303739255N00350254WA0195602123
B1324313739259N00350250WA0195802123
B1324323739262N00350246WA0195902125
B1324333739265N00350241WA0195702125
B1324343739268N00350236WA0195402125
B1324353739273N00350230WA0195302125
B1324363739278N00350225WA0195502124
B1324373739282N00350222WA0195502124
B1324383739286N00350218WA0195402124
B1324393739290N00350214WA0195102123
B1324403739295N00350210WA0194902120
B1324413739300N00350205WA0194702117
B1324423739305N00350200WA0194602115
B1324433739310N00350196WA0194702115
B1324443739314N00350193WA0194702114
B1324453739318N00350190WA0194702114
B1324463739321N00350186WA0194602113
B1324473739326N00350182WA0194302112
B1324483739329N00350177WA0194102108
B1324493739332N00350172WA0194102108
B1324503739333N00350167WA0194002107
B1324513739334N00350162WA0193902106
B1324523739335N00350156WA0193702104
B1324533739337N00350149WA0193602102
B1324543739339N00350142WA0193502101
B1324553739340N00350136WA0193402100
B1324563739342N00350129WA0193402099
B1324573739344N00350123WA0193402099
B1324583739347N00350117WA0193402099
B1324593739351N00350112WA0193402099
B1325003739354N00350107WA0193302099
B1325013739357N00350102WA0193202098
B1325023739359N00350095WA0193102096
B1325033739362N00350089WA0193002095
B1325043739364N00350083WA0193002094
B1325053739367N00350079WA0192902094
B1325063739370N00350075WA0192902093
B1325073739374N00350071WA0192702092
B1325083739378N00350068WA0192502091
B1325093739382N00350063WA0192002089
B1325103739386N00350058WA0191802087
B1325113739389N00350053WA0191902085
B1325123739392N00350049WA0191802084
B1325133739395N00350043WA0191602082
B1325143739398N00350038WA0191302080
B1325153739401N00350032WA0191102077
B1325163739405N00350026WA0191002075
B1325173739408N00350020WA0190902074
B1325183739411N00350014WA0190902074
B1325193739414N00350008WA0190902074
B1325203739416N00350002WA0190802073
B1325213739419N00349996WA0190702073
B1325223739422N00349990WA0190702072
B1325233739425N00349984WA0190602071
B1325243739427N00349978WA0190502070
B1325253739430N00349973WA0190402069
B1325263739433N00349968WA0190002067
B1325273739436N00349963WA0189702066
B1325283739440N00349958WA0189702064
B1325293739444N00349954WA0189502062
B1325303739449N00349950WA0189402059
B1325313739454N00349947WA0189202057
B1325323739460N00349944WA0189002055
B1325333739465N00349940WA0189002054
B1325343739470N00349937WA0189002054
B1325353739474N00349932WA0188902054
B1325363739478N00349928WA0188802053
B1325373739482N00349923WA0188702052
B1325383739487N00349919WA0188502051
B1325393739492N00349915WA0188402049
B1325403739497N00349912WA0188302048
B1325413739501N00349908WA0188202047
B1325423739507N00349904WA0188002046
B1325433739512N00349900WA0187702044
B1325443739517N00349897WA0187502043
B1325453739523N00349893WA0187602042
B1325463739528N00349890WA0187602040
B1325473739533N00349887WA0187502040
B1325483739539N00349883WA0187302038
B1325493739544N00349878WA0187102036
B1325503739550N00349874WA0186902034
B1325513739554N00349870WA0187002032
B1325523739559N00349867WA0187102034
B1325533739563N00349864WA0187002034
B1325543739568N00349861WA0186802034
B1325553739573N00349858WA0186402032
B1325563739578N00349854WA0185902030
B1325573739584N00349850WA0185802027
B1325583739589N00349846WA0185702025
B1325593739593N00349842WA0185602023
B1326003739598N00349839WA0185502021
B1326013739603N00349835WA0185202018
B1326023739608N00349831WA0185002016
B1326033739613N00349827WA0184702013
B1326043739619N00349822WA0184302009
B1326053739624N00349817WA0184202007
B1326063739629N00349812WA0184102005
B1326073739634N00349807WA0184002004
B1326083739639N00349803WA0183802003
B1326093739645N00349799WA0183702001
B1326103739651N00349795WA0183602000
B1326113739657N00349792WA0183501998
B1326123739664N00349789WA0183401997
B1326133739670N00349785WA0183401996
B1326143739675N00349781WA0183301996
B1326153739681N00349779WA0183201995
B1326163739687N00349776WA0183101994
B1326173739693N00349773WA0183001993
B1326183739699N00349770WA0183001992
B1326193739705N00349767WA0183101992
B1326203739710N00349764WA0183101992
B1326213739715N00349761WA0183001992
B1326223739720N00349758WA0182901992
B1326233739726N00349754WA0182901991
B1326243739732N00349749WA0182801990
B1326253739736N00349745WA0182801990
B1326263739741N00349741WA0182801991
B1326273739745N00349739WA0182801991
B1326283739749N00349736WA0182701991
B1326293739753N00349732WA0182501990
B1326303739757N00349727WA0182201989
B1326313739762N00349721WA0182101986
B1326323739766N00349716WA0182101984
B1326333739771N00349712WA0181901984
B1326343739777N00349709WA0181501983
B1326353739782N00349706WA0181401980
B1326363739788N00349702WA0181701979
B1326373739793N00349697WA0181601978
B1326383739799N00349692WA0181701979
B1326393739804N00349688WA0181901981
B1326403739809N00349684WA0182101982
B1326413739814N00349681WA0182301983
B1326423739817N00349677WA0182501985
B1326433739818N00349670WA0182501986
B1326443739817N00349662WA0182301987
B1326453739815N00349654WA0182201986
B1326463739812N00349646WA0182101985
B1326473739809N00349639WA0182201985
B1326483739807N00349632WA0182201985
B1326493739806N00349624WA0182401987
B1326503739806N00349615WA0182401987
B1326513739807N00349606WA0182301987
B1326523739810N00349598WA0182301986
B1326533739814N00349591WA0182101986
B1326543739818N00349585WA0181901985
B1326553739822N00349579WA0181801984
B1326563739826N00349573WA0181801983
B1326573739830N00349565WA0181601980
B1326583739833N00349557WA0181401979
B1326593739835N00349550WA0181401977
B1327003739837N00349543WA0181401976
B1327013739839N00349537WA0181301976
B1327023739842N00349529WA0181201975
B1327033739844N00349521WA0181201973
B1327043739847N00349513WA0181101971
B1327053739850N00349506WA0181201972
B1327063739853N00349499WA0181301973
B1327073739857N00349493WA0181301973
B1327083739862N00349487WA0181401973
B1327093739868N00349481WA0181401974
B1327103739873N00349475WA0181501974
B1327113739879N00349469WA0181601975
B1327123739885N00349464WA0181701976
B1327133739891N00349458WA0181701976
B1327143739897N00349453WA0181901977
B1327153739903N00349448WA0182001978
B1327163739908N00349444WA0182101980
B1327173739914N00349440WA0182201981
B1327183739919N00349436WA0182101981
B1327193739925N00349432WA0182001981
B1327203739931N00349426WA0181701980
B1327213739937N00349421WA0181701977
B1327223739943N00349416WA0181501976
B1327233739948N00349412WA0181301975
B1327243739953N00349407WA0181001974
B1327253739959N00349402WA0180901972
B1327263739965N00349396WA0180701970
B1327273739971N00349389WA0180601967
B1327283739976N00349384WA0180601967
B1327293739981N00349379WA0180601966
B1327303739986N00349374WA0180401965
B1327313739991N00349369WA0180101964
B1327323739997N00349363WA0179901962
B1327333740003N00349358WA0179701960
B1327343740009N00349354WA0179601958
B1327353740016N00349350WA0179501957
B1327363740021N00349347WA0179401956
B1327373740027N00349343WA0179301955
B1327383740033N00349340WA0179201953
B1327393740039N00349337WA0179101951
B1327403740045N00349334WA0179001950
B1327413740050N00349330WA0178901949
B1327423740055N00349326WA0178601947
B1327433740061N00349320WA0178501945
B1327443740066N00349315WA0178201944
B1327453740072N00349310WA0178101942
B1327463740077N00349305WA0177901940
B1327473740083N00349301WA0177701938
B1327483740089N00349296WA0177501936
B1327493740095N00349291WA0177501934
B1327503740101N00349286WA0177401933
B1327513740107N00349282WA0177401933
B1327523740112N00349278WA0177301933
B1327533740118N00349273WA0177201932
B1327543740124N00349268WA0177001931
B1327553740130N00349263WA0176701929
B1327563740137N00349257WA0176501928
B1327573740142N00349252WA0176601927
B1327583740148N00349247WA0176601927
B1327593740153N00349243WA0176601926
B1328003740160N00349240WA0176401925
B1328013740166N00349236WA0176401924
B1328023740172N00349232WA0176401922
B1328033740178N00349227WA0176301921
B1328043740184N00349222WA0176201921
B1328053740189N00349216WA0176101919
B1328063740194N00349210WA0175901918
B1328073740200N00349204WA0175801917
B1328083740206N00349199WA0175701916
B1328093740211N00349194WA0175601914
B1328103740217N00349189WA0175401912
B1328113740222N00349182WA0175201910
B1328123740227N00349175WA0175001907
B1328133740232N00349168WA0174901905
B1328143740236N00349162WA0174801904
B1328153740240N00349156WA0174601902
B1328163740245N00349151WA0174401901
B1328173740249N00349144WA0173801898
B1328183740254N00349136WA0173201895
B1328193740258N00349128WA0173101893
B1328203740262N00349122WA0173201891
B1328213740266N00349116WA0173401891
B1328223740269N00349111WA0173201890
B1328233740273N00349104WA0172901888
B1328243740278N00349098WA0172601885
B1328253740284N00349091WA0172401882
B1328263740289N00349084WA0172401880
B1328273740294N00349079WA0172501880
B1328283740298N00349074WA0172501881
B1328293740302N00349070WA0172301880
B1328303740307N00349064WA0172101877
B1328313740312N00349057WA0171901874
B1328323740318N00349051WA0171801873
B1328333740323N00349045WA0171801873
B1328343740327N00349041WA0171901873
B1328353740332N00349037WA0171901873
B1328363740338N00349034WA0171701872
B1328373740343N00349031WA0171501870
B1328383740349N00349028WA0171401869
B1328393740355N00349024WA0171201867
B1328403740360N00349019WA0171101866
B1328413740365N00349014WA0171201865
B1328423740370N00349010WA0171101865
B1328433740375N00349006WA0171001865
B1328443740381N00349002WA0170901863
B1328453740387N00348997WA0170701862
B1328463740392N00348991WA0170601861
B1328473740397N00348986WA0170601860
B1328483740402N00348981WA0170601860
B1328493740407N00348977WA0170601860
B1328503740413N00348974WA0170701860
B1328513740419N00348971WA0170701860
B1328523740425N00348967WA0170601859
B1328533740431N00348963WA0170401858
B1328543740436N00348958WA0170201856
B1328553740442N00348953WA0170101855
B1328563740448N00348949WA0170201853
B1328573740453N00348944WA0170101853
B1328583740458N00348940WA0170001852
B1328593740463N00348935WA0169801851
B1329003740469N00348929WA0169501848
B1329013740475N00348922WA0169401845
B1329023740481N00348916WA0169501844
B1329033740486N00348911WA0169401844
B1329043740492N00348907WA0169301843
B1329053740497N00348903WA0169101842
B1329063740502N00348897WA0168601840
B1329073740508N00348891WA0168301838
B1329083740514N00348885WA0168401836
B1329093740521N00348880WA0168501835
B1329103740527N00348877WA0168601835
B1329113740532N00348874WA0168601835
B1329123740538N00348871WA0168501835
B1329133740543N00348867WA0168401834
B1329143740550N00348862WA0168201832
B1329153740556N00348858WA0168401832
B1329163740561N00348855WA0168301832
B1329173740566N00348853WA0168201833
B1329183740571N00348851WA0168101833
B1329193740577N00348847WA0167801832
B1329203740584N00348842WA0167401830
B1329213740590N00348837WA0167401827
B1329223740596N00348833WA0167401829
B1329233740602N00348829WA0167401830
B1329243740607N00348826WA0167401829
B1329253740612N00348822WA0167201829
B1329263740618N00348817WA0167001828
B1329273740625N00348812WA0166901827
B1329283740631N00348807WA0166701825
B1329293740636N00348803WA0166701825
B1329303740642N00348800WA0166701825
B1329313740647N00348796WA0166501824
B1329323740653N00348793WA0166401822
B1329333740660N00348789WA0166201819
B1329343740666N00348784WA0166001817
B1329353740672N00348778WA0165901816
B1329363740677N00348772WA0165901815
B1329373740683N00348767WA0165801814
B1329383740688N00348762WA0165601813
B1329393740694N00348756WA0165401811
B1329403740700N00348750WA0165201809
B1329413740705N00348744WA0165001807
B1329423740711N00348737WA0164901805
B1329433740716N00348730WA0164701803
B1329443740722N00348724WA0164601801
B1329453740728N00348719WA0164401799
B1329463740734N00348713WA0164301796
B1329473740741N00348707WA0164001793
B1329483740747N00348701WA0163901791
B1329493740753N00348696WA0163701791
B1329503740758N00348692WA0163701791
B1329513740763N00348687WA0163501790
B1329523740769N00348681WA0163201788
B1329533740775N00348675WA0163001786
B1329543740781N00348669WA0162801784
B1329553740787N00348663WA0162801783
B1329563740793N00348658WA0162801783
B1329573740798N00348652WA0162701782
B1329583740803N00348646WA0162501781
B1329593740809N00348640WA0162401779
B1330003740815N00348634WA0162201777
B1330013740820N00348627WA0162101775
B1330023740825N00348621WA0162101775
B1330033740830N00348615WA0162101774
B1330043740835N00348610WA0161701774
B1330053740840N00348604WA0161601773
B1330063740845N00348599WA0161601771
B1330073740851N00348594WA0161501770
B1330083740856N00348588WA0161401768
B1330093740861N00348583WA0161301768
B1330103740866N00348578WA0161201767
B1330113740871N00348573WA0161001765
B1330123740876N00348567WA0160901764
B1330133740882N00348562WA0160701762
B1330143740888N00348557WA0160601760
B1330153740893N00348551WA0160601759
B1330163740898N00348546WA0160601758
B1330173740903N00348541WA0160501757
B1330183740908N00348535WA0160401756
B1330193740913N00348530WA0160201754
B1330203740919N00348524WA0160201753
B1330213740924N00348519WA0160201753
B1330223740928N00348513WA0160201752
B1330233740933N00348508WA0160101752
B1330243740937N00348502WA0159901751
B1330253740941N00348497WA0159801749
B1330263740946N00348492WA0159701748
B1330273740951N00348487WA0159501746
B1330283740956N00348482WA0159401745
B1330293740961N00348477WA0159301744
B1330303740966N00348472WA0159201743
B1330313740972N00348468WA0159101741
B1330323740977N00348464WA0158901740
B1330333740983N00348460WA0158901738
B1330343740989N00348456WA0158801737
B1330353740995N00348452WA0158701736
B1330363741000N00348447WA0158601735
B1330373741006N00348442WA0158501734
B1330383741011N00348438WA0158401732
B1330393741017N00348433WA0158301731
B1330403741023N00348429WA0158201730
B1330413741029N00348425WA0158101729
B1330423741034N00348421WA0158001728
B1330433741040N00348418WA0157801727
B1330443741045N00348414WA0157601725
B1330453741051N00348410WA0157501723
B1330463741057N00348407WA0157401721
B1330473741064N00348404WA0157201720
B1330483741070N00348401WA0157201718
B1330493741076N00348397WA0157001717
B1330503741082N00348395WA0156901716
B1330513741089N00348392WA0156801714
B1330523741095N00348390WA0156601712
B1330533741101N00348388WA0156401711
B1330543741107N00348385WA0156301710
B1330553741114N00348383WA0156101708
B1330563741120N00348380WA0156001706
B1330573741126N00348376WA0155801704
B1330583741133N00348374WA0155601703
B1330593741139N00348371WA0155401701
B1331003741146N00348369WA0155201699
B1331013741152N00348365WA0155101697
B1331023741158N00348362WA0154901695
B1331033741165N00348358WA0154701693
B1331043741171N00348355WA0154501691
B1331053741177N00348351WA0154301689
B1331063741184N00348348WA0154201688
B1331073741190N00348345WA0154101686
B1331083741196N00348342WA0154001685
B1331093741203N00348339WA0153901684
B1331103741209N00348336WA0153701682
B1331113741215N00348334WA0153601681
B1331123741222N00348333WA0153401679
B1331133741228N00348331WA0153301678
B1331143741234N00348328WA0153101676
B1331153741241N00348325WA0152901674
B1331163741247N00348321WA0152701672
B1331173741253N00348317WA0152601670
B1331183741258N00348313WA0152401668
B1331193741264N00348308WA0152301667
B1331203741269N00348303WA0152101665
B1331213741274N00348299WA0151901663
B1331223741280N00348295WA0151601661
B1331233741286N00348290WA0151401658
B1331243741292N00348286WA0151201656
B1331253741297N00348281WA0151101654
B1331263741303N00348277WA0151001652
B1331273741308N00348272WA0150801651
B1331283741313N00348267WA0150701649
B1331293741319N00348263WA0150601647
B1331303741324N00348259WA0150401646
B1331313741330N00348255WA0150201644
B1331323741336N00348251WA0150101643
B1331333741342N00348247WA0149901641
B1331343741347N00348243WA0149701640
B1331353741353N00348238WA0149601638
B1331363741358N00348234WA0149401636
B1331373741364N00348229WA0149301635
B1331383741369N00348224WA0149201634
B1331393741374N00348219WA0149101633
B1331403741379N00348214WA0148901632
B1331413741384N00348209WA0148801630
B1331423741390N00348204WA0148701629
B1331433741396N00348200WA0148601627
B1331443741401N00348195WA0148601626
B1331453741407N00348190WA0148401625
B1331463741413N00348187WA0148501624
B1331473741419N00348183WA0148301624
B1331483741425N00348179WA0148001623
B1331493741431N00348175WA0148101622
B1331503741436N00348170WA0148101621
B1331513741442N00348164WA0148001619
B1331523741447N00348159WA0147901618
B1331533741453N00348153WA0147801617
B1331543741458N00348148WA0147801616
B1331553741463N00348143WA0147701616
B1331563741467N00348138WA0147701616
B1331573741471N00348134WA0147601616
B1331583741475N00348129WA0147501615
B1331593741480N00348123WA0147301614
B1332003741485N00348118WA0147101613
B1332013741490N00348112WA0147001611
B1332023741495N00348107WA0147001610
B1332033741500N00348101WA0147001610
B1332043741505N00348096WA0146901609
B1332053741510N00348092WA0146701608
B1332063741516N00348087WA0146601607
B1332073741522N00348083WA0146401606
B1332083741528N00348077WA0146401605
B1332093741533N00348072WA0146501605
B1332103741537N00348068WA0146501605
B1332113741542N00348063WA0146401605
B1332123741547N00348058WA0146201603
B1332133741553N00348053WA0146101602
B1332143741559N00348048WA0146101600
B1332153741564N00348043WA0146101600
B1332163741569N00348039WA0146101600
B1332173741574N00348035WA0146101601
B1332183741579N00348031WA0146001600
B1332193741584N00348027WA0145801599
B1332203741589N00348023WA0145501598
B1332213741595N00348020WA0145401597
B1332223741601N00348016WA0145401596
B1332233741606N00348012WA0145301595
B1332243741610N00348007WA0145301594
B1332253741614N00348002WA0145101593
B1332263741618N00347996WA0145001591
B1332273741622N00347990WA0144801590
B1332283741627N00347984WA0144601588
B1332293741632N00347979WA0144401586
B1332303741636N00347973WA0144301584
B1332313741640N00347967WA0144201583
B1332323741643N00347961WA0144001581
B1332333741647N00347955WA0143801579
B1332343741651N00347949WA0143701577
B1332353741656N00347943WA0143401574
B1332363741661N00347936WA0143201572
B1332373741666N00347930WA0143101570
B1332383741670N00347924WA0143001568
B1332393741675N00347918WA0143001567
B1332403741679N00347913WA0142901567
B1332413741684N00347908WA0142801566
B1332423741688N00347902WA0142601564
B1332433741693N00347896WA0142401563
B1332443741697N00347890WA0142301561
B1332453741702N00347884WA0142101559
B1332463741706N00347878WA0142001558
B1332473741710N00347871WA0142001557
B1332483741715N00347864WA0141901557
B1332493741719N00347858WA0141901556
B1332503741724N00347852WA0141801555
B1332513741728N00347846WA0141701554
B1332523741732N00347840WA0141601553
B1332533741737N00347834WA0141501552
B1332543741741N00347828WA0141401550
B1332553741746N00347822WA0141301549
B1332563741751N00347817WA0141201549
B1332573741756N00347812WA0141201548
B1332583741760N00347808WA0141101547
B1332593741765N00347803WA0140901546
B1333003741770N00347797WA0140801545
B1333013741775N00347792WA0140601543
B1333023741780N00347787WA0140601542
B1333033741785N00347782WA0140501542
B1333043741790N00347778WA0140301540
B1333053741795N00347773WA0140201539
B1333063741801N00347768WA0139901537
B1333073741806N00347764WA0139701535
B1333083741812N00347760WA0139601534
B1333093741817N00347756WA0139501532
B1333103741822N00347753WA0139401531
B1333113741828N00347749WA0139301529
B1333123741833N00347746WA0139101527
B1333133741838N00347741WA0138901526
B1333143741842N00347737WA0138701524
B1333153741846N00347732WA0138601522
B1333163741850N00347726WA0138501522
B1333173741853N00347721WA0138401521
B1333183741856N00347716WA0138101519
B1333193741860N00347710WA0137701518
B1333203741865N00347705WA0137801516
B1333213741869N00347700WA0137901515
B1333223741874N00347695WA0137901514
B1333233741878N00347691WA0137801514
B1333243741882N00347687WA0137701513
B1333253741886N00347683WA0137601512
B1333263741890N00347679WA0137501510
B1333273741894N00347674WA0137301508
B1333283741898N00347669WA0137201507
B1333293741902N00347664WA0137201506
B1333303741905N00347659WA0137201505
B1333313741909N00347655WA0137001505
B1333323741914N00347651WA0136801503
B1333333741919N00347647WA0136701501
B1333343741924N00347643WA0136701500
B1333353741929N00347638WA0136601499
B1333363741933N00347634WA0136701500
B1333373741937N00347631WA0136701500
B1333383741941N00347628WA0136601500
B1333393741945N00347624WA0136401499
B1333403741950N00347619WA0136101497
B1333413741956N00347615WA0135901495
B1333423741962N00347612WA0135801492
B1333433741967N00347609WA0135701490
B1333443741972N00347607WA0135601490
B1333453741976N00347604WA0135601489
B1333463741981N00347600WA0135301487
B1333473741986N00347597WA0135001485
B1333483741992N00347594WA0134701483
B1333493741998N00347592WA0134601480
B1333503742003N00347590WA0134501479
B1333513742008N00347588WA0134401478
B1333523742013N00347585WA0134201476
B1333533742018N00347583WA0134001474
B1333543742024N00347582WA0133501472
B1333553742030N00347580WA0133301469
B1333563742037N00347578WA0133501466
B1333573742042N00347576WA0133601466
B1333583742047N00347575WA0133601467
B1333593742052N00347575WA0133501466
B1334003742057N00347573WA0133201465
B1334013742063N00347572WA0132901463
B1334023742069N00347569WA0132701460
B1334033742074N00347567WA0132501457
B1334043742079N00347566WA0132401455
B1334053742084N00347564WA0132301453
B1334063742089N00347562WA0132101452
B1334073742094N00347559WA0132001450
B1334083742098N00347555WA0131701447
B1334093742102N00347551WA0131501445
B1334103742105N00347547WA0131301444
B1334113742108N00347544WA0131001441
B1334123742112N00347540WA0130601437
B1334133742116N00347536WA0130001434
B1334143742121N00347531WA0129401431
B1334153742126N00347526WA0129401428
B1334163742130N00347521WA0129301426
B1334173742133N00347518WA0129301426
B1334183742136N00347514WA0129201424
B1334193742140N00347510WA0128801422
B1334203742144N00347505WA0128501419
B1334213742149N00347499WA0128301416
B1334223742153N00347495WA0128101413
B1334233742157N00347491WA0128001412
B1334243742160N00347487WA0127801410
B1334253742164N00347483WA0127601408
B1334263742169N00347478WA0127201405
B1334273742174N00347474WA0126901402
B1334283742179N00347470WA0126701399
B1334293742184N00347466WA0126501396
B1334303742188N00347462WA0126401394
B1334313742192N00347458WA0126301392
B1334323742197N00347454WA0126001390
B1334333742203N00347450WA0125801388
B1334343742209N00347446WA0125801386
B1334353742214N00347444WA0125901387
B1334363742218N00347441WA0125901389
B1334373742222N00347439WA0125801388
B1334383742227N00347435WA0125401386
B1334393742233N00347431WA0125301384
B1334403742239N00347427WA0125101381
B1334413742244N00347423WA0124901380
B1334423742249N00347420WA0124901380
B1334433742253N00347418WA0124801379
B1334443742257N00347415WA0124501377
B1334453742263N00347411WA0124201375
B1334463742269N00347406WA0124001371
B1334473742274N00347402WA0123901370
B1334483742279N00347398WA0124001370
B1334493742284N00347395WA0124001370
B1334503742289N00347394WA0124001370
B1334513742293N00347391WA0123801369
B1334523742299N00347388WA0123801367
B1334533742304N00347384WA0123701365
B1334543742310N00347381WA0123701365
B1334553742315N00347378WA0123801366
B1334563742320N00347376WA0123801367
B1334573742324N00347375WA0123901367
B1334583742329N00347372WA0123801367
B1334593742335N00347369WA0123801367
B1335003742340N00347366WA0123801367
B1335013742345N00347363WA0123801368
B1335023742349N00347360WA0123901368
B1335033742354N00347357WA0123901369
B1335043742359N00347354WA0123801368
B1335053742365N00347350WA0123701367
B1335063742370N00347347WA0123701367
B1335073742376N00347344WA0123701366
B1335083742381N00347341WA0123801366
B1335093742387N00347340WA0123801367
B1335103742392N00347338WA0123801367
B1335113742397N00347336WA0123801367
B1335123742403N00347334WA0124001366
B1335133742409N00347332WA0124001367
B1335143742414N00347332WA0124201368
B1335153742418N00347331WA0124401369
B1335163742422N00347331WA0124501370
B1335173742426N00347330WA0124601371
B1335183742430N00347330WA0124701371
B1335193742435N00347329WA0124801372
B1335203742438N00347327WA0124901373
B1335213742441N00347323WA0124901374
B1335223742443N00347318WA0124801374
B1335233742444N00347312WA0124501374
B1335243742444N00347306WA0124601373
B1335253742443N00347299WA0124701374
B1335263742443N00347293WA0124701374
B1335273742442N00347288WA0124801374
B1335283742441N00347283WA0124801374
B1335293742439N00347278WA0124901374
B1335303742437N00347275WA0124901374
B1335313742433N00347272WA0124801374
B1335323742429N00347271WA0124401374
B1335333742425N00347271WA0124501374
B1335343742420N00347273WA0124701374
B1335353742417N00347277WA0124701373
B1335363742414N00347282WA0124801374
B1335373742413N00347287WA0124901375
B1335383742412N00347293WA0125001376
B1335393742411N00347298WA0125201378
B1335403742411N00347303WA0125201378
B1335413742412N00347307WA0125201379
B1335423742414N00347313WA0125001378
B1335433742417N00347318WA0124901377
B1335443742420N00347323WA0124801376
B1335453742425N00347327WA0124701376
B1335463742429N00347330WA0124701375
B1335473742434N00347332WA0124801375
B1335483742440N00347334WA0124901375
B1335493742445N00347337WA0125101375
B1335503742450N00347339WA0125201375
B1335513742455N00347342WA0125301377
B1335523742458N00347345WA0125301379
B1335533742462N00347347WA0125401380
B1335543742467N00347347WA0125301381
B1335553742472N00347345WA0125201380
B1335563742478N00347341WA0125001379
B1335573742482N00347337WA0125101377
B1335583742486N00347332WA0125301378
B1335593742488N00347328WA0125401380
B1336003742491N00347324WA0125501381
B1336013742492N00347319WA0125501382
B1336023742492N00347315WA0125501382
B1336033742490N00347310WA0125301382
B1336043742487N00347306WA0124901381
B1336053742482N00347304WA0124901380
B1336063742477N00347305WA0125101380
B1336073742472N00347308WA0125101379
B1336083742468N00347313WA0125201379
B1336093742465N00347318WA0125101380
B1336103742463N00347323WA0125101380
B1336113742462N00347329WA0124901379
B1336123742461N00347336WA0124601379
B1336133742463N00347343WA0124401379
B1336143742467N00347351WA0124401378
B1336153742472N00347358WA0124401377
B1336163742477N00347363WA0124701377
B1336173742481N00347367WA0124801378
B1336183742485N00347370WA0124801378
B1336193742487N00347373WA0124601378
B1336203742491N00347376WA0124401378
B1336213742497N00347378WA0124201377
B1336223742503N00347379WA0124101376
B1336233742509N00347380WA0124101375
B1336243742514N00347380WA0124201375
B1336253742518N00347380WA0124201375
B1336263742523N00347379WA0124101374
B1336273742528N00347379WA0123801371
B1336283742533N00347378WA0123501368
B1336293742539N00347377WA0123101365
B1336303742545N00347376WA0123401363
B1336313742550N00347375WA0123401362
B1336323742556N00347374WA0123301362
B1336333742561N00347374WA0123201361
B1336343742566N00347373WA0123001360
B1336353742572N00347373WA0122901358
B1336363742578N00347373WA0122901357
B1336373742584N00347373WA0122801355
B1336383742590N00347372WA0122801355
B1336393742595N00347371WA0122801355
B1336403742600N00347369WA0122901355
B1336413742605N00347368WA0122801355
B1336423742610N00347367WA0122601353
B1336433742615N00347366WA0122401351
B1336443742621N00347365WA0122201349
B1336453742627N00347363WA0122101348
B1336463742633N00347360WA0122001346
B1336473742638N00347358WA0121901345
B1336483742643N00347356WA0121801344
B1336493742648N00347354WA0121601342
B1336503742653N00347351WA0121501340
B1336513742657N00347348WA0121401339
B1336523742662N00347346WA0121201338
B1336533742666N00347343WA0120901335
B1336543742671N00347340WA0120701333
B1336553742677N00347337WA0120401330
B1336563742683N00347334WA0120301328
B1336573742689N00347332WA0120201327
B1336583742695N00347331WA0119901326
B1336593742701N00347330WA0119701325
B1337003742707N00347328WA0119601323
B1337013742713N00347325WA0119501321
B1337023742718N00347322WA0119501319
B1337033742724N00347320WA0119301317
B1337043742730N00347318WA0119201316
B1337053742736N00347316WA0119001314
B1337063742742N00347313WA0118901312
B1337073742747N00347309WA0118701310
B1337083742752N00347306WA0118501308
B1337093742758N00347304WA0118301307
B1337103742764N00347302WA0118001305
B1337113742770N00347300WA0117901303
B1337123742776N00347298WA0117901301
B1337133742782N00347296WA0117701299
B1337143742787N00347293WA0117601297
B1337153742793N00347291WA0117601296
B1337163742798N00347288WA0117501295
B1337173742802N00347285WA0117401294
B1337183742807N00347282WA0117201293
B1337193742812N00347279WA0117001292
B1337203742816N00347277WA0117001291
B1337213742821N00347275WA0116801290
B1337223742826N00347273WA0116701288
B1337233742830N00347271WA0116601286
B1337243742835N00347269WA0116501285
B1337253742839N00347266WA0116301283
B1337263742844N00347264WA0116101281
B1337273742848N00347262WA0115801279
B1337283742853N00347260WA0115601277
B1337293742858N00347259WA0115401275
B1337303742864N00347256WA0115301273
B1337313742868N00347253WA0115201271
B1337323742872N00347250WA0115001269
B1337333742877N00347247WA0114901268
B1337343742881N00347245WA0114401266
B1337353742886N00347243WA0113901264
B1337363742891N00347241WA0113601261
B1337373742896N00347237WA0113501258
B1337383742900N00347234WA0113301255
B1337393742904N00347230WA0113101252
B1337403742909N00347227WA0112801249
B1337413742913N00347223WA0112501246
B1337423742917N00347219WA0112101242
B1337433742922N00347214WA0111701239
B1337443742927N00347209WA0111401235
B1337453742932N00347205WA0111201232
B1337463742937N00347202WA0111101230
B1337473742942N00347199WA0110901228
B1337483742946N00347195WA0110501225
B1337493742951N00347191WA0110101222
B1337503742956N00347186WA0109901219
B1337513742961N00347182WA0109701216
B1337523742966N00347180WA0109501214
B1337533742971N00347178WA0109301212
B1337543742976N00347176WA0109001210
B1337553742981N00347172WA0108701207
B1337563742986N00347167WA0108401203
B1337573742991N00347163WA0108101200
B1337583742996N00347159WA0107901197
B1337593743000N00347155WA0107601194
B1338003743005N00347151WA0107401192
B1338013743010N00347148WA0107001188
B1338023743015N00347144WA0106601184
B1338033743021N00347141WA0106201180
B1338043743026N00347137WA0105801175
B1338053743032N00347134WA0105601171
B1338063743038N00347131WA0105201167
B1338073743043N00347128WA0105101165
B1338083743048N00347126WA0104901162
B1338093743054N00347124WA0104701159
B1338103743059N00347121WA0104101157
B1338113743065N00347119WA0103901154
B1338123743070N00347118WA0104001152
B1338133743075N00347117WA0103901150
B1338143743080N00347116WA0103801149
B1338153743085N00347115WA0103601147
B1338163743089N00347113WA0103401145
B1338173743094N00347111WA0103201143
B1338183743099N00347111WA0103101142
B1338193743105N00347112WA0103101140
B1338203743110N00347114WA0103101139
B1338213743114N00347114WA0103001138
B1338223743119N00347114WA0102801138
B1338233743123N00347114WA0102601137
B1338243743127N00347114WA0102101135
B1338253743132N00347115WA0102001133
B1338263743137N00347117WA0102101131
B1338273743142N00347119WA0102001130
B1338283743147N00347120WA0101901129
B1338293743151N00347122WA0101801128
B1338303743155N00347125WA0101701127
B1338313743158N00347127WA0101601126
B1338323743162N00347128WA0101101124
B1338333743167N00347128WA0101001121
B1338343743171N00347127WA0100801119
B1338353743176N00347125WA0100701117
B1338363743181N00347123WA0100601115
B1338373743184N00347121WA0100501113
B1338383743188N00347119WA0100201112
B1338393743192N00347117WA0100001110
B1338403743196N00347114WA0099601107
B1338413743200N00347111WA0099501105
B1338423743204N00347108WA0099301103
B1338433743209N00347106WA0099101101
B1338443743213N00347103WA0099001099
B1338453743217N00347100WA0098901098
B1338463743220N00347096WA0098701096
B1338473743224N00347092WA0098501094
B1338483743228N00347089WA0098401092
B1338493743232N00347085WA0098001090
B1338503743237N00347082WA0097801088
B1338513743241N00347079WA0097701087
B1338523743244N00347076WA0097801086
B1338533743248N00347073WA0097901086
B1338543743252N00347070WA0097701084
B1338553743255N00347066WA0097501082
B1338563743259N00347062WA0097301080
B1338573743262N00347057WA0097201078
B1338583743266N00347052WA0097001077
B1338593743269N00347048WA0096901076
B1339003743272N00347044WA0096601074
B1339013743276N00347040WA0096301071
B1339023743280N00347035WA0096101069
B1339033743284N00347030WA0095901066
B1339043743289N00347025WA0095701064
B1339053743292N00347021WA0095601063
B1339063743296N00347017WA0095501062
B1339073743299N00347013WA0095201060
B1339083743303N00347010WA0095101058
B1339093743307N00347006WA0094801055
B1339103743312N00347002WA0094501053
B1339113743316N00346999WA0094401050
B1339123743320N00346997WA0094201049
B1339133743324N00346995WA0094101047
B1339143743329N00346992WA0093901045
B1339153743333N00346990WA0093501043
B1339163743338N00346987WA0093401041
B1339173743343N00346986WA0093201038
B1339183743348N00346985WA0093101035
B1339193743352N00346984WA0093001033
B1339203743355N00346983WA0092901031
B1339213743358N00346982WA0092701030
B1339223743361N00346980WA0092401028
B1339233743364N00346978WA0092001025
B1339243743366N00346976WA0091501022
B1339253743369N00346975WA0091401026
B1339263743373N00346974WA0091201025
B1339273743376N00346973WA0091001023
B1339283743379N00346971WA0090701021
B1339293743383N00346969WA0090401018
B1339303743387N00346967WA0090101015
B1339313743391N00346964WA0089901012
B1339323743395N00346961WA0089601009
B1339333743398N00346958WA0089401006
B1339343743402N00346955WA0089101002
B1339353743405N00346952WA0088800998
B1339363743410N00346948WA0088600995
B1339373743414N00346943WA0088400992
B1339383743418N00346938WA0088500990
B1339393743424N00346936WA0088700989
B1339403743428N00346935WA0089100989
B1339413743431N00346937WA0089300992
B1339423743434N00346938WA0089600995
B1339433743436N00346938WA0089900998
B1339443743440N00346937WA0089900998
B1339453743444N00346933WA0089900998
B1339463743449N00346930WA0090101000
B1339473743452N00346928WA0090601004
B1339483743455N00346927WA0091001008
B1339493743457N00346925WA0091301011
B1339503743459N00346922WA0091401014
B1339513743459N00346917WA0091501016
B1339523743458N00346910WA0091701019
B1339533743454N00346904WA0091801021
B1339543743449N00346899WA0091901021
B1339553743442N00346898WA0092101022
B1339563743435N00346900WA0092201024
B1339573743430N00346904WA0092301025
B1339583743427N00346911WA0092501027
B1339593743425N00346917WA0092701029
B1340003743425N00346923WA0093001031
B1340013743426N00346928WA0093201033
B1340023743429N00346932WA0093401036
B1340033743432N00346935WA0093701038
B1340043743436N00346936WA0093901041
B1340053743440N00346937WA0094101043
B1340063743443N00346936WA0094501046
B1340073743446N00346934WA0094801049
B1340083743449N00346930WA0095101051
B1340093743450N00346923WA0095301053
B1340103743450N00346916WA0095501055
B1340113743447N00346910WA0095801057
B1340123743442N00346905WA0096001060
B1340133743436N00346903WA0096201063
B1340143743430N00346902WA0096501065
B1340153743424N00346904WA0096801068
B1340163743419N00346909WA0097001070
B1340173743416N00346914WA0097201073
B1340183743416N00346921WA0097301075
B1340193743416N00346927WA0097501077
B1340203743418N00346932WA0097801080
B1340213743421N00346936WA0098101083
B1340223743423N00346939WA0098401086
B1340233743426N00346941WA0098701090
B1340243743429N00346941WA0099001092
B1340253743432N00346939WA0099201095
B1340263743436N00346934WA0099401096
B1340273743438N00346927WA0099501098
B1340283743438N00346920WA0099801100
B1340293743435N00346914WA0100001102
B1340303743430N00346909WA0100201105
B1340313743425N00346906WA0100401107
B1340323743419N00346904WA0100601109
B1340333743413N00346903WA0100901112
B1340343743407N00346905WA0101401115
B1340353743402N00346908WA0101701118
B1340363743399N00346913WA0101901121
B1340373743398N00346919WA0102101124
B1340383743398N00346924WA0102401126
B1340393743399N00346929WA0102401128
B1340403743402N00346932WA0102601129
B1340413743405N00346934WA0102801132
B1340423743409N00346934WA0102901134
B1340433743412N00346934WA0103101136
B1340443743416N00346933WA0103301138
B1340453743420N00346933WA0103501140
B1340463743424N00346932WA0103801143
B1340473743428N00346929WA0104101145
B1340483743432N00346924WA0104301148
B1340493743434N00346917WA0104501149
B1340503743433N00346910WA0104501151
B1340513743430N00346903WA0104601152
B1340523743425N00346897WA0104701153
B1340533743418N00346894WA0104901155
B1340543743411N00346894WA0105001156
B1340553743405N00346897WA0105201158
B1340563743400N00346900WA0105501160
B1340573743396N00346905WA0105801162
B1340583743394N00346910WA0106101164
B1340593743394N00346915WA0106301167
B1341003743395N00346920WA0106501169
B1341013743399N00346924WA0106801172
B1341023743402N00346925WA0107201177
B1341033743405N00346925WA0107501180
B1341043743409N00346923WA0107501184
B1341053743413N00346919WA0107701186
B1341063743416N00346913WA0108101188
B1341073743417N00346906WA0108201191
B1341083743415N00346899WA0108401193
B1341093743412N00346893WA0108601196
B1341103743406N00346889WA0108701198
B1341113743400N00346887WA0109001201
B1341123743394N00346885WA0109201203
B1341133743388N00346885WA0109501206
B1341143743382N00346886WA0109801208
B1341153743377N00346889WA0110101211
B1341163743373N00346894WA0110401214
B1341173743371N00346898WA0110601216
B1341183743371N00346903WA0110901220
B1341193743372N00346908WA0111201224
B1341203743373N00346912WA0111501227
B1341213743375N00346914WA0111501229
B1341223743377N00346916WA0111501229
B1341233743381N00346916WA0111301230
B1341243743385N00346915WA0111401231
B1341253743389N00346911WA0111601232
B1341263743393N00346905WA0111701233
B1341273743395N00346898WA0111901233
B1341283743396N00346890WA0112201236
B1341293743396N00346883WA0112501238
B1341303743395N00346876WA0112901240
B1341313743393N00346870WA0113101243
B1341323743389N00346865WA0113301245
B1341333743384N00346862WA0113301247
B1341343743377N00346859WA0113301247
B1341353743370N00346857WA0113401247
B1341363743362N00346857WA0113701248
B1341373743356N00346858WA0113801250
B1341383743351N00346862WA0114201252
B1341393743348N00346868WA0114401254
B1341403743348N00346873WA0114501256
B1341413743350N00346878WA0114701257
B1341423743354N00346880WA0115001260
B1341433743359N00346880WA0115201263
B1341443743363N00346877WA0115401266
B1341453743366N00346873WA0115701269
B1341463743368N00346867WA0115801271
B1341473743368N00346860WA0115801273
B1341483743366N00346852WA0116001276
B1341493743362N00346845WA0116001277
B1341503743357N00346840WA0116101278
B1341513743350N00346835WA0116201278
B1341523743343N00346832WA0116501280
B1341533743336N00346831WA0116701282
B1341543743330N00346831WA0117001286
B1341553743325N00346833WA0117301289
B1341563743320N00346837WA0117401290
B1341573743317N00346842WA0117601292
B1341583743314N00346848WA0117801295
B1341593743313N00346853WA0118001297
B1342003743314N00346858WA0118201300
B1342013743315N00346860WA0118501303
B1342023743318N00346861WA0118601305
B1342033743322N00346859WA0118601307
B1342043743326N00346854WA0118801309
B1342053743328N00346848WA0119101310
B1342063743327N00346841WA0119401314
B1342073743324N00346835WA0119601316
B1342083743319N00346829WA0119701319
B1342093743313N00346825WA0120001320
B1342103743307N00346822WA0120101321
B1342113743300N00346822WA0120301323
B1342123743295N00346824WA0120501325
B1342133743290N00346827WA0120801327
B1342143743286N00346831WA0120801329
B1342153743283N00346836WA0121101331
B1342163743282N00346841WA0121301334
B1342173743282N00346844WA0121501336
B1342183743284N00346847WA0121501337
B1342193743288N00346847WA0121501337
B1342203743293N00346844WA0121501337
B1342213743297N00346838WA0121801339
B1342223743298N00346832WA0122201340
B1342233743295N00346825WA0122401342
B1342243743291N00346820WA0122601345
B1342253743286N00346815WA0122801347
B1342263743281N00346811WA0122901349
B1342273743275N00346809WA0123001350
B1342283743268N00346808WA0123001351
B1342293743260N00346810WA0123201351
B1342303743255N00346813WA0123601352
B1342313743251N00346818WA0123701355
B1342323743249N00346822WA0123801357
B1342333743248N00346826WA0123401356
B1342343743249N00346831WA0123001353
B1342353743251N00346837WA0122501349
B1342363743254N00346843WA0122301347
B1342373743258N00346848WA0122301345
B1342383743261N00346851WA0122301345
B1342393743264N00346852WA0122301345
B1342403743267N00346853WA0122201344
B1342413743271N00346854WA0122001343
B1342423743276N00346854WA0122001342
B1342433743281N00346855WA0122001341
B1342443743287N00346856WA0122101341
B1342453743291N00346855WA0122301343
B1342463743294N00346854WA0122601344
B1342473743297N00346852WA0122701345
B1342483743299N00346849WA0122701345
B1342493743303N00346846WA0122501344
B1342503743307N00346842WA0122401344
B1342513743312N00346839WA0122401343
B1342523743317N00346835WA0122501343
B1342533743321N00346831WA0122701345
B1342543743324N00346828WA0122901348
B1342553743327N00346825WA0123101350
B1342563743330N00346823WA0123301352
B1342573743333N00346820WA0123501354
B1342583743335N00346815WA0123401355
B1342593743336N00346808WA0123201353
B1343003743335N00346800WA0122801352
B1343013743332N00346792WA0122801351
B1343023743328N00346784WA0122801350
B1343033743322N00346779WA0122801351
B1343043743317N00346776WA0122701351
B1343053743311N00346774WA0122301349
B1343063743304N00346774WA0122201348
B1343073743298N00346776WA0122201346
B1343083743291N00346780WA0122201345
B1343093743286N00346784WA0122301344
B1343103743281N00346788WA0122601344
B1343113743278N00346792WA0122801345
B1343123743276N00346796WA0122901348
B1343133743274N00346800WA0123101349
B1343143743273N00346804WA0123201350
B1343153743272N00346808WA0123401353
B1343163743272N00346810WA0123501355
B1343173743272N00346812WA0123501355
B1343183743272N00346815WA0123201355
B1343193743275N00346818WA0123001354
B1343203743279N00346820WA0122901353
B1343213743284N00346822WA0122901353
B1343223743287N00346823WA0123201355
B1343233743290N00346823WA0123401356
B1343243743292N00346822WA0123401358
B1343253743293N00346822WA0123401358
B1343263743295N00346820WA0123201358
B1343273743298N00346819WA0122901358
B1343283743302N00346817WA0122701356
B1343293743306N00346815WA0122701355
B1343303743310N00346814WA0122801355
B1343313743312N00346812WA0122901355
B1343323743314N00346810WA0122801355
B1343333743317N00346808WA0122501353
B1343343743320N00346806WA0122001351
B1343353743323N00346804WA0122001348
B1343363743327N00346802WA0122201347
B1343373743329N00346801WA0122201346
B1343383743332N00346800WA0122201346
B1343393743335N00346799WA0122101345
B1343403743338N00346797WA0122001343
B1343413743341N00346794WA0121701341
B1343423743344N00346791WA0121601338
B1343433743348N00346789WA0121601337
B1343443743350N00346787WA0121801337
B1343453743352N00346785WA0121801340
B1343463743354N00346783WA0121801340
B1343473743355N00346780WA0121501339
B1343483743358N00346776WA0121401336
B1343493743361N00346773WA0121201333
B1343503743364N00346770WA0121101332
B1343513743367N00346768WA0121201332
B1343523743369N00346766WA0121301332
B1343533743371N00346763WA0121201332
B1343543743374N00346760WA0120901331
B1343553743376N00346758WA0120601330
B1343563743380N00346755WA0120801329
B1343573743383N00346753WA0120801329
B1343583743386N00346751WA0121001329
B1343593743389N00346750WA0121101329
B1344003743391N00346749WA0121101329
B1344013743394N00346747WA0121001329
B1344023743396N00346744WA0120901328
B1344033743399N00346741WA0120901328
B1344043743402N00346737WA0120801328
B1344053743404N00346733WA0120901329
B1344063743407N00346729WA0121001331
B1344073743409N00346726WA0121201333
B1344083743411N00346723WA0121301334
B1344093743414N00346720WA0121301335
B1344103743417N00346717WA0121401335
B1344113743421N00346714WA0121301336
B1344123743424N00346712WA0121401336
B1344133743427N00346711WA0121601337
B1344143743429N00346710WA0121601337
B1344153743432N00346708WA0121501337
B1344163743435N00346705WA0121301336
B1344173743438N00346703WA0121001334
B1344183743441N00346701WA0120901331
B1344193743444N00346699WA0120801330
B1344203743448N00346697WA0120601328
B1344213743450N00346696WA0120401327
B1344223743453N00346695WA0120201325
B1344233743456N00346694WA0119901323
B1344243743460N00346693WA0119601321
B1344253743464N00346692WA0119301318
B1344263743470N00346693WA0118701313
B1344273743475N00346693WA0118501309
B1344283743480N00346693WA0118601308
B1344293743485N00346693WA0118601308
B1344303743489N00346692WA0118601309
B1344313743493N00346691WA0118401308
B1344323743496N00346690WA0118101306
B1344333743502N00346689WA0117801304
B1344343743508N00346689WA0117401300
B1344353743515N00346687WA0117301296
B1344363743520N00346684WA0117201294
B1344373743524N00346680WA0117201293
B1344383743528N00346677WA0117201293
B1344393743532N00346675WA0116701292
B1344403743536N00346674WA0116301290
B1344413743542N00346671WA0116001287
B1344423743547N00346668WA0115701283
B1344433743552N00346663WA0115501281
B1344443743556N00346658WA0115301278
B1344453743560N00346653WA0115201276
B1344463743565N00346649WA0115001273
B1344473743569N00346645WA0114701271
B1344483743574N00346640WA0114401268
B1344493743578N00346635WA0114101265
B1344503743581N00346629WA0113901262
B1344513743584N00346622WA0113701260
B1344523743588N00346617WA0113401257
B1344533743592N00346611WA0113101253
B1344543743596N00346606WA0112801250
B1344553743599N00346601WA0112601248
B1344563743602N00346595WA0112501245
B1344573743605N00346589WA0112301243
B1344583743609N00346583WA0112101240
B1344593743612N00346577WA0111801238
B1345003743616N00346572WA0111501236
B1345013743619N00346567WA0111301234
B1345023743624N00346561WA0111201231
B1345033743629N00346556WA0111001229
B1345043743633N00346552WA0110901227
B1345053743637N00346547WA0110801226
B1345063743641N00346541WA0110701225
B1345073743644N00346536WA0110401223
B1345083743648N00346530WA0110101221
B1345093743652N00346525WA0109901218
B1345103743657N00346520WA0109701215
B1345113743661N00346515WA0109601213
B1345123743664N00346510WA0109701214
B1345133743667N00346505WA0109701214
B1345143743670N00346501WA0109801215
B1345153743674N00346497WA0109601214
B1345163743677N00346493WA0109501213
B1345173743681N00346490WA0109601212
B1345183743685N00346487WA0109601213
B1345193743687N00346483WA0109701213
B1345203743690N00346479WA0109501213
B1345213743692N00346476WA0109101211
B1345223743695N00346472WA0108701209
B1345233743699N00346468WA0108701207
B1345243743702N00346463WA0108701205
B1345253743705N00346458WA0108901204
B1345263743709N00346454WA0109001204
B1345273743711N00346452WA0109101204
B1345283743714N00346449WA0109001205
B1345293743716N00346445WA0108701204
B1345303743718N00346441WA0108201201
B1345313743722N00346436WA0108201197
B1345323743726N00346431WA0108101195
B1345333743730N00346425WA0108301194
B1345343743733N00346420WA0108601195
B1345353743736N00346416WA0108701197
B1345363743738N00346413WA0108801198
B1345373743741N00346410WA0108701198
B1345383743745N00346405WA0108501197
B1345393743748N00346401WA0108201194
B1345403743750N00346397WA0108101192
B1345413743752N00346395WA0107801190
B1345423743755N00346392WA0107501186
B1345433743758N00346388WA0107201183
B1345443743762N00346385WA0106901179
B1345453743765N00346381WA0106601177
B1345463743769N00346378WA0106301175
B1345473743773N00346376WA0106301173
B1345483743777N00346374WA0106301171
B1345493743780N00346372WA0106201169
B1345503743783N00346370WA0106101169
B1345513743787N00346367WA0105801167
B1345523743790N00346365WA0105601166
B1345533743793N00346362WA0105601165
B1345543743796N00346359WA0105501164
B1345553743799N00346356WA0105201162
B1345563743802N00346353WA0104901160
B1345573743806N00346350WA0104601158
B1345583743809N00346347WA0104501156
B1345593743812N00346342WA0104201154
B1346003743814N00346338WA0104001151
B1346013743818N00346334WA0103901149
B1346023743821N00346331WA0103801147
B1346033743825N00346328WA0103701146
B1346043743828N00346325WA0103601145
B1346053743830N00346322WA0103301144
B1346063743833N00346318WA0103001142
B1346073743836N00346315WA0102601140
B1346083743841N00346311WA0102501138
B1346093743845N00346308WA0102601136
B1346103743849N00346304WA0102701135
B1346113743852N00346300WA0102801137
B1346123743854N00346298WA0103001139
B1346133743857N00346296WA0103101140
B1346143743860N00346294WA0103201141
B1346153743862N00346292WA0103301142
B1346163743864N00346290WA0103401143
B1346173743866N00346288WA0103401144
B1346183743868N00346285WA0103401144
B1346193743870N00346283WA0103201144
B1346203743873N00346280WA0103001141
B1346213743876N00346278WA0102801140
B1346223743880N00346276WA0102701138
B1346233743884N00346274WA0102701137
B1346243743888N00346272WA0102701137
B1346253743892N00346271WA0102801136
B1346263743896N00346269WA0102701136
B1346273743899N00346268WA0102601136
B1346283743903N00346267WA0102501135
B1346293743907N00346265WA0102301134
B1346303743911N00346263WA0102401133
B1346313743915N00346262WA0102501134
B1346323743919N00346262WA0102501134
B1346333743923N00346262WA0102601134
B1346343743926N00346263WA0102701135
B1346353743930N00346263WA0102801135
B1346363743934N00346263WA0102801136
B1346373743937N00346262WA0102801137
B1346383743942N00346262WA0103001137
B1346393743945N00346262WA0103101138
B1346403743949N00346262WA0103401140
B1346413743952N00346263WA0103501143
B1346423743955N00346263WA0103701145
B1346433743958N00346262WA0103901146
B1346443743960N00346259WA0104001147
B1346453743961N00346254WA0104201148
B1346463743959N00346248WA0104301150
B1346473743955N00346241WA0104401151
B1346483743949N00346237WA0104401153
B1346493743942N00346234WA0104701154
B1346503743935N00346234WA0104901155
B1346513743929N00346236WA0105101157
B1346523743925N00346241WA0105201159
B1346533743923N00346246WA0105301160
B1346543743922N00346252WA0105301161
B1346553743924N00346258WA0105301160
B1346563743927N00346263WA0105401161
B1346573743930N00346266WA0105601163
B1346583743934N00346268WA0105801165
B1346593743937N00346269WA0106001167
B1347003743940N00346270WA0106201169
B1347013743942N00346270WA0106301171
B1347023743945N00346268WA0106301172
B1347033743947N00346263WA0106301173
B1347043743947N00346256WA0106301172
B1347053743944N00346249WA0106301172
B1347063743940N00346242WA0106501173
B1347073743933N00346239WA0106901176
B1347083743927N00346239WA0107201181
B1347093743922N00346242WA0107401184
B1347103743917N00346246WA0107501186
B1347113743912N00346251WA0107501187
B1347123743909N00346257WA0107601188
B1347133743907N00346264WA0107801190
B1347143743907N00346269WA0107801191
B1347153743909N00346273WA0107901192
B1347163743911N00346276WA0107701191
B1347173743915N00346277WA0107701192
B1347183743920N00346277WA0107701192
B1347193743924N00346276WA0107801193
B1347203743928N00346276WA0108101193
B1347213743932N00346275WA0108201195
B1347223743935N00346275WA0108301196
B1347233743938N00346275WA0108401197
B1347243743941N00346275WA0108701198
B1347253743944N00346274WA0108701199
B1347263743947N00346273WA0108701200
B1347273743950N00346271WA0108701200
B1347283743953N00346269WA0108301199
B1347293743957N00346266WA0108201198
B1347303743961N00346263WA0108501198
B1347313743964N00346259WA0108701199
B1347323743967N00346256WA0108801200
B1347333743969N00346252WA0109001201
B1347343743970N00346247WA0109101202
B1347353743971N00346242WA0109201203
B1347363743972N00346235WA0109201203
B1347373743971N00346227WA0109201204
B1347383743967N00346220WA0109201204
B1347393743962N00346215WA0109201204
B1347403743956N00346212WA0109201205
B1347413743949N00346212WA0109101205
B1347423743943N00346215WA0109001204
B1347433743938N00346219WA0109001204
B1347443743935N00346225WA0109101203
B1347453743935N00346232WA0109101203
B1347463743937N00346237WA0109301204
B1347473743940N00346240WA0109401205
B1347483743944N00346240WA0109701207
B1347493743946N00346239WA0109801209
B1347503743949N00346237WA0109901210
B1347513743951N00346234WA0109801211
B1347523743954N00346231WA0109701211
B1347533743958N00346228WA0109601211
B1347543743963N00346226WA0109501211
B1347553743967N00346224WA0109401210
B1347563743972N00346222WA0109401210
B1347573743976N00346220WA0109301209
B1347583743980N00346218WA0109201208
B1347593743984N00346216WA0109201208
B1348003743987N00346214WA0108901206
B1348013743991N00346211WA0108701204
B1348023743996N00346208WA0108401203
B1348033743999N00346205WA0108601202
B1348043744002N00346201WA0108601201
B1348053744005N00346199WA0108601201
B1348063744006N00346196WA0108501200
B1348073744008N00346194WA0108201198
B1348083744011N00346190WA0107801197
B1348093744015N00346185WA0107501193
B1348103744018N00346181WA0107401190
B1348113744020N00346177WA0107301189
B1348123744023N00346175WA0107201189
B1348133744025N00346173WA0107101187
B1348143744027N00346171WA0106901185
B1348153744031N00346167WA0106701183
B1348163744033N00346162WA0106601182
B1348173744036N00346158WA0106701182
B1348183744038N00346156WA0106701184
B1348193744040N00346153WA0106601184
B1348203744042N00346150WA0106301182
B1348213744045N00346145WA0105901180
B1348223744048N00346141WA0105801178
B1348233744052N00346138WA0106001178
B1348243744056N00346135WA0106201180
B1348253744059N00346133WA0106301180
B1348263744062N00346131WA0106401179
B1348273744065N00346129WA0106401179
B1348283744068N00346126WA0106401179
B1348293744071N00346123WA0106301179
B1348303744074N00346119WA0106301179
B1348313744076N00346115WA0106201177
B1348323744079N00346111WA0106101175
B1348333744082N00346109WA0106001174
B1348343744085N00346106WA0106001173
B1348353744087N00346104WA0105901172
B1348363744090N00346102WA0105801171
B1348373744093N00346100WA0105801171
B1348383744095N00346099WA0105601170
B1348393744098N00346097WA0105301169
B1348403744101N00346095WA0104901166
B1348413744106N00346093WA0104601162
B1348423744111N00346089WA0104301158
B1348433744114N00346085WA0104201156
B1348443744117N00346081WA0104301157
B1348453744120N00346078WA0104401158
B1348463744122N00346076WA0104101157
B1348473744125N00346073WA0103701154
B1348483744129N00346068WA0103201151
B1348493744133N00346063WA0102801147
B1348503744136N00346057WA0102601143
B1348513744140N00346052WA0102401140
B1348523744143N00346047WA0102201138
B1348533744146N00346043WA0101801136
B1348543744150N00346038WA0101701133
B1348553744153N00346033WA0101401130
B1348563744156N00346027WA0101201126
B1348573744160N00346022WA0100901123
B1348583744164N00346017WA0100701121
B1348593744168N00346013WA0100701119
B1349003744171N00346008WA0100501117
B1349013744175N00346003WA0100301115
B1349023744178N00345998WA0100001112
B1349033744181N00345992WA0099701109
B1349043744184N00345985WA0099501106
B1349053744187N00345979WA0099301104
B1349063744190N00345973WA0099001101
B1349073744193N00345968WA0098801099
B1349083744195N00345962WA0098601096
B1349093744198N00345956WA0098401094
B1349103744200N00345950WA0098101091
B1349113744203N00345944WA0097801089
B1349123744206N00345938WA0097601086
B1349133744210N00345933WA0097501084
B1349143744212N00345927WA0097401082
B1349153744214N00345922WA0097301080
B1349163744216N00345917WA0097101078
B1349173744219N00345913WA0096701076
B1349183744222N00345908WA0096201071
B1349193744225N00345902WA0095801066
B1349203744228N00345896WA0095401062
B1349213744232N00345890WA0095201058
B1349223744235N00345886WA0095101055
B1349233744238N00345882WA0094901054
B1349243744242N00345877WA0094601051
B1349253744245N00345873WA0094301048
B1349263744250N00345868WA0094001045
B1349273744254N00345863WA0093801042
B1349283744258N00345859WA0093601040
B1349293744262N00345856WA0093301038
B1349303744267N00345853WA0092901035
B1349313744271N00345850WA0092301032
B1349323744277N00345847WA0092201030
B1349333744283N00345844WA0092201027
B1349343744288N00345841WA0092101025
B1349353744292N00345837WA0092101024
B1349363744296N00345834WA0092101023
B1349373744300N00345831WA0092101022
B1349383744305N00345828WA0091901020
B1349393744310N00345826WA0091701019
B1349403744315N00345822WA0091601018
B1349413744319N00345818WA0091501017
B1349423744324N00345813WA0091501016
B1349433744328N00345806WA0091501015
B1349443744332N00345800WA0091401015
B1349453744335N00345793WA0091501015
B1349463744338N00345786WA0091501015
B1349473744341N00345779WA0091501015
B1349483744344N00345772WA0091401014
B1349493744348N00345766WA0091501014
B1349503744351N00345760WA0091601015
B1349513744354N00345754WA0091801015
B1349523744357N00345748WA0092001018
B1349533744358N00345744WA0092101020
B1349543744360N00345739WA0092101020
B1349553744362N00345735WA0091701020
B1349563744364N00345729WA0091301020
B1349573744366N00345723WA0091301020
B1349583744368N00345716WA0091401020
B1349593744371N00345710WA0091501020
B1350003744373N00345705WA0091501020
B1350013744375N00345700WA0091501019
B1350023744377N00345695WA0091201019
B1350033744380N00345689WA0091101018
B1350043744382N00345683WA0091101015
B1350053744385N00345678WA0091001014
B1350063744387N00345673WA0091001013
B1350073744389N00345669WA0090901013
B1350083744391N00345665WA0090701012
B1350093744394N00345661WA0090301011
B1350103744397N00345656WA0090101009
B1350113744400N00345650WA0089901007
B1350123744403N00345645WA0089901005
B1350133744405N00345640WA0089801004
B1350143744407N00345636WA0089601003
B1350153744409N00345631WA0089501002
B1350163744412N00345627WA0089201000
B1350173744415N00345622WA0088900998
B1350183744418N00345617WA0088800996
B1350193744420N00345611WA0088600995
B1350203744423N00345606WA0088600993
B1350213744426N00345601WA0088400992
B1350223744429N00345597WA0088000989
B1350233744433N00345593WA0088000987
B1350243744437N00345588WA0087900985
B1350253744440N00345582WA0087900983
B1350263744442N00345576WA0087800981
B1350273744444N00345571WA0087700980
B1350283744446N00345566WA0087600979
B1350293744448N00345561WA0087400978
B1350303744449N00345555WA0087200976
B1350313744451N00345548WA0086800973
B1350323744453N00345541WA0086500971
B1350333744455N00345535WA0086300969
B1350343744458N00345529WA0086200967
B1350353744460N00345525WA0086100965
B1350363744462N00345520WA0086000963
B1350373744464N00345515WA0085700961
B1350383744465N00345509WA0085500959
B1350393744466N00345503WA0085300956
B1350403744468N00345497WA0085100954
B1350413744469N00345492WA0084800952
B1350423744471N00345487WA0084600950
B1350433744472N00345482WA0084400948
B1350443744473N00345476WA0084300947
B1350453744474N00345470WA0084000945
B1350463744476N00345464WA0083800943
B1350473744477N00345458WA0083600941
B1350483744479N00345452WA0083400939
B1350493744480N00345447WA0083300938
B1350503744480N00345441WA0083100936
B1350513744482N00345435WA0082800933
B1350523744483N00345430WA0082500931
B1350533744485N00345424WA0082500929
B1350543744486N00345418WA0082300926
B1350553744486N00345413WA0082000924
B1350563744487N00345407WA0081600921
B1350573744488N00345401WA0081300918
B1350583744490N00345396WA0081100915
B1350593744491N00345390WA0080800913
B1351003744493N00345384WA0080700910
B1351013744494N00345379WA0080500908
B1351023744495N00345373WA0080200906
B1351033744497N00345367WA0079900904
B1351043744498N00345361WA0079700901
B1351053744501N00345356WA0079400898
B1351063744503N00345351WA0079200896
B1351073744505N00345346WA0078900894
B1351083744507N00345342WA0078800891
B1351093744509N00345337WA0078400887
B1351103744511N00345333WA0078100882
B1351113744514N00345329WA0077700879
B1351123744517N00345324WA0077300875
B1351133744519N00345319WA0077100872
B1351143744520N00345313WA0076700870
B1351153744520N00345307WA0076600867
B1351163744520N00345301WA0076400865
B1351173744521N00345295WA0076200862
B1351183744523N00345289WA0075800859
B1351193744525N00345282WA0075500857
B1351203744527N00345276WA0075600854
B1351213744528N00345271WA0075600852
B1351223744529N00345265WA0075500851
B1351233744530N00345260WA0075300849
B1351243744531N00345254WA0075000846
B1351253744533N00345247WA0074700844
B1351263744534N00345240WA0074600842
B1351273744534N00345233WA0074500840
B1351283744535N00345227WA0074400838
B1351293744537N00345222WA0074200837
B1351303744539N00345217WA0073800835
B1351313744542N00345212WA0073600832
B1351323744544N00345206WA0073500829
B1351333744546N00345200WA0073300826
B1351343744549N00345194WA0073200824
B1351353744551N00345190WA0073000822
B1351363744552N00345185WA0072900820
B1351373744554N00345179WA0072500817
B1351383744556N00345173WA0072100815
B1351393744559N00345166WA0071900812
B1351403744561N00345160WA0071600809
B1351413744563N00345155WA0071400806
B1351423744565N00345149WA0071300803
B1351433744567N00345143WA0071000800
B1351443744569N00345136WA0070800798
B1351453744571N00345130WA0070600795
B1351463744573N00345125WA0070600793
B1351473744575N00345119WA0070500792
B1351483744576N00345114WA0070400791
B1351493744578N00345108WA0070000790
B1351503744580N00345102WA0069700788
B1351513744582N00345096WA0069600786
B1351523744584N00345091WA0069500785
B1351533744586N00345087WA0069300783
B1351543744588N00345082WA0069000781
B1351553744590N00345077WA0068700779
B1351563744592N00345071WA0068400777
B1351573744594N00345065WA0068200774
B1351583744597N00345060WA0068100772
B1351593744599N00345056WA0068000771
B1352003744602N00345052WA0067900769
B1352013744605N00345047WA0067300767
B1352023744607N00345041WA0067200765
B1352033744609N00345036WA0067200772
B1352043744612N00345031WA0067300771
B1352053744614N00345028WA0067200769
B1352063744617N00345024WA0066700767
B1352073744620N00345020WA0066400766
B1352083744623N00345014WA0066200765
B1352093744626N00345009WA0066200764
B1352103744629N00345004WA0066100762
B1352113744631N00344999WA0066000761
B1352123744634N00344994WA0065900760
B1352133744636N00344989WA0065700758
B1352143744638N00344983WA0065600756
B1352153744640N00344977WA0065400754
B1352163744642N00344972WA0065300751
B1352173744644N00344966WA0065100749
B1352183744645N00344961WA0064900746
B1352193744648N00344956WA0064800744
B1352203744650N00344951WA0064700740
B1352213744652N00344945WA0064400737
B1352223744655N00344939WA0064300735
B1352233744656N00344933WA0064100733
B1352243744656N00344927WA0064000731
B1352253744655N00344922WA0063600728
B1352263744656N00344916WA0063100726
B1352273744657N00344910WA0062800723
B1352283744658N00344903WA0062600720
B1352293744660N00344897WA0062500718
B1352303744661N00344891WA0062400716
B1352313744663N00344887WA0062300714
B1352323744664N00344883WA0062100711
B1352333744666N00344878WA0061800709
B1352343744667N00344872WA0061300705
B1352353744667N00344866WA0060900702
B1352363744666N00344859WA0060800700
B1352373744666N00344853WA0060600710
B1352383744667N00344849WA0060500709
B1352393744670N00344846WA0060400707
B1352403744672N00344843WA0060100702
B1352413744675N00344839WA0059600698
B1352423744676N00344834WA0059500696
B1352433744677N00344828WA0059400694
B1352443744677N00344822WA0059300692
B1352453744677N00344817WA0059100690
B1352463744678N00344812WA0058800693
B1352473744679N00344806WA0058500692
B1352483744681N00344799WA0058300691
B1352493744683N00344792WA0058200690
B1352503744685N00344787WA0058400688
B1352513744687N00344783WA0058500687
B1352523744688N00344779WA0058400686
B1352533744688N00344775WA0058100685
B1352543744690N00344770WA0057800684
B1352553744693N00344763WA0057600683
B1352563744696N00344756WA0057400681
B1352573744698N00344751WA0057700679
B1352583744698N00344747WA0058000680
B1352593744698N00344744WA0058000680
B1353003744697N00344740WA0057700679
B1353013744698N00344735WA0057100678
B1353023744699N00344728WA0056800677
B1353033744701N00344722WA0057000677
B1353043744702N00344717WA0057200677
B1353053744702N00344714WA0057400676
B1353063744702N00344711WA0057500675
B1353073744703N00344707WA0057300673
B1353083744703N00344702WA0057100672
B1353093744704N00344695WA0056900670
B1353103744704N00344689WA0056900669
B1353113744704N00344684WA0057200668
B1353123744704N00344681WA0057200667
B1353133744703N00344678WA0056900665
B1353143744703N00344674WA0056400662
B1353153744704N00344669WA0055900660
B1353163744705N00344664WA0055600657
B1353173744708N00344660WA0055600654
B1353183744710N00344656WA0055400652
B1353193744711N00344654WA0055100648
B1353203744713N00344650WA0054700644
B1353213744713N00344647WA0054300641
B1353223744716N00344642WA0053700648
B1353233744721N00344639WA0053500647
B1353243744726N00344636WA0053700644
B1353253744728N00344634WA0054100643
B1353263744730N00344632WA0054200642
B1353273744731N00344630WA0053900641
B1353283744733N00344627WA0053400639
B1353293744736N00344624WA0053100638
B1353303744740N00344621WA0053000636
B1353313744744N00344618WA0053000632
B1353323744746N00344615WA0053100630
B1353333744747N00344612WA0053000628
B1353343744748N00344610WA0052900626
B1353353744750N00344608WA0052300622
B1353363744753N00344607WA0051900616
B1353373744757N00344605WA0051500611
B1353383744760N00344604WA0051500608
B1353393744762N00344604WA0051500606
B1353403744764N00344605WA0051300604
B1353413744766N00344607WA0051000601
B1353423744768N00344608WA0050800597
B1353433744772N00344608WA0050500594
B1353443744776N00344610WA0050400590
B1353453744780N00344614WA0050300588
B1353463744783N00344618WA0050200586
B1353473744783N00344624WA0050300585
B1353483744784N00344629WA0050500588
B1353493744784N00344634WA0050600588
B1353503744783N00344638WA0050700588
B1353513744783N00344642WA0050500587
B1353523744782N00344647WA0050400587
B1353533744780N00344651WA0050400586
B1353543744778N00344655WA0050400585
B1353553744775N00344659WA0050200585
B1353563744773N00344664WA0050100584
B1353573744772N00344669WA0049800583
B1353583744770N00344675WA0049600581
B1353593744769N00344680WA0049500581
B1354003744766N00344685WA0049400579
B1354013744764N00344691WA0049300577
B1354023744762N00344696WA0049100575
B1354033744762N00344700WA0048900573
B1354043744762N00344706WA0048700570
B1354053744763N00344710WA0048700569
B1354063744763N00344714WA0048800567
B1354073744763N00344717WA0048700566
B1354083744763N00344720WA0048500565
B1354093744764N00344724WA0048200563
B1354103744764N00344729WA0048200560
B1354113744765N00344733WA0048100563
B1354123744764N00344737WA0048100563
B1354133744763N00344740WA0048100562
B1354143744762N00344743WA0047800561
B1354153744762N00344747WA0047500559
B1354163744764N00344751WA0047100557
B1354173744767N00344755WA0046900555
B1354183744770N00344758WA0046900553
B1354193744772N00344760WA0046900551
B1354203744774N00344763WA0046800550
B1354213744776N00344766WA0046700548
B1354223744778N00344770WA0046400545
B1354233744782N00344773WA0046200542
B1354243744786N00344774WA0046200540
B1354253744790N00344775WA0046200539
B1354263744793N00344778WA0046200538
B1354273744795N00344783WA0045800536
B1354283744796N00344790WA0045800534
B1354293744798N00344795WA0045700533
B1354303744799N00344800WA0045800532
B1354313744801N00344804WA0045700532
B1354323744802N00344809WA0045500531
B1354333744804N00344815WA0045300530
B1354343744805N00344822WA0045000528
B1354353744806N00344829WA0045000527
B1354363744808N00344835WA0045200526
B1354373744809N00344840WA0045300526
B1354383744811N00344844WA0045400526
B1354393744812N00344848WA0045400525
B1354403744815N00344852WA0045300527
B1354413744817N00344856WA0045200527
B1354423744819N00344860WA0045200527
B1354433744819N00344865WA0045400527
B1354443744819N00344870WA0045600527
B1354453744820N00344874WA0045700528
B1354463744821N00344878WA0045700528
B1354473744823N00344882WA0045800529
B1354483744825N00344885WA0045900530
B1354493744824N00344889WA0046000529
B1354503744825N00344894WA0046100529
B1354513744825N00344899WA0046200529
B1354523744826N00344904WA0046300530
B1354533744828N00344908WA0046400530
B1354543744830N00344911WA0046700532
B1354553744833N00344913WA0046800533
B1354563744836N00344913WA0046800534
B1354573744839N00344912WA0047000535
B1354583744842N00344910WA0047000536
B1354593744844N00344906WA0047000537
B1355003744845N00344901WA0046900538
B1355013744845N00344895WA0046800537
B1355023744846N00344890WA0046900538
B1355033744849N00344887WA0046800538
B1355043744851N00344887WA0046500537
B1355053744855N00344888WA0046400536
B1355063744857N00344890WA0046400536
B1355073744859N00344892WA0046400536
B1355083744858N00344896WA0046100534
B1355093744856N00344903WA0045500535
B1355103744854N00344911WA0044900534
B1355113744850N00344919WA0044400533
B1355123744846N00344926WA0044400532
B1355133744843N00344932WA0044300531
B1355143744842N00344937WA0044200530
B1355153744842N00344943WA0044100528
B1355163744843N00344948WA0043900525
B1355173744844N00344953WA0043800522
B1355183744846N00344958WA0043600519
B1355193744848N00344963WA0043400517
B1355203744851N00344968WA0043300514
B1355213744855N00344973WA0043400511
B1355223744858N00344977WA0043300511
B1355233744860N00344982WA0043300510
B1355243744862N00344986WA0043000509
B1355253744865N00344990WA0042900508
B1355263744868N00344994WA0042500506
B1355273744872N00344996WA0042200505
B1355283744876N00344998WA0042000501
B1355293744879N00345000WA0041900498
B1355303744883N00345002WA0041700495
B1355313744887N00345004WA0041500492
B1355323744891N00345007WA0041000490
B1355333744892N00345010WA0040900487
B1355343744895N00345014WA0040600491
B1355353744898N00345017WA0040400491
B1355363744901N00345020WA0040300489
B1355373744905N00345024WA0040200487
B1355383744907N00345028WA0040100485
B1355393744911N00345032WA0040100485
B1355403744913N00345036WA0040000485
B1355413744915N00345039WA0039800484
B1355423744917N00345042WA0039600482
B1355433744921N00345046WA0039500481
B1355443744924N00345049WA0039300479
B1355453744927N00345054WA0039100477
B1355463744931N00345059WA0039000475
B1355473744934N00345065WA0038700473
B1355483744937N00345071WA0038600471
B1355493744937N00345078WA0038600469
B1355503744938N00345084WA0038400468
B1355513744938N00345090WA0038400466
B1355523744937N00345096WA0038600466
B1355533744937N00345101WA0038900467
B1355543744937N00345105WA0039000469
B1355553744936N00345109WA0039000469
B1355563744935N00345114WA0038800468
B1355573744933N00345120WA0038700466
B1355583744931N00345126WA0038500465
B1355593744929N00345133WA0038600465
B1356003744929N00345140WA0038600465
B1356013744928N00345146WA0038700465
B1356023744928N00345149WA0038900468
B1356033744928N00345151WA0039000468
B1356043744927N00345154WA0038900468
B1356053744927N00345157WA0038600467
B1356063744927N00345161WA0038300466
B1356073744928N00345165WA0038100464
B1356083744928N00345170WA0037900464
B1356093744927N00345174WA0037800463
B1356103744926N00345179WA0037700463
B1356113744926N00345184WA0037600462
B1356123744928N00345186WA0037300460
B1356133744931N00345188WA0037100455
B1356143744934N00345187WA0036800453
B1356153744936N00345183WA0036700451
B1356163744938N00345179WA0036600448
B1356173744938N00345176WA0036500446
B1356183744940N00345173WA0036200448
B1356193744943N00345171WA0035900447
B1356203744947N00345169WA0035800446
B1356213744952N00345169WA0035600445
B1356223744956N00345170WA0035800443
B1356233744958N00345173WA0035900443
B1356243744959N00345176WA0035800442
B1356253744961N00345179WA0035700441
B1356263744962N00345182WA0035500440
B1356273744964N00345185WA0035200438
B1356283744967N00345188WA0035000438
B1356293744969N00345193WA0034800437
B1356303744971N00345198WA0034600436
B1356313744973N00345203WA0034700435
B1356323744975N00345206WA0034600434
B1356333744978N00345210WA0034600433
B1356343744981N00345213WA0034500432
B1356353744984N00345216WA0034400432
B1356363744987N00345218WA0034600431
B1356373744987N00345219WA0034600431
B1356383744988N00345219WA0034600430
B1356393744989N00345220WA0034600430
B1356403744989N00345219WA0034600430
B1356413744989N00345218WA0034500429
B1356423744989N00345218WA0034600429
B1356433744989N00345218WA0034600429
B1356443744989N00345218WA0034600429
B1356453744990N00345217WA0034600428
B1356463744990N00345218WA0034600428
B1356473744990N00345218WA0034600428
B1356483744990N00345218WA0034600428
B1356493744990N00345218WA0034600428
B1356503744990N00345218WA0034600427
B1356513744990N00345218WA0034600427
B1356523744991N00345218WA0034600426
B1356533744990N00345218WA0034600426
B1356543744990N00345218WA0034600426
B1356553744990N00345218WA0034600425
B1356563744990N00345218WA0034600425
B1356573744990N00345218WA0034600425
B1356583744991N00345218WA0034600425
B1356593744991N00345217WA0034600425
B1357003744991N00345217WA0034600425
B1357013744990N00345217WA0034600425
B1357023744990N00345217WA0034600425
B1357033744990N00345217WA0034600425
B1357043744989N00345217WA0034600425
B1357053744990N00345216WA0034600425
B1357063744990N00345215WA0034600425
B1357073744990N00345215WA0034600424
B1357083744990N00345215WA0034600424
B1357093744991N00345215WA0034600424
B1357103744991N00345215WA0034600424
B1357113744990N00345216WA0034600424
B1357123744990N00345216WA0034600424
B1357133744990N00345216WA0034600424
B1357143744991N00345216WA0034600424
B1357153744991N00345216WA0034600424
B1357163744991N00345216WA0034600424
B1357173744991N00345216WA0034600424
B1357183744991N00345216WA0034600424
B1357193744991N00345216WA0034600424
B1357203744991N00345216WA0034600424
B1357213744991N00345216WA0034600423
B1357223744991N00345216WA0034600423
B1357233744991N00345216WA0034600423
B1357243744991N00345216WA0034600423
B1357253744991N00345216WA0034600423
B1357263744991N00345216WA0034600423
B1357273744991N00345215WA0034600423
B1357283744991N00345215WA0034600423
B1357293744991N00345215WA0034600423
B1357303744991N00345215WA0034600422
B1357313744991N00345215WA0034600422
B1357323744991N00345215WA0034600422
B1357333744991N00345215WA0034600422
LXGD GpsDump version 4.66
LXGD Downloaded 2012-09-13  13:11:18
G8ACF6FEC69C9F939
